| time (UTC) | temp F | wind direction | speed MPH | gust MPH | rain 1hr in | rain 24hr in | rain mn in | humidity % | barometer mb |
| 20260903210433 | 87 | 8 | 2.0 | 4.0 | 0.00 | 0.00 | 0.00 | 76 | 1012.2 |
| 20260903210331 | 87 | 53 | 2.0 | 4.0 | 0.00 | 0.00 | 0.00 | 76 | 1012.2 |
| 20260903210230 | 87 | 19 | 2.0 | 4.0 | 0.00 | 0.00 | 0.00 | 76 | 1012.2 |
| 20260903210223 | 87 | 351 | 2.0 | 6.0 | 0.00 | 0.00 | 0.00 | 76 | 1012.2 |
| 20260903210116 | 87 | 43 | 2.0 | 6.0 | 0.00 | 0.00 | 0.00 | 76 | 1012.2 |
| 20260903210016 | 87 | 53 | 2.0 | 6.0 | 0.00 | 0.00 | 0.00 | 76 | 1012.2 |
| 20260903205916 | 87 | 51 | 2.0 | 6.0 | 0.00 | 0.00 | 0.00 | 76 | 1012.2 |
| 20260903205816 | 87 | 50 | 2.0 | 6.0 | 0.00 | 0.00 | 0.00 | 76 | 1012.3 |
| 20260903205730 | 87 | 33 | 2.0 | 6.0 | 0.00 | 0.00 | 0.00 | 76 | 1012.3 |
| 20260903205713 | 87 | 41 | 2.0 | 6.0 | 0.00 | 0.00 | 0.00 | 76 | 1012.3 |
| 20260903205613 | 87 | 72 | 2.0 | 6.0 | 0.00 | 0.00 | 0.00 | 76 | 1012.3 |
| 20260903205513 | 87 | 56 | 2.0 | 6.0 | 0.00 | 0.00 | 0.00 | 76 | 1012.3 |
| 20260903205410 | 87 | 31 | 2.0 | 6.0 | 0.00 | 0.00 | 0.00 | 76 | 1012.3 |
| 20260903205306 | 87 | 98 | 2.0 | 11.0 | 0.00 | 0.00 | 0.00 | 76 | 1012.4 |
| 20260903205227 | 87 | 99 | 2.0 | 11.0 | 0.00 | 0.00 | 0.00 | 76 | 1012.4 |
| 20260903205205 | 87 | 82 | 2.0 | 11.0 | 0.00 | 0.00 | 0.00 | 76 | 1012.4 |
| 20260903205101 | 87 | 61 | 3.0 | 11.0 | 0.00 | 0.00 | 0.00 | 75 | 1012.4 |
| 20260903204958 | 87 | 37 | 3.0 | 11.0 | 0.00 | 0.00 | 0.00 | 75 | 1012.4 |
| 20260903204858 | 87 | 71 | 3.0 | 11.0 | 0.00 | 0.00 | 0.00 | 75 | 1012.4 |
| 20260903204758 | 87 | 30 | 3.0 | 11.0 | 0.00 | 0.00 | 0.00 | 75 | 1012.4 |
| 20260903204727 | 87 | 34 | 3.0 | 11.0 | 0.00 | 0.00 | 0.00 | 75 | 1012.4 |
| 20260903204658 | 87 | 36 | 3.0 | 11.0 | 0.00 | 0.00 | 0.00 | 75 | 1012.4 |
| 20260903204556 | 87 | 25 | 3.0 | 11.0 | 0.00 | 0.00 | 0.00 | 75 | 1012.4 |
| 20260903204452 | 87 | 38 | 3.0 | 11.0 | 0.00 | 0.00 | 0.00 | 75 | 1012.4 |
| 20260903204352 | 87 | 35 | 4.0 | 11.0 | 0.00 | 0.00 | 0.00 | 75 | 1012.4 |
| 20260903204252 | 87 | 9 | 4.0 | 10.0 | 0.00 | 0.00 | 0.00 | 75 | 1012.4 |
| 20260903204225 | 87 | 36 | 3.0 | 9.0 | 0.00 | 0.00 | 0.00 | 75 | 1012.3 |
| 20260903204152 | 87 | 46 | 3.0 | 9.0 | 0.00 | 0.00 | 0.00 | 75 | 1012.3 |
| 20260903204052 | 87 | 37 | 3.0 | 6.0 | 0.00 | 0.00 | 0.00 | 75 | 1012.3 |
| 20260903203952 | 87 | 47 | 3.0 | 6.0 | 0.00 | 0.00 | 0.00 | 75 | 1012.3 |
| 20260903203849 | 87 | 20 | 3.0 | 6.0 | 0.00 | 0.00 | 0.00 | 75 | 1012.3 |
| 20260903203746 | 87 | 43 | 3.0 | 6.0 | 0.00 | 0.00 | 0.00 | 75 | 1012.3 |
| 20260903203724 | 87 | 352 | 3.0 | 6.0 | 0.00 | 0.00 | 0.00 | 75 | 1012.3 |
| 20260903203646 | 87 | 27 | 3.0 | 6.0 | 0.00 | 0.00 | 0.00 | 75 | 1012.3 |
| 20260903203546 | 87 | 64 | 3.0 | 6.0 | 0.00 | 0.00 | 0.00 | 75 | 1012.3 |
| 20260903203441 | 87 | 9 | 2.0 | 6.0 | 0.00 | 0.00 | 0.00 | 75 | 1012.2 |
| 20260903203341 | 87 | 29 | 2.0 | 6.0 | 0.00 | 0.00 | 0.00 | 75 | 1012.2 |
| 20260903203240 | 87 | 43 | 2.0 | 8.0 | 0.00 | 0.00 | 0.00 | 75 | 1012.2 |
| 20260903203224 | 87 | 36 | 2.0 | 8.0 | 0.00 | 0.00 | 0.00 | 74 | 1012.2 |
| 20260903203216 | 87 | 48 | 3.0 | 8.0 | 0.00 | 0.00 | 0.00 | 75 | 1012.0 |
| 20260903203141 | 87 | 30 | 2.0 | 8.0 | 0.00 | 0.00 | 0.00 | 74 | 1012.2 |
| 20260903203059 | 87 | 26 | 2.0 | 8.0 | 0.00 | 0.00 | 0.00 | 74 | 1012.2 |
| 20260903202931 | 87 | 38 | 3.0 | 8.0 | 0.00 | 0.00 | 0.00 | 75 | 1012.1 |
| 20260903202835 | 87 | 33 | 3.0 | 8.0 | 0.00 | 0.00 | 0.00 | 75 | 1012.0 |
| 20260903202830 | 87 | 21 | 3.0 | 8.0 | 0.00 | 0.00 | 0.00 | 75 | 1012.0 |
| 20260903202632 | 87 | 59 | 3.0 | 8.0 | 0.00 | 0.00 | 0.00 | 75 | 1012.0 |
| 20260903202529 | 87 | 83 | 4.0 | 8.0 | 0.00 | 0.00 | 0.00 | 74 | 1011.9 |
| 20260903202429 | 87 | 25 | 4.0 | 8.0 | 0.00 | 0.00 | 0.00 | 74 | 1011.9 |
| 20260903202327 | 88 | 36 | 4.0 | 8.0 | 0.00 | 0.00 | 0.00 | 74 | 1011.9 |
| 20260903202226 | 88 | 26 | 4.0 | 8.0 | 0.00 | 0.00 | 0.00 | 74 | 1011.9 |
| 20260903202125 | 88 | 13 | 4.0 | 8.0 | 0.00 | 0.00 | 0.00 | 74 | 1012.0 |
| 20260903202025 | 88 | 41 | 4.0 | 8.0 | 0.00 | 0.00 | 0.00 | 74 | 1012.0 |
| 20260903201926 | 88 | 43 | 4.0 | 8.0 | 0.00 | 0.00 | 0.00 | 73 | 1012.0 |
| 20260903201822 | 88 | 36 | 4.0 | 8.0 | 0.00 | 0.00 | 0.00 | 73 | 1012.0 |
| 20260903201720 | 88 | 33 | 4.0 | 8.0 | 0.00 | 0.00 | 0.00 | 73 | 1012.0 |
| 20260903201614 | 88 | 113 | 4.0 | 8.0 | 0.00 | 0.00 | 0.00 | 72 | 1012.0 |
| 20260903201513 | 88 | 3 | 4.0 | 9.0 | 0.00 | 0.00 | 0.00 | 72 | 1012.0 |
| 20260903201414 | 88 | 12 | 3.0 | 9.0 | 0.00 | 0.00 | 0.00 | 71 | 1012.0 |
| 20260903201314 | 89 | 47 | 3.0 | 9.0 | 0.00 | 0.00 | 0.00 | 69 | 1011.9 |
| 20260903201221 | 89 | 305 | 3.0 | 9.0 | 0.00 | 0.00 | 0.00 | 69 | 1011.9 |
| 20260903201202 | 89 | 80 | 3.0 | 9.0 | 0.00 | 0.00 | 0.00 | 69 | 1011.9 |
| 20260903201059 | 89 | 53 | 3.0 | 9.0 | 0.00 | 0.00 | 0.00 | 69 | 1011.9 |
| 20260903200956 | 89 | 26 | 3.0 | 9.0 | 0.00 | 0.00 | 0.00 | 68 | 1011.9 |
| 20260903200850 | 89 | 52 | 3.0 | 9.0 | 0.00 | 0.00 | 0.00 | 68 | 1011.9 |
| 20260903200750 | 89 | 50 | 3.0 | 9.0 | 0.00 | 0.00 | 0.00 | 67 | 1011.9 |
| 20260903200719 | 89 | 28 | 3.0 | 9.0 | 0.00 | 0.00 | 0.00 | 66 | 1011.9 |
| 20260903200650 | 89 | 46 | 3.0 | 9.0 | 0.00 | 0.00 | 0.00 | 66 | 1011.9 |
| 20260903200540 | 89 | 37 | 3.0 | 9.0 | 0.00 | 0.00 | 0.00 | 66 | 1011.8 |
| 20260903200437 | 89 | 212 | 3.0 | 7.0 | 0.00 | 0.00 | 0.00 | 66 | 1011.9 |
| 20260903200334 | 89 | 29 | 3.0 | 7.0 | 0.00 | 0.00 | 0.00 | 66 | 1011.9 |
| 20260903200235 | 89 | 61 | 3.0 | 7.0 | 0.00 | 0.00 | 0.00 | 66 | 1011.9 |
| 20260903200215 | 90 | 69 | 3.0 | 7.0 | 0.00 | 0.00 | 0.00 | 66 | 1012.0 |
| 20260903200132 | 90 | 73 | 3.0 | 7.0 | 0.00 | 0.00 | 0.00 | 66 | 1012.0 |
| 20260903200029 | 90 | 46 | 3.0 | 7.0 | 0.00 | 0.00 | 0.00 | 66 | 1012.0 |
| 20260903195929 | 90 | 42 | 3.0 | 7.0 | 0.00 | 0.00 | 0.00 | 67 | 1012.0 |
| 20260903195829 | 90 | 44 | 4.0 | 7.0 | 0.00 | 0.00 | 0.00 | 67 | 1012.0 |
| 20260903195727 | 90 | 43 | 4.0 | 7.0 | 0.00 | 0.00 | 0.00 | 68 | 1011.9 |
| 20260903195715 | 90 | 27 | 4.0 | 8.0 | 0.00 | 0.00 | 0.00 | 68 | 1011.9 |
| 20260903195627 | 90 | 30 | 4.0 | 8.0 | 0.00 | 0.00 | 0.00 | 68 | 1011.9 |
| 20260903195527 | 90 | 123 | 4.0 | 8.0 | 0.00 | 0.00 | 0.00 | 68 | 1011.9 |
| 20260903195426 | 90 | 45 | 4.0 | 8.0 | 0.00 | 0.00 | 0.00 | 67 | 1011.9 |
| 20260903195326 | 90 | 40 | 4.0 | 8.0 | 0.00 | 0.00 | 0.00 | 67 | 1011.9 |
| 20260903195210 | 90 | 86 | 4.0 | 8.0 | 0.00 | 0.00 | 0.00 | 67 | 1011.9 |
| 20260903195123 | 90 | 103 | 4.0 | 8.0 | 0.00 | 0.00 | 0.00 | 67 | 1011.9 |
| 20260903195020 | 90 | 90 | 4.0 | 8.0 | 0.00 | 0.00 | 0.00 | 67 | 1011.9 |
| 20260903194920 | 90 | 92 | 3.0 | 8.0 | 0.00 | 0.00 | 0.00 | 67 | 1011.9 |
| 20260903194820 | 90 | 129 | 3.0 | 8.0 | 0.00 | 0.00 | 0.00 | 67 | 1012.0 |
| 20260903194718 | 91 | 98 | 3.0 | 8.0 | 0.00 | 0.00 | 0.00 | 67 | 1012.1 |
| 20260903194710 | 91 | 116 | 3.0 | 8.0 | 0.00 | 0.00 | 0.00 | 67 | 1012.1 |
| 20260903194617 | 91 | 47 | 3.0 | 8.0 | 0.00 | 0.00 | 0.00 | 67 | 1012.1 |
| 20260903194511 | 91 | 79 | 3.0 | 8.0 | 0.00 | 0.00 | 0.00 | 67 | 1012.2 |
| 20260903194411 | 91 | 60 | 2.0 | 8.0 | 0.00 | 0.00 | 0.00 | 67 | 1012.2 |
| 20260903194311 | 91 | 91 | 2.0 | 7.0 | 0.00 | 0.00 | 0.00 | 67 | 1012.2 |
| 20260903194212 | 91 | 83 | 2.0 | 7.0 | 0.00 | 0.00 | 0.00 | 67 | 1012.4 |
| 20260903194207 | 91 | 79 | 2.0 | 7.0 | 0.00 | 0.00 | 0.00 | 67 | 1012.4 |
| 20260903194111 | 91 | 351 | 3.0 | 7.0 | 0.00 | 0.00 | 0.00 | 67 | 1012.4 |
| 20260903194005 | 91 | 86 | 3.0 | 9.0 | 0.00 | 0.00 | 0.00 | 67 | 1012.4 |
| 20260903193903 | 91 | 19 | 3.0 | 9.0 | 0.00 | 0.00 | 0.00 | 67 | 1012.4 |
| 20260903193802 | 91 | 215 | 3.0 | 9.0 | 0.00 | 0.00 | 0.00 | 67 | 1012.4 |
| 20260903193707 | 91 | 125 | 3.0 | 9.0 | 0.00 | 0.00 | 0.00 | 67 | 1012.5 |
| 20260903193641 | 91 | 19 | 3.0 | 9.0 | 0.00 | 0.00 | 0.00 | 67 | 1012.5 |
| 20260903193541 | 91 | 47 | 3.0 | 9.0 | 0.00 | 0.00 | 0.00 | 67 | 1012.6 |
| 20260903193438 | 91 | 90 | 4.0 | 9.0 | 0.00 | 0.00 | 0.00 | 67 | 1012.6 |
| 20260903193338 | 91 | 133 | 4.0 | 11.0 | 0.00 | 0.00 | 0.00 | 67 | 1012.6 |
| 20260903193238 | 92 | 126 | 4.0 | 11.0 | 0.00 | 0.00 | 0.00 | 66 | 1012.6 |
| 20260903193207 | 92 | 104 | 4.0 | 11.0 | 0.00 | 0.00 | 0.00 | 66 | 1012.6 |
| 20260903193138 | 92 | 97 | 4.0 | 11.0 | 0.00 | 0.00 | 0.00 | 66 | 1012.6 |
| 20260903193039 | 92 | 52 | 4.0 | 11.0 | 0.00 | 0.00 | 0.00 | 66 | 1012.6 |
| 20260903192939 | 92 | 118 | 4.0 | 11.0 | 0.00 | 0.00 | 0.00 | 65 | 1012.3 |
| 20260903192832 | 92 | 106 | 4.0 | 11.0 | 0.00 | 0.00 | 0.00 | 65 | 1012.3 |
| 20260903192732 | 92 | 44 | 4.0 | 11.0 | 0.00 | 0.00 | 0.00 | 65 | 1012.3 |
| 20260903192706 | 92 | 56 | 4.0 | 11.0 | 0.00 | 0.00 | 0.00 | 65 | 1012.3 |
| 20260903192632 | 92 | 43 | 4.0 | 11.0 | 0.00 | 0.00 | 0.00 | 65 | 1012.3 |
| 20260903192529 | 92 | 53 | 5.0 | 11.0 | 0.00 | 0.00 | 0.00 | 65 | 1012.3 |
| 20260903192429 | 93 | 76 | 5.0 | 11.0 | 0.00 | 0.00 | 0.00 | 64 | 1012.1 |
| 20260903192329 | 93 | 89 | 4.0 | 9.0 | 0.00 | 0.00 | 0.00 | 64 | 1012.1 |
| 20260903192228 | 93 | 130 | 4.0 | 8.0 | 0.00 | 0.00 | 0.00 | 64 | 1012.1 |
| 20260903192207 | 93 | 105 | 4.0 | 8.0 | 0.00 | 0.00 | 0.00 | 64 | 1012.1 |
| 20260903192128 | 93 | 60 | 4.0 | 8.0 | 0.00 | 0.00 | 0.00 | 64 | 1012.0 |
| 20260903192028 | 93 | 31 | 4.0 | 8.0 | 0.00 | 0.00 | 0.00 | 64 | 1012.1 |
| 20260903191927 | 92 | 46 | 4.0 | 8.0 | 0.00 | 0.00 | 0.00 | 63 | 1012.1 |
| 20260903191824 | 92 | 120 | 4.0 | 9.0 | 0.00 | 0.00 | 0.00 | 63 | 1012.1 |
| 20260903191723 | 92 | 49 | 4.0 | 9.0 | 0.00 | 0.00 | 0.00 | 63 | 1012.1 |
| 20260903191707 | 92 | 97 | 4.0 | 9.0 | 0.00 | 0.00 | 0.00 | 63 | 1012.1 |
| 20260903191623 | 92 | 15 | 4.0 | 9.0 | 0.00 | 0.00 | 0.00 | 63 | 1012.1 |
| 20260903191520 | 92 | 69 | 4.0 | 9.0 | 0.00 | 0.00 | 0.00 | 64 | 1012.1 |
| 20260903191418 | 92 | 69 | 3.0 | 9.0 | 0.00 | 0.00 | 0.00 | 66 | 1012.1 |
| 20260903191314 | 92 | 25 | 3.0 | 9.0 | 0.00 | 0.00 | 0.00 | 65 | 1012.1 |
| 20260903191214 | 92 | 21 | 3.0 | 9.0 | 0.00 | 0.00 | 0.00 | 66 | 1012.1 |
| 20260903191205 | 92 | 51 | 3.0 | 9.0 | 0.00 | 0.00 | 0.00 | 66 | 1012.1 |
| 20260903191149 | 93 | 92 | 3.0 | 9.0 | 0.00 | 0.00 | 0.00 | 65 | 1012.2 |
| 20260903191114 | 92 | 29 | 3.0 | 9.0 | 0.00 | 0.00 | 0.00 | 67 | 1012.1 |
| 20260903191032 | 92 | 36 | 3.0 | 9.0 | 0.00 | 0.00 | 0.00 | 66 | 1012.1 |
| 20260903190908 | 92 | 64 | 3.0 | 9.0 | 0.00 | 0.00 | 0.00 | 66 | 1012.1 |
| 20260903190807 | 93 | 95 | 3.0 | 8.0 | 0.00 | 0.00 | 0.00 | 65 | 1012.2 |
| 20260903190651 | 93 | 107 | 3.0 | 9.0 | 0.00 | 0.00 | 0.00 | 65 | 1012.2 |
| 20260903190547 | 93 | 139 | 3.0 | 9.0 | 0.00 | 0.00 | 0.00 | 65 | 1012.2 |
| 20260903190447 | 93 | 76 | 4.0 | 9.0 | 0.00 | 0.00 | 0.00 | 65 | 1012.2 |
| 20260903190347 | 93 | 52 | 4.0 | 9.0 | 0.00 | 0.00 | 0.00 | 65 | 1012.2 |
| 20260903190244 | 93 | 59 | 4.0 | 9.0 | 0.00 | 0.00 | 0.00 | 64 | 1012.2 |
| 20260903190202 | 93 | 40 | 4.0 | 9.0 | 0.00 | 0.00 | 0.00 | 64 | 1012.2 |
| 20260903190145 | 93 | 81 | 4.0 | 9.0 | 0.00 | 0.00 | 0.00 | 64 | 1012.2 |
| 20260903190042 | 93 | 57 | 4.0 | 9.0 | 0.00 | 0.00 | 0.00 | 64 | 1012.2 |
| 20260903185942 | 93 | 26 | 4.0 | 9.0 | 0.00 | 0.00 | 0.00 | 64 | 1012.2 |
| 20260903185839 | 93 | 29 | 4.0 | 9.0 | 0.00 | 0.00 | 0.00 | 64 | 1012.2 |
| 20260903185736 | 93 | 2 | 4.0 | 9.0 | 0.00 | 0.00 | 0.00 | 64 | 1012.3 |
| 20260903185701 | 94 | 74 | 4.0 | 9.0 | 0.00 | 0.00 | 0.00 | 63 | 1012.3 |
| 20260903185633 | 94 | 138 | 4.0 | 9.0 | 0.00 | 0.00 | 0.00 | 63 | 1012.3 |
| 20260903185528 | 93 | 132 | 4.0 | 9.0 | 0.00 | 0.00 | 0.00 | 65 | 1012.3 |
| 20260903185427 | 93 | 92 | 4.0 | 11.0 | 0.00 | 0.00 | 0.00 | 65 | 1012.3 |
| 20260903185327 | 93 | 31 | 4.0 | 11.0 | 0.00 | 0.00 | 0.00 | 64 | 1012.3 |
| 20260903185221 | 93 | 49 | 4.0 | 11.0 | 0.00 | 0.00 | 0.00 | 64 | 1012.3 |
| 20260903185158 | 93 | 36 | 4.0 | 11.0 | 0.00 | 0.00 | 0.00 | 64 | 1012.3 |
| 20260903185118 | 93 | 102 | 4.0 | 11.0 | 0.00 | 0.00 | 0.00 | 66 | 1012.4 |
| 20260903185018 | 94 | 20 | 4.0 | 11.0 | 0.00 | 0.00 | 0.00 | 65 | 1012.3 |
| 20260903184909 | 94 | 63 | 4.0 | 11.0 | 0.00 | 0.00 | 0.00 | 65 | 1012.3 |
| 20260903184806 | 94 | 55 | 4.0 | 11.0 | 0.00 | 0.00 | 0.00 | 65 | 1012.3 |
| 20260903184704 | 94 | 124 | 4.0 | 11.0 | 0.00 | 0.00 | 0.00 | 65 | 1012.3 |
| 20260903184659 | 94 | 169 | 4.0 | 11.0 | 0.00 | 0.00 | 0.00 | 65 | 1012.3 |
| 20260903184604 | 94 | 90 | 4.0 | 11.0 | 0.00 | 0.00 | 0.00 | 60 | 1012.2 |
| 20260903184503 | 94 | 96 | 4.0 | 11.0 | 0.00 | 0.00 | 0.00 | 60 | 1012.2 |
| 20260903184418 | 94 | 96 | 4.0 | 10.0 | 0.00 | 0.00 | 0.00 | 60 | 1012.2 |
| 20260903184359 | 94 | 114 | 4.0 | 9.0 | 0.00 | 0.00 | 0.00 | 60 | 1012.2 |
| 20260903184307 | 94 | 95 | 4.0 | 9.0 | 0.00 | 0.00 | 0.00 | 60 | 1012.2 |
| 20260903184301 | 94 | 96 | 4.0 | 10.0 | 0.00 | 0.00 | 0.00 | 60 | 1012.2 |
| 20260903184051 | 94 | 24 | 4.0 | 10.0 | 0.00 | 0.00 | 0.00 | 60 | 1012.2 |
| 20260903183951 | 94 | 82 | 4.0 | 10.0 | 0.00 | 0.00 | 0.00 | 58 | 1012.3 |
| 20260903183829 | 94 | 82 | 4.0 | 10.0 | 0.00 | 0.00 | 0.00 | 58 | 1012.3 |
| 20260903183730 | 94 | 108 | 3.0 | 10.0 | 0.00 | 0.00 | 0.00 | 59 | 1012.5 |
| 20260903183656 | 94 | 74 | 3.0 | 10.0 | 0.00 | 0.00 | 0.00 | 59 | 1012.5 |
| 20260903183627 | 94 | 141 | 3.0 | 10.0 | 0.00 | 0.00 | 0.00 | 59 | 1012.5 |
| 20260903183503 | 94 | 96 | 2.0 | 10.0 | 0.00 | 0.00 | 0.00 | 59 | 1012.5 |
| 20260903183400 | 95 | 100 | 2.0 | 10.0 | 0.00 | 0.00 | 0.00 | 58 | 1012.5 |
| 20260903183247 | 95 | 91 | 2.0 | 10.0 | 0.00 | 0.00 | 0.00 | 58 | 1012.5 |
| 20260903183153 | 95 | 88 | 2.0 | 10.0 | 0.00 | 0.00 | 0.00 | 56 | 1012.4 |
| 20260903183145 | 95 | 97 | 2.0 | 10.0 | 0.00 | 0.00 | 0.00 | 56 | 1012.4 |
| 20260903183042 | 95 | 80 | 2.0 | 9.0 | 0.00 | 0.00 | 0.00 | 56 | 1012.4 |
| 20260903182930 | 95 | 66 | 2.0 | 6.0 | 0.00 | 0.00 | 0.00 | 55 | 1012.5 |
| 20260903182829 | 95 | 26 | 2.0 | 6.0 | 0.00 | 0.00 | 0.00 | 57 | 1012.5 |
| 20260903182729 | 94 | 0 | 2.0 | 6.0 | 0.00 | 0.00 | 0.00 | 56 | 1012.5 |
| 20260903182652 | 94 | 59 | 2.0 | 6.0 | 0.00 | 0.00 | 0.00 | 56 | 1012.5 |
| 20260903182628 | 95 | 1 | 2.0 | 6.0 | 0.00 | 0.00 | 0.00 | 54 | 1012.6 |
| 20260903182527 | 95 | 194 | 2.0 | 6.0 | 0.00 | 0.00 | 0.00 | 54 | 1012.6 |
| 20260903182427 | 95 | 81 | 2.0 | 5.0 | 0.00 | 0.00 | 0.00 | 54 | 1012.6 |
| 20260903182328 | 95 | 83 | 2.0 | 5.0 | 0.00 | 0.00 | 0.00 | 54 | 1012.6 |
| 20260903182227 | 95 | 52 | 3.0 | 5.0 | 0.00 | 0.00 | 0.00 | 54 | 1012.6 |
| 20260903182150 | 95 | 108 | 2.0 | 5.0 | 0.00 | 0.00 | 0.00 | 54 | 1012.6 |
| 20260903182125 | 95 | 67 | 2.0 | 5.0 | 0.00 | 0.00 | 0.00 | 54 | 1012.6 |
| 20260903182025 | 94 | 55 | 2.0 | 7.0 | 0.00 | 0.00 | 0.00 | 56 | 1012.6 |
| 20260903181922 | 94 | 83 | 2.0 | 7.0 | 0.00 | 0.00 | 0.00 | 56 | 1012.6 |
| 20260903181818 | 94 | 58 | 3.0 | 7.0 | 0.00 | 0.00 | 0.00 | 56 | 1012.6 |
| 20260903181720 | 94 | 67 | 2.0 | 7.0 | 0.00 | 0.00 | 0.00 | 56 | 1012.6 |
| 20260903181648 | 94 | 58 | 2.0 | 7.0 | 0.00 | 0.00 | 0.00 | 56 | 1012.6 |
| 20260903181606 | 94 | 6 | 2.0 | 7.0 | 0.00 | 0.00 | 0.00 | 54 | 1012.6 |
| 20260903181457 | 94 | 102 | 2.0 | 7.0 | 0.00 | 0.00 | 0.00 | 54 | 1012.6 |
| 20260903181354 | 94 | 208 | 2.0 | 7.0 | 0.00 | 0.00 | 0.00 | 54 | 1012.6 |
| 20260903181249 | 94 | 70 | 2.0 | 7.0 | 0.00 | 0.00 | 0.00 | 55 | 1012.7 |
| 20260903181150 | 94 | 63 | 2.0 | 7.0 | 0.00 | 0.00 | 0.00 | 55 | 1012.7 |
| 20260903181146 | 94 | 60 | 2.0 | 7.0 | 0.00 | 0.00 | 0.00 | 55 | 1012.7 |
| 20260903181046 | 94 | 79 | 3.0 | 7.0 | 0.00 | 0.00 | 0.00 | 56 | 1012.7 |
| 20260903180945 | 94 | 72 | 3.0 | 7.0 | 0.00 | 0.00 | 0.00 | 55 | 1012.7 |
| 20260903180845 | 94 | 110 | 2.0 | 6.0 | 0.00 | 0.00 | 0.00 | 55 | 1012.7 |
| 20260903180745 | 94 | 352 | 2.0 | 6.0 | 0.00 | 0.00 | 0.00 | 55 | 1012.7 |
| 20260903180650 | 94 | 54 | 3.0 | 6.0 | 0.00 | 0.00 | 0.00 | 54 | 1012.8 |
| 20260903180646 | 94 | 82 | 3.0 | 6.0 | 0.00 | 0.00 | 0.00 | 54 | 1012.8 |
| 20260903180546 | 94 | 92 | 3.0 | 6.0 | 0.00 | 0.00 | 0.00 | 56 | 1012.8 |
| 20260903180445 | 94 | 58 | 2.0 | 6.0 | 0.00 | 0.00 | 0.00 | 56 | 1012.8 |
| 20260903180340 | 94 | 61 | 2.0 | 6.0 | 0.00 | 0.00 | 0.00 | 56 | 1012.8 |
| 20260903180239 | 94 | 97 | 2.0 | 6.0 | 0.00 | 0.00 | 0.00 | 56 | 1012.8 |
| 20260903180148 | 94 | 96 | 2.0 | 6.0 | 0.00 | 0.00 | 0.00 | 57 | 1012.9 |
| 20260903180139 | 94 | 44 | 2.0 | 6.0 | 0.00 | 0.00 | 0.00 | 57 | 1012.9 |
| 20260903180037 | 94 | 42 | 1.0 | 6.0 | 0.00 | 0.00 | 0.00 | 57 | 1012.9 |
| 20260903175937 | 94 | 34 | 1.0 | 6.0 | 0.00 | 0.00 | 0.00 | 60 | 1012.9 |
| 20260903175837 | 94 | 33 | 1.0 | 4.0 | 0.00 | 0.00 | 0.00 | 60 | 1012.9 |
| 20260903175733 | 94 | 92 | 1.0 | 4.0 | 0.00 | 0.00 | 0.00 | 60 | 1012.9 |
| 20260903175648 | 94 | 43 | 1.0 | 6.0 | 0.00 | 0.00 | 0.00 | 62 | 1013.0 |
| 20260903175634 | 94 | 59 | 2.0 | 6.0 | 0.00 | 0.00 | 0.00 | 62 | 1013.0 |
| 20260903175532 | 94 | 295 | 2.0 | 6.0 | 0.00 | 0.00 | 0.00 | 61 | 1013.0 |
| 20260903175430 | 93 | 54 | 2.0 | 6.0 | 0.00 | 0.00 | 0.00 | 61 | 1013.0 |
| 20260903175331 | 93 | 29 | 2.0 | 6.0 | 0.00 | 0.00 | 0.00 | 62 | 1013.0 |
| 20260903175230 | 93 | 9 | 2.0 | 6.0 | 0.00 | 0.00 | 0.00 | 62 | 1013.0 |
| 20260903175148 | 93 | 118 | 2.0 | 6.0 | 0.00 | 0.00 | 0.00 | 62 | 1013.0 |
| 20260903175128 | 93 | 0 | 2.0 | 6.0 | 0.00 | 0.00 | 0.00 | 62 | 1013.0 |
| 20260903175022 | 93 | 271 | 2.0 | 6.0 | 0.00 | 0.00 | 0.00 | 62 | 1013.0 |
| 20260903174916 | 93 | 19 | 2.0 | 6.0 | 0.00 | 0.00 | 0.00 | 62 | 1013.0 |
| 20260903174813 | 93 | 27 | 3.0 | 6.0 | 0.00 | 0.00 | 0.00 | 62 | 1013.0 |
| 20260903174706 | 92 | 70 | 2.0 | 6.0 | 0.00 | 0.00 | 0.00 | 64 | 1013.1 |
| 20260903174641 | 92 | 70 | 2.0 | 6.0 | 0.00 | 0.00 | 0.00 | 64 | 1013.1 |
| 20260903174601 | 92 | 47 | 2.0 | 6.0 | 0.00 | 0.00 | 0.00 | 64 | 1013.1 |
| 20260903174501 | 92 | 77 | 2.0 | 6.0 | 0.00 | 0.00 | 0.00 | 65 | 1013.1 |
| 20260903174359 | 92 | 81 | 2.0 | 6.0 | 0.00 | 0.00 | 0.00 | 66 | 1013.1 |
| 20260903174300 | 92 | 101 | 3.0 | 6.0 | 0.00 | 0.00 | 0.00 | 66 | 1013.1 |
| 20260903174158 | 92 | 74 | 3.0 | 6.0 | 0.00 | 0.00 | 0.00 | 67 | 1013.2 |
| 20260903174138 | 92 | 96 | 3.0 | 6.0 | 0.00 | 0.00 | 0.00 | 67 | 1013.2 |
| 20260903174055 | 92 | 97 | 3.0 | 6.0 | 0.00 | 0.00 | 0.00 | 67 | 1013.2 |
| 20260903173952 | 92 | 101 | 3.0 | 6.0 | 0.00 | 0.00 | 0.00 | 67 | 1013.2 |
| 20260903173849 | 92 | 88 | 3.0 | 6.0 | 0.00 | 0.00 | 0.00 | 67 | 1013.2 |
| 20260903173746 | 92 | 93 | 3.0 | 6.0 | 0.00 | 0.00 | 0.00 | 67 | 1013.2 |
| 20260903173647 | 92 | 123 | 3.0 | 6.0 | 0.00 | 0.00 | 0.00 | 68 | 1013.2 |
| 20260903173639 | 92 | 79 | 3.0 | 6.0 | 0.00 | 0.00 | 0.00 | 68 | 1013.2 |
| 20260903173547 | 92 | 74 | 3.0 | 6.0 | 0.00 | 0.00 | 0.00 | 69 | 1013.3 |
| 20260903173446 | 92 | 123 | 3.0 | 6.0 | 0.00 | 0.00 | 0.00 | 69 | 1013.3 |
| 20260903173347 | 92 | 51 | 3.0 | 6.0 | 0.00 | 0.00 | 0.00 | 67 | 1013.3 |
| 20260903173246 | 92 | 61 | 3.0 | 6.0 | 0.00 | 0.00 | 0.00 | 66 | 1013.3 |
| 20260903173147 | 91 | 59 | 2.0 | 5.0 | 0.00 | 0.00 | 0.00 | 69 | 1013.3 |
| 20260903173139 | 91 | 74 | 2.0 | 5.0 | 0.00 | 0.00 | 0.00 | 69 | 1013.3 |
| 20260903173047 | 91 | 54 | 2.0 | 6.0 | 0.00 | 0.00 | 0.00 | 69 | 1013.3 |
| 20260903172945 | 91 | 50 | 2.0 | 6.0 | 0.00 | 0.00 | 0.00 | 69 | 1013.3 |
| 20260903172846 | 91 | 153 | 2.0 | 6.0 | 0.00 | 0.00 | 0.00 | 69 | 1013.3 |
| 20260903172743 | 91 | 70 | 2.0 | 6.0 | 0.00 | 0.00 | 0.00 | 69 | 1013.3 |
| 20260903172640 | 91 | 54 | 2.0 | 6.0 | 0.00 | 0.00 | 0.00 | 70 | 1013.3 |
| 20260903172537 | 91 | 8 | 2.0 | 6.0 | 0.00 | 0.00 | 0.00 | 71 | 1013.3 |
| 20260903172438 | 91 | 48 | 2.0 | 6.0 | 0.00 | 0.00 | 0.00 | 71 | 1013.3 |
| 20260903172335 | 91 | 35 | 2.0 | 6.0 | 0.00 | 0.00 | 0.00 | 71 | 1013.3 |
| 20260903172234 | 91 | 188 | 2.0 | 6.0 | 0.00 | 0.00 | 0.00 | 71 | 1013.4 |
| 20260903172139 | 91 | 93 | 2.0 | 6.0 | 0.00 | 0.00 | 0.00 | 71 | 1013.4 |
| 20260903172134 | 91 | 101 | 2.0 | 6.0 | 0.00 | 0.00 | 0.00 | 71 | 1013.4 |
| 20260903172034 | 91 | 56 | 2.0 | 6.0 | 0.00 | 0.00 | 0.00 | 71 | 1013.4 |
| 20260903171934 | 91 | 84 | 2.0 | 6.0 | 0.00 | 0.00 | 0.00 | 71 | 1013.4 |
| 20260903171834 | 91 | 97 | 3.0 | 6.0 | 0.00 | 0.00 | 0.00 | 71 | 1013.4 |
| 20260903171734 | 91 | 86 | 2.0 | 6.0 | 0.00 | 0.00 | 0.00 | 71 | 1013.4 |
| 20260903171639 | 91 | 94 | 2.0 | 5.0 | 0.00 | 0.00 | 0.00 | 71 | 1013.4 |
| 20260903171634 | 91 | 112 | 2.0 | 5.0 | 0.00 | 0.00 | 0.00 | 71 | 1013.4 |
| 20260903171534 | 91 | 56 | 2.0 | 5.0 | 0.00 | 0.00 | 0.00 | 72 | 1013.4 |
| 20260903171434 | 91 | 47 | 2.0 | 5.0 | 0.00 | 0.00 | 0.00 | 72 | 1013.4 |
| 20260903171334 | 91 | 19 | 2.0 | 5.0 | 0.00 | 0.00 | 0.00 | 71 | 1013.4 |
| 20260903171230 | 91 | 99 | 2.0 | 5.0 | 0.00 | 0.00 | 0.00 | 71 | 1013.5 |
| 20260903171136 | 91 | 256 | 2.0 | 5.0 | 0.00 | 0.00 | 0.00 | 71 | 1013.5 |
| 20260903171129 | 91 | 120 | 2.0 | 5.0 | 0.00 | 0.00 | 0.00 | 71 | 1013.5 |
| 20260903171028 | 91 | 87 | 2.0 | 5.0 | 0.00 | 0.00 | 0.00 | 71 | 1013.5 |
| 20260903170924 | 91 | 60 | 2.0 | 5.0 | 0.00 | 0.00 | 0.00 | 71 | 1013.5 |
| 20260903170822 | 91 | 87 | 2.0 | 5.0 | 0.00 | 0.00 | 0.00 | 71 | 1013.6 |
| 20260903170719 | 91 | 62 | 2.0 | 6.0 | 0.00 | 0.00 | 0.00 | 71 | 1013.6 |
| 20260903170637 | 91 | 343 | 2.0 | 6.0 | 0.00 | 0.00 | 0.00 | 71 | 1013.6 |
| 20260903170620 | 91 | 87 | 2.0 | 6.0 | 0.00 | 0.00 | 0.00 | 71 | 1013.6 |
| 20260903170519 | 91 | 28 | 2.0 | 6.0 | 0.00 | 0.00 | 0.00 | 71 | 1013.6 |
| 20260903170420 | 91 | 182 | 2.0 | 6.0 | 0.00 | 0.00 | 0.00 | 71 | 1013.6 |
| 20260903170319 | 91 | 144 | 2.0 | 6.0 | 0.00 | 0.00 | 0.00 | 70 | 1013.6 |
| 20260903170211 | 90 | 75 | 3.0 | 6.0 | 0.00 | 0.00 | 0.00 | 72 | 1013.6 |
| 20260903170130 | 90 | 28 | 3.0 | 6.0 | 0.00 | 0.00 | 0.00 | 72 | 1013.6 |
| 20260903170111 | 90 | 31 | 3.0 | 6.0 | 0.00 | 0.00 | 0.00 | 72 | 1013.6 |
| 20260903170011 | 90 | 23 | 3.0 | 6.0 | 0.00 | 0.00 | 0.00 | 72 | 1013.6 |
| 20260903165907 | 90 | 28 | 3.0 | 6.0 | 0.00 | 0.00 | 0.00 | 72 | 1013.6 |
| 20260903165804 | 90 | 69 | 3.0 | 6.0 | 0.00 | 0.00 | 0.00 | 72 | 1013.6 |
| 20260903165659 | 90 | 337 | 3.0 | 6.0 | 0.00 | 0.00 | 0.00 | 73 | 1013.6 |
| 20260903165631 | 90 | 169 | 3.0 | 6.0 | 0.00 | 0.00 | 0.00 | 73 | 1013.6 |
| 20260903165558 | 90 | 86 | 3.0 | 6.0 | 0.00 | 0.00 | 0.00 | 73 | 1013.6 |
| 20260903165456 | 90 | 51 | 3.0 | 6.0 | 0.00 | 0.00 | 0.00 | 73 | 1013.6 |
| 20260903165353 | 90 | 85 | 2.0 | 6.0 | 0.00 | 0.00 | 0.00 | 73 | 1013.6 |
| 20260903165253 | 90 | 88 | 2.0 | 6.0 | 0.00 | 0.00 | 0.00 | 73 | 1013.6 |
| 20260903165151 | 90 | 92 | 2.0 | 6.0 | 0.00 | 0.00 | 0.00 | 73 | 1013.6 |
| 20260903165127 | 89 | 43 | 2.0 | 6.0 | 0.00 | 0.00 | 0.00 | 73 | 1013.6 |
| 20260903165051 | 89 | 60 | 2.0 | 6.0 | 0.00 | 0.00 | 0.00 | 73 | 1013.6 |
| 20260903164947 | 89 | 80 | 2.0 | 6.0 | 0.00 | 0.00 | 0.00 | 73 | 1013.6 |
| 20260903164844 | 89 | 61 | 2.0 | 6.0 | 0.00 | 0.00 | 0.00 | 75 | 1013.6 |
| 20260903164741 | 89 | 48 | 2.0 | 4.0 | 0.00 | 0.00 | 0.00 | 75 | 1013.6 |
| 20260903164641 | 89 | 71 | 2.0 | 4.0 | 0.00 | 0.00 | 0.00 | 75 | 1013.6 |
| 20260903164626 | 89 | 99 | 2.0 | 4.0 | 0.00 | 0.00 | 0.00 | 76 | 1013.6 |
| 20260903164534 | 89 | 355 | 2.0 | 4.0 | 0.00 | 0.00 | 0.00 | 76 | 1013.6 |
| 20260903164430 | 88 | 91 | 2.0 | 4.0 | 0.00 | 0.00 | 0.00 | 76 | 1013.6 |
| 20260903164329 | 88 | 53 | 2.0 | 4.0 | 0.00 | 0.00 | 0.00 | 76 | 1013.6 |
| 20260903164228 | 89 | 160 | 2.0 | 4.0 | 0.00 | 0.00 | 0.00 | 76 | 1013.6 |
| 20260903164126 | 89 | 84 | 2.0 | 4.0 | 0.00 | 0.00 | 0.00 | 76 | 1013.6 |
| 20260903164023 | 89 | 82 | 1.0 | 4.0 | 0.00 | 0.00 | 0.00 | 75 | 1013.6 |
| 20260903163922 | 89 | 53 | 1.0 | 4.0 | 0.00 | 0.00 | 0.00 | 75 | 1013.6 |
| 20260903163823 | 89 | 72 | 1.0 | 4.0 | 0.00 | 0.00 | 0.00 | 76 | 1013.6 |
| 20260903163720 | 88 | 102 | 1.0 | 4.0 | 0.00 | 0.00 | 0.00 | 76 | 1013.6 |
| 20260903163623 | 88 | 26 | 1.0 | 4.0 | 0.00 | 0.00 | 0.00 | 76 | 1013.6 |
| 20260903163614 | 88 | 19 | 1.0 | 4.0 | 0.00 | 0.00 | 0.00 | 76 | 1013.6 |
| 20260903163514 | 88 | 58 | 2.0 | 4.0 | 0.00 | 0.00 | 0.00 | 76 | 1013.6 |
| 20260903163411 | 88 | 18 | 2.0 | 4.0 | 0.00 | 0.00 | 0.00 | 76 | 1013.6 |
| 20260903163308 | 88 | 169 | 2.0 | 4.0 | 0.00 | 0.00 | 0.00 | 77 | 1013.6 |
| 20260903163208 | 88 | 60 | 2.0 | 4.0 | 0.00 | 0.00 | 0.00 | 77 | 1013.6 |
| 20260903163119 | 88 | 61 | 2.0 | 4.0 | 0.00 | 0.00 | 0.00 | 77 | 1013.6 |
| 20260903163108 | 88 | 0 | 2.0 | 4.0 | 0.00 | 0.00 | 0.00 | 77 | 1013.6 |
| 20260903163005 | 88 | 93 | 2.0 | 4.0 | 0.00 | 0.00 | 0.00 | 77 | 1013.6 |
| 20260903162907 | 88 | 43 | 2.0 | 4.0 | 0.00 | 0.00 | 0.00 | 76 | 1013.6 |
| 20260903162802 | 88 | 79 | 1.0 | 4.0 | 0.00 | 0.00 | 0.00 | 76 | 1013.6 |
| 20260903162702 | 88 | 115 | 1.0 | 4.0 | 0.00 | 0.00 | 0.00 | 76 | 1013.6 |
| 20260903162618 | 88 | 143 | 1.0 | 4.0 | 0.00 | 0.00 | 0.00 | 76 | 1013.6 |
| 20260903162603 | 88 | 141 | 1.0 | 4.0 | 0.00 | 0.00 | 0.00 | 76 | 1013.6 |
| 20260903162459 | 88 | 65 | 1.0 | 4.0 | 0.00 | 0.00 | 0.00 | 77 | 1013.6 |
| 20260903162359 | 88 | 21 | 1.0 | 4.0 | 0.00 | 0.00 | 0.00 | 77 | 1013.6 |
| 20260903162259 | 88 | 131 | 1.0 | 4.0 | 0.00 | 0.00 | 0.00 | 77 | 1013.6 |
| 20260903162147 | 88 | 76 | 1.0 | 2.0 | 0.00 | 0.00 | 0.00 | 78 | 1013.6 |
| 20260903162118 | 88 | 359 | 1.0 | 2.0 | 0.00 | 0.00 | 0.00 | 78 | 1013.6 |
| 20260903162047 | 88 | 62 | 1.0 | 2.0 | 0.00 | 0.00 | 0.00 | 78 | 1013.6 |
| 20260903161947 | 88 | 40 | 1.0 | 2.0 | 0.00 | 0.00 | 0.00 | 77 | 1013.5 |
| 20260903161844 | 88 | 21 | 1.0 | 3.0 | 0.00 | 0.00 | 0.00 | 77 | 1013.5 |
| 20260903161744 | 88 | 22 | 1.0 | 4.0 | 0.00 | 0.00 | 0.00 | 77 | 1013.5 |
| 20260903161644 | 88 | 88 | 1.0 | 4.0 | 0.00 | 0.00 | 0.00 | 77 | 1013.5 |
| 20260903161618 | 87 | 0 | 1.0 | 4.0 | 0.00 | 0.00 | 0.00 | 79 | 1013.6 |
| 20260903161544 | 87 | 144 | 1.0 | 4.0 | 0.00 | 0.00 | 0.00 | 79 | 1013.6 |
| 20260903161444 | 87 | 107 | 1.0 | 4.0 | 0.00 | 0.00 | 0.00 | 79 | 1013.6 |
| 20260903161339 | 87 | 44 | 1.0 | 4.0 | 0.00 | 0.00 | 0.00 | 79 | 1013.6 |
| 20260903161238 | 87 | 87 | 2.0 | 4.0 | 0.00 | 0.00 | 0.00 | 79 | 1013.6 |
| 20260903161138 | 87 | 112 | 2.0 | 4.0 | 0.00 | 0.00 | 0.00 | 79 | 1013.5 |
| 20260903161116 | 87 | 329 | 2.0 | 4.0 | 0.00 | 0.00 | 0.00 | 79 | 1013.5 |
| 20260903161035 | 87 | 34 | 2.0 | 5.0 | 0.00 | 0.00 | 0.00 | 79 | 1013.5 |
| 20260903160936 | 87 | 68 | 2.0 | 5.0 | 0.00 | 0.00 | 0.00 | 79 | 1013.5 |
| 20260903160836 | 87 | 69 | 2.0 | 5.0 | 0.00 | 0.00 | 0.00 | 80 | 1013.5 |
| 20260903160736 | 87 | 65 | 2.0 | 5.0 | 0.00 | 0.00 | 0.00 | 80 | 1013.5 |
| 20260903160632 | 87 | 31 | 2.0 | 5.0 | 0.00 | 0.00 | 0.00 | 80 | 1013.5 |
| 20260903160616 | 87 | 0 | 2.0 | 5.0 | 0.00 | 0.00 | 0.00 | 80 | 1013.5 |
| 20260903160532 | 87 | 353 | 2.0 | 5.0 | 0.00 | 0.00 | 0.00 | 80 | 1013.5 |
| 20260903160429 | 87 | 47 | 2.0 | 5.0 | 0.00 | 0.00 | 0.00 | 80 | 1013.5 |
| 20260903160329 | 87 | 67 | 1.0 | 5.0 | 0.00 | 0.00 | 0.00 | 80 | 1013.5 |
| 20260903160227 | 87 | 79 | 1.0 | 5.0 | 0.00 | 0.00 | 0.00 | 80 | 1013.6 |
| 20260903160126 | 87 | 94 | 1.0 | 5.0 | 0.00 | 0.00 | 0.00 | 80 | 1013.6 |
| 20260903160116 | 87 | 70 | 1.0 | 5.0 | 0.00 | 0.00 | 0.00 | 80 | 1013.6 |
| 20260903160026 | 87 | 109 | 1.0 | 4.0 | 0.00 | 0.00 | 0.00 | 80 | 1013.6 |
| 20260903155926 | 87 | 74 | 1.0 | 2.0 | 0.00 | 0.00 | 0.00 | 80 | 1013.6 |
| 20260903155837 | 87 | 216 | 1.0 | 3.0 | 0.00 | 0.00 | 0.00 | 81 | 1013.6 |
| 20260903155826 | 87 | 118 | 1.0 | 2.0 | 0.00 | 0.00 | 0.00 | 80 | 1013.6 |
| 20260903155727 | 87 | 63 | 1.0 | 2.0 | 0.00 | 0.00 | 0.00 | 81 | 1013.6 |
| 20260903155722 | 87 | 44 | 1.0 | 3.0 | 0.00 | 0.00 | 0.00 | 81 | 1013.6 |
| 20260903155521 | 87 | 160 | 1.0 | 3.0 | 0.00 | 0.00 | 0.00 | 81 | 1013.6 |
| 20260903155418 | 87 | 350 | 1.0 | 3.0 | 0.00 | 0.00 | 0.00 | 81 | 1013.6 |
| 20260903155337 | 86 | 69 | 1.0 | 3.0 | 0.00 | 0.00 | 0.00 | 82 | 1013.5 |
| 20260903155308 | 87 | 219 | 1.0 | 3.0 | 0.00 | 0.00 | 0.00 | 81 | 1013.6 |
| 20260903155222 | 87 | 248 | 1.0 | 3.0 | 0.00 | 0.00 | 0.00 | 81 | 1013.6 |
| 20260903155059 | 86 | 76 | 1.0 | 3.0 | 0.00 | 0.00 | 0.00 | 82 | 1013.5 |
| 20260903154950 | 86 | 58 | 1.0 | 4.0 | 0.00 | 0.00 | 0.00 | 82 | 1013.5 |
| 20260903154833 | 86 | 79 | 1.0 | 4.0 | 0.00 | 0.00 | 0.00 | 82 | 1013.5 |
| 20260903154732 | 87 | 49 | 1.0 | 4.0 | 0.00 | 0.00 | 0.00 | 82 | 1013.5 |
| 20260903154631 | 86 | 84 | 1.0 | 4.0 | 0.00 | 0.00 | 0.00 | 82 | 1013.5 |
| 20260903154614 | 86 | 48 | 1.0 | 4.0 | 0.00 | 0.00 | 0.00 | 82 | 1013.5 |
| 20260903154531 | 86 | 62 | 1.0 | 4.0 | 0.00 | 0.00 | 0.00 | 82 | 1013.5 |
| 20260903154431 | 86 | 110 | 1.0 | 5.0 | 0.00 | 0.00 | 0.00 | 82 | 1013.5 |
| 20260903154330 | 86 | 358 | 2.0 | 5.0 | 0.00 | 0.00 | 0.00 | 82 | 1013.5 |
| 20260903154227 | 86 | 29 | 2.0 | 5.0 | 0.00 | 0.00 | 0.00 | 82 | 1013.5 |
| 20260903154127 | 86 | 186 | 2.0 | 5.0 | 0.00 | 0.00 | 0.00 | 82 | 1013.5 |
| 20260903154113 | 86 | 86 | 2.0 | 5.0 | 0.00 | 0.00 | 0.00 | 82 | 1013.5 |
| 20260903154021 | 86 | 0 | 2.0 | 5.0 | 0.00 | 0.00 | 0.00 | 82 | 1013.4 |
| 20260903153918 | 86 | 67 | 2.0 | 5.0 | 0.00 | 0.00 | 0.00 | 82 | 1013.4 |
| 20260903153823 | 86 | 81 | 2.0 | 5.0 | 0.00 | 0.00 | 0.00 | 82 | 1013.4 |
| 20260903153815 | 86 | 46 | 2.0 | 5.0 | 0.00 | 0.00 | 0.00 | 82 | 1013.4 |
| 20260903153712 | 86 | 56 | 2.0 | 5.0 | 0.00 | 0.00 | 0.00 | 82 | 1013.4 |
| 20260903153557 | 86 | 77 | 2.0 | 5.0 | 0.00 | 0.00 | 0.00 | 82 | 1013.4 |
| 20260903153457 | 86 | 69 | 2.0 | 5.0 | 0.00 | 0.00 | 0.00 | 82 | 1013.4 |
| 20260903153348 | 86 | 83 | 2.0 | 4.0 | 0.00 | 0.00 | 0.00 | 82 | 1013.5 |
| 20260903153248 | 86 | 80 | 1.0 | 4.0 | 0.00 | 0.00 | 0.00 | 82 | 1013.5 |
| 20260903153148 | 86 | 77 | 2.0 | 4.0 | 0.00 | 0.00 | 0.00 | 82 | 1013.5 |
| 20260903153102 | 86 | 49 | 2.0 | 4.0 | 0.00 | 0.00 | 0.00 | 82 | 1013.5 |
| 20260903153047 | 86 | 337 | 2.0 | 4.0 | 0.00 | 0.00 | 0.00 | 82 | 1013.5 |
| 20260903152931 | 86 | 35 | 1.0 | 3.0 | 0.00 | 0.00 | 0.00 | 83 | 1013.5 |
| 20260903152817 | 86 | 81 | 1.0 | 2.0 | 0.00 | 0.00 | 0.00 | 82 | 1013.5 |
| 20260903152718 | 86 | 21 | 1.0 | 2.0 | 0.00 | 0.00 | 0.00 | 83 | 1013.5 |
| 20260903152602 | 86 | 92 | 1.0 | 2.0 | 0.00 | 0.00 | 0.00 | 83 | 1013.5 |
| 20260903152533 | 86 | 62 | 1.0 | 2.0 | 0.00 | 0.00 | 0.00 | 83 | 1013.5 |
| 20260903152433 | 86 | 46 | 1.0 | 2.0 | 0.00 | 0.00 | 0.00 | 83 | 1013.5 |
| 20260903152333 | 86 | 56 | 1.0 | 2.0 | 0.00 | 0.00 | 0.00 | 83 | 1013.5 |
| 20260903152231 | 86 | 66 | 1.0 | 2.0 | 0.00 | 0.00 | 0.00 | 83 | 1013.5 |
| 20260903152102 | 86 | 62 | 1.0 | 2.0 | 0.00 | 0.00 | 0.00 | 83 | 1013.5 |
| 20260903152017 | 86 | 0 | 1.0 | 2.0 | 0.00 | 0.00 | 0.00 | 83 | 1013.5 |
| 20260903151908 | 86 | 0 | 1.0 | 2.0 | 0.00 | 0.00 | 0.00 | 83 | 1013.4 |
| 20260903151748 | 86 | 92 | 1.0 | 2.0 | 0.00 | 0.00 | 0.00 | 83 | 1013.4 |
| 20260903151633 | 86 | 81 | 1.0 | 2.0 | 0.00 | 0.00 | 0.00 | 83 | 1013.4 |
| 20260903151534 | 86 | 49 | 1.0 | 2.0 | 0.00 | 0.00 | 0.00 | 83 | 1013.4 |
| 20260903151433 | 86 | 100 | 1.0 | 2.0 | 0.00 | 0.00 | 0.00 | 83 | 1013.4 |
| 20260903151333 | 86 | 119 | 1.0 | 2.0 | 0.00 | 0.00 | 0.00 | 84 | 1013.4 |
| 20260903151241 | 86 | 107 | 1.0 | 2.0 | 0.00 | 0.00 | 0.00 | 83 | 1013.4 |
| 20260903151233 | 86 | 356 | 1.0 | 2.0 | 0.00 | 0.00 | 0.00 | 84 | 1013.4 |
| 20260903151133 | 86 | 57 | 1.0 | 2.0 | 0.00 | 0.00 | 0.00 | 84 | 1013.4 |
| 20260903151123 | 86 | 65 | 1.0 | 2.0 | 0.00 | 0.00 | 0.00 | 84 | 1013.4 |
| 20260903150932 | 86 | 185 | 1.0 | 2.0 | 0.00 | 0.00 | 0.00 | 83 | 1013.4 |
| 20260903150832 | 86 | 96 | 1.0 | 2.0 | 0.00 | 0.00 | 0.00 | 83 | 1013.4 |
| 20260903150736 | 86 | 87 | 0.0 | 1.0 | 0.00 | 0.00 | 0.00 | 84 | 1013.4 |
| 20260903150718 | 86 | 201 | 1.0 | 2.0 | 0.00 | 0.00 | 0.00 | 83 | 1013.4 |
| 20260903150629 | 86 | 67 | 0.0 | 2.0 | 0.00 | 0.00 | 0.00 | 84 | 1013.4 |
| 20260903150623 | 86 | 87 | 0.0 | 1.0 | 0.00 | 0.00 | 0.00 | 84 | 1013.4 |
| 20260903150418 | 86 | 71 | 0.0 | 1.0 | 0.00 | 0.00 | 0.00 | 83 | 1013.4 |
| 20260903150303 | 86 | 161 | 0.0 | 1.0 | 0.00 | 0.00 | 0.00 | 84 | 1013.4 |
| 20260903150203 | 85 | 0 | 0.0 | 1.0 | 0.00 | 0.00 | 0.00 | 84 | 1013.4 |
| 20260903150016 | 85 | 0 | 0.0 | 2.0 | 0.00 | 0.00 | 0.00 | 84 | 1013.4 |
| 20260903145948 | 85 | 84 | 0.0 | 2.0 | 0.00 | 0.00 | 0.00 | 84 | 1013.4 |
| 20260903145853 | 85 | 93 | 0.0 | 2.0 | 0.00 | 0.00 | 0.00 | 84 | 1013.4 |
| 20260903145733 | 85 | 276 | 1.0 | 2.0 | 0.00 | 0.00 | 0.00 | 85 | 1013.5 |
| 20260903145618 | 85 | 89 | 1.0 | 2.0 | 0.00 | 0.00 | 0.00 | 85 | 1013.5 |
| 20260903145517 | 85 | 266 | 0.0 | 2.0 | 0.00 | 0.00 | 0.00 | 85 | 1013.5 |
| 20260903145454 | 85 | 313 | 0.0 | 2.0 | 0.00 | 0.00 | 0.00 | 85 | 1013.5 |
| 20260903145248 | 85 | 0 | 0.0 | 2.0 | 0.00 | 0.00 | 0.00 | 85 | 1013.5 |
| 20260903145118 | 85 | 62 | 0.0 | 1.0 | 0.00 | 0.00 | 0.00 | 86 | 1013.5 |
| 20260903145018 | 85 | 73 | 0.0 | 1.0 | 0.00 | 0.00 | 0.00 | 86 | 1013.5 |
| 20260903144833 | 85 | 154 | 0.0 | 1.0 | 0.00 | 0.00 | 0.00 | 86 | 1013.5 |
| 20260903144703 | 85 | 159 | 0.0 | 1.0 | 0.00 | 0.00 | 0.00 | 86 | 1013.5 |
| 20260903144642 | 84 | 27 | 0.0 | 1.0 | 0.00 | 0.00 | 0.00 | 86 | 1013.6 |
| 20260903144548 | 84 | 331 | 0.0 | 1.0 | 0.00 | 0.00 | 0.00 | 86 | 1013.6 |
| 20260903144525 | 84 | 42 | 0.0 | 1.0 | 0.00 | 0.00 | 0.00 | 86 | 1013.6 |
| 20260903144333 | 84 | 0 | 0.0 | 1.0 | 0.00 | 0.00 | 0.00 | 86 | 1013.6 |
| 20260903144232 | 84 | 0 | 0.0 | 1.0 | 0.00 | 0.00 | 0.00 | 86 | 1013.6 |
| 20260903144132 | 84 | 342 | 0.0 | 1.0 | 0.00 | 0.00 | 0.00 | 86 | 1013.6 |
| 20260903144031 | 84 | 0 | 0.0 | 1.0 | 0.00 | 0.00 | 0.00 | 86 | 1013.6 |
| 20260903143931 | 84 | 297 | 0.0 | 1.0 | 0.00 | 0.00 | 0.00 | 87 | 1013.6 |
| 20260903143847 | 84 | 297 | 1.0 | 1.0 | 0.00 | 0.00 | 0.00 | 87 | 1013.6 |
| 20260903143818 | 84 | 276 | 1.0 | 1.0 | 0.00 | 0.00 | 0.00 | 87 | 1013.6 |
| 20260903143704 | 84 | 349 | 0.0 | 1.0 | 0.00 | 0.00 | 0.00 | 87 | 1013.6 |
| 20260903143604 | 84 | 73 | 0.0 | 1.0 | 0.00 | 0.00 | 0.00 | 87 | 1013.6 |
| 20260903143504 | 84 | 71 | 0.0 | 1.0 | 0.00 | 0.00 | 0.00 | 87 | 1013.6 |
| 20260903143350 | 83 | 36 | 0.0 | 1.0 | 0.00 | 0.00 | 0.00 | 88 | 1013.7 |
| 20260903143234 | 83 | 200 | 0.0 | 1.0 | 0.00 | 0.00 | 0.00 | 88 | 1013.7 |
| 20260903143133 | 83 | 92 | 0.0 | 1.0 | 0.00 | 0.00 | 0.00 | 88 | 1013.7 |
| 20260903143058 | 83 | 24 | 0.0 | 1.0 | 0.00 | 0.00 | 0.00 | 89 | 1013.7 |
| 20260903143019 | 83 | 0 | 0.0 | 1.0 | 0.00 | 0.00 | 0.00 | 89 | 1013.7 |
| 20260903142938 | 83 | 104 | 0.0 | 1.0 | 0.00 | 0.00 | 0.00 | 89 | 1013.7 |
| 20260903142804 | 83 | 22 | 0.0 | 1.0 | 0.00 | 0.00 | 0.00 | 89 | 1013.7 |
| 20260903142703 | 83 | 0 | 0.0 | 1.0 | 0.00 | 0.00 | 0.00 | 90 | 1013.7 |
| 20260903142549 | 83 | 0 | 0.0 | 1.0 | 0.00 | 0.00 | 0.00 | 90 | 1013.7 |
| 20260903142434 | 83 | 197 | 1.0 | 2.0 | 0.00 | 0.00 | 0.00 | 90 | 1013.7 |
| 20260903142335 | 83 | 248 | 1.0 | 2.0 | 0.00 | 0.00 | 0.00 | 90 | 1013.8 |
| 20260903142233 | 83 | 54 | 1.0 | 2.0 | 0.00 | 0.00 | 0.00 | 91 | 1013.8 |
| 20260903142104 | 83 | 100 | 1.0 | 2.0 | 0.00 | 0.00 | 0.00 | 91 | 1013.8 |
| 20260903141934 | 83 | 69 | 1.0 | 2.0 | 0.00 | 0.00 | 0.00 | 91 | 1013.8 |
| 20260903141833 | 82 | 0 | 1.0 | 2.0 | 0.00 | 0.00 | 0.00 | 91 | 1013.8 |
| 20260903141719 | 82 | 45 | 1.0 | 2.0 | 0.00 | 0.00 | 0.00 | 91 | 1013.8 |
| 20260903141619 | 82 | 0 | 1.0 | 2.0 | 0.00 | 0.00 | 0.00 | 91 | 1013.8 |
| 20260903141504 | 82 | 91 | 1.0 | 2.0 | 0.00 | 0.00 | 0.00 | 92 | 1013.8 |
| 20260903141405 | 82 | 49 | 1.0 | 2.0 | 0.00 | 0.00 | 0.00 | 92 | 1013.8 |
| 20260903141319 | 82 | 62 | 1.0 | 2.0 | 0.00 | 0.00 | 0.00 | 92 | 1013.8 |
| 20260903141304 | 82 | 82 | 1.0 | 2.0 | 0.00 | 0.00 | 0.00 | 92 | 1013.8 |
| 20260903141149 | 82 | 100 | 1.0 | 2.0 | 0.00 | 0.00 | 0.00 | 93 | 1013.8 |
| 20260903141032 | 82 | 69 | 1.0 | 2.0 | 0.00 | 0.00 | 0.00 | 93 | 1013.8 |
| 20260903140918 | 82 | 59 | 1.0 | 2.0 | 0.00 | 0.00 | 0.00 | 93 | 1013.8 |
| 20260903140803 | 82 | 91 | 1.0 | 2.0 | 0.00 | 0.00 | 0.00 | 94 | 1013.8 |
| 20260903140635 | 81 | 45 | 1.0 | 2.0 | 0.00 | 0.00 | 0.00 | 94 | 1013.8 |
| 20260903140533 | 81 | 44 | 1.0 | 2.0 | 0.00 | 0.00 | 0.00 | 94 | 1013.8 |
| 20260903140419 | 81 | 14 | 1.0 | 2.0 | 0.00 | 0.00 | 0.00 | 95 | 1013.8 |
| 20260903140320 | 81 | 112 | 1.0 | 2.0 | 0.00 | 0.00 | 0.00 | 95 | 1013.8 |
| 20260903140219 | 81 | 54 | 1.0 | 2.0 | 0.00 | 0.00 | 0.00 | 96 | 1013.9 |
| 20260903140049 | 81 | 87 | 1.0 | 2.0 | 0.00 | 0.00 | 0.00 | 96 | 1013.9 |
| 20260903135949 | 81 | 82 | 1.0 | 2.0 | 0.00 | 0.00 | 0.00 | 96 | 1013.9 |
| 20260903135848 | 81 | 66 | 1.0 | 2.0 | 0.00 | 0.00 | 0.00 | 96 | 1013.8 |
| 20260903135818 | 81 | 66 | 1.0 | 2.0 | 0.00 | 0.00 | 0.00 | 96 | 1013.8 |
| 20260903135749 | 81 | 332 | 1.0 | 2.0 | 0.00 | 0.00 | 0.00 | 96 | 1013.8 |
| 20260903135649 | 81 | 40 | 1.0 | 2.0 | 0.00 | 0.00 | 0.00 | 96 | 1013.8 |
| 20260903135549 | 81 | 0 | 1.0 | 2.0 | 0.00 | 0.00 | 0.00 | 97 | 1013.9 |
| 20260903135449 | 81 | 45 | 1.0 | 2.0 | 0.00 | 0.00 | 0.00 | 97 | 1013.9 |
| 20260903135334 | 81 | 5 | 1.0 | 2.0 | 0.00 | 0.00 | 0.00 | 97 | 1013.9 |
| 20260903135306 | 81 | 5 | 1.0 | 2.0 | 0.00 | 0.00 | 0.00 | 97 | 1013.9 |
| 20260903135235 | 81 | 27 | 1.0 | 2.0 | 0.00 | 0.00 | 0.00 | 97 | 1013.9 |
| 20260903135135 | 80 | 21 | 1.0 | 2.0 | 0.00 | 0.00 | 0.00 | 97 | 1013.9 |
| 20260903135034 | 80 | 57 | 1.0 | 2.0 | 0.00 | 0.00 | 0.00 | 97 | 1013.9 |
| 20260903134933 | 80 | 20 | 1.0 | 1.0 | 0.00 | 0.00 | 0.00 | 97 | 1013.8 |
| 20260903134833 | 80 | 30 | 0.0 | 1.0 | 0.00 | 0.00 | 0.00 | 98 | 1013.8 |
| 20260903134804 | 80 | 46 | 0.0 | 1.0 | 0.00 | 0.00 | 0.00 | 98 | 1013.8 |
| 20260903134733 | 80 | 77 | 0.0 | 1.0 | 0.00 | 0.00 | 0.00 | 98 | 1013.8 |
| 20260903134633 | 80 | 94 | 0.0 | 1.0 | 0.00 | 0.00 | 0.00 | 98 | 1013.8 |
| 20260903134533 | 80 | 64 | 0.0 | 1.0 | 0.00 | 0.00 | 0.00 | 98 | 1013.8 |
| 20260903134405 | 80 | 91 | 0.0 | 1.0 | 0.00 | 0.00 | 0.00 | 98 | 1013.8 |
| 20260903134251 | 80 | 0 | 0.0 | 1.0 | 0.00 | 0.00 | 0.00 | 98 | 1013.8 |
| 20260903134105 | 80 | 173 | 0.0 | 1.0 | 0.00 | 0.00 | 0.00 | 98 | 1013.8 |
| 20260903134005 | 80 | 63 | 0.0 | 1.0 | 0.00 | 0.00 | 0.00 | 98 | 1013.8 |
| 20260903133835 | 80 | 57 | 0.0 | 1.0 | 0.00 | 0.00 | 0.00 | 98 | 1013.8 |
| 20260903133733 | 80 | 0 | 0.0 | 1.0 | 0.00 | 0.00 | 0.00 | 98 | 1013.8 |
| 20260903133712 | 80 | 39 | 0.0 | 1.0 | 0.00 | 0.00 | 0.00 | 98 | 1013.8 |
| 20260903133604 | 80 | 47 | 0.0 | 2.0 | 0.00 | 0.00 | 0.00 | 98 | 1013.8 |
| 20260903133449 | 80 | 0 | 0.0 | 2.0 | 0.00 | 0.00 | 0.00 | 98 | 1013.8 |
| 20260903133336 | 80 | 266 | 1.0 | 2.0 | 0.00 | 0.00 | 0.00 | 98 | 1013.8 |
| 20260903133220 | 80 | 0 | 1.0 | 2.0 | 0.00 | 0.00 | 0.00 | 98 | 1013.8 |
| 20260903133119 | 80 | 0 | 1.0 | 2.0 | 0.00 | 0.00 | 0.00 | 98 | 1013.8 |
| 20260903132850 | 80 | 268 | 1.0 | 2.0 | 0.00 | 0.00 | 0.00 | 98 | 1013.8 |
| 20260903132750 | 80 | 357 | 1.0 | 2.0 | 0.00 | 0.00 | 0.00 | 98 | 1013.8 |
| 20260903132732 | 80 | 359 | 1.0 | 2.0 | 0.00 | 0.00 | 0.00 | 98 | 1013.8 |
| 20260903132635 | 80 | 3 | 1.0 | 2.0 | 0.00 | 0.00 | 0.00 | 98 | 1013.8 |
| 20260903132535 | 80 | 20 | 1.0 | 2.0 | 0.00 | 0.00 | 0.00 | 98 | 1013.8 |
| 20260903132436 | 80 | 30 | 1.0 | 2.0 | 0.00 | 0.00 | 0.00 | 98 | 1013.8 |
| 20260903132335 | 80 | 28 | 1.0 | 2.0 | 0.00 | 0.00 | 0.00 | 99 | 1013.7 |
| 20260903132219 | 80 | 20 | 1.0 | 2.0 | 0.00 | 0.00 | 0.00 | 99 | 1013.7 |
| 20260903132206 | 80 | 8 | 1.0 | 2.0 | 0.00 | 0.00 | 0.00 | 99 | 1013.7 |
| 20260903132105 | 80 | 30 | 1.0 | 2.0 | 0.00 | 0.00 | 0.00 | 99 | 1013.7 |
| 20260903132005 | 80 | 84 | 1.0 | 2.0 | 0.00 | 0.00 | 0.00 | 99 | 1013.7 |
| 20260903131836 | 80 | 88 | 1.0 | 2.0 | 0.00 | 0.00 | 0.00 | 99 | 1013.7 |
| 20260903131734 | 80 | 0 | 1.0 | 2.0 | 0.00 | 0.00 | 0.00 | 99 | 1013.7 |
| 20260903131718 | 80 | 0 | 1.0 | 2.0 | 0.00 | 0.00 | 0.00 | 99 | 1013.7 |
| 20260903131640 | 80 | 120 | 1.0 | 2.0 | 0.00 | 0.00 | 0.00 | 99 | 1013.7 |
| 20260903131534 | 80 | 110 | 1.0 | 2.0 | 0.00 | 0.00 | 0.00 | 99 | 1013.7 |
| 20260903131420 | 80 | 96 | 1.0 | 2.0 | 0.00 | 0.00 | 0.00 | 99 | 1013.7 |
| 20260903131250 | 80 | 60 | 1.0 | 2.0 | 0.00 | 0.00 | 0.00 | 99 | 1013.7 |
| 20260903131219 | 80 | 87 | 1.0 | 2.0 | 0.00 | 0.00 | 0.00 | 99 | 1013.7 |
| 20260903131135 | 80 | 73 | 0.0 | 2.0 | 0.00 | 0.00 | 0.00 | 99 | 1013.7 |
| 20260903131034 | 80 | 87 | 0.0 | 2.0 | 0.00 | 0.00 | 0.00 | 99 | 1013.7 |
| 20260903130934 | 80 | 56 | 0.0 | 1.0 | 0.00 | 0.00 | 0.00 | 99 | 1013.7 |
| 20260903130824 | 80 | 195 | 0.0 | 1.0 | 0.00 | 0.00 | 0.00 | 99 | 1013.7 |
| 20260903130719 | 80 | 0 | 0.0 | 2.0 | 0.00 | 0.00 | 0.00 | 99 | 1013.7 |
| 20260903130620 | 80 | 0 | 0.0 | 2.0 | 0.00 | 0.00 | 0.00 | 99 | 1013.7 |
| 20260903130505 | 80 | 255 | 0.0 | 2.0 | 0.00 | 0.00 | 0.00 | 99 | 1013.7 |
| 20260903130406 | 80 | 0 | 1.0 | 2.0 | 0.00 | 0.00 | 0.00 | 99 | 1013.6 |
| 20260903130250 | 80 | 0 | 1.0 | 2.0 | 0.00 | 0.00 | 0.00 | 99 | 1013.6 |
| 20260903130219 | 80 | 0 | 1.0 | 2.0 | 0.00 | 0.00 | 0.00 | 99 | 1013.6 |
| 20260903130135 | 80 | 0 | 1.0 | 2.0 | 0.00 | 0.00 | 0.00 | 99 | 1013.6 |
| 20260903130035 | 80 | 344 | 1.0 | 2.0 | 0.00 | 0.00 | 0.00 | 99 | 1013.6 |
| 20260903125934 | 80 | 30 | 1.0 | 2.0 | 0.00 | 0.00 | 0.00 | 99 | 1013.6 |
| 20260903125820 | 80 | 10 | 1.0 | 2.0 | 0.00 | 0.00 | 0.00 | 99 | 1013.6 |
| 20260903125720 | 79 | 13 | 1.0 | 2.0 | 0.00 | 0.00 | 0.00 | 99 | 1013.6 |
| 20260903125651 | 79 | 58 | 1.0 | 2.0 | 0.00 | 0.00 | 0.00 | 99 | 1013.6 |
| 20260903125620 | 79 | 111 | 1.0 | 2.0 | 0.00 | 0.00 | 0.00 | 99 | 1013.6 |
| 20260903125533 | 79 | 66 | 1.0 | 2.0 | 0.00 | 0.00 | 0.00 | 99 | 1013.6 |
| 20260903125421 | 79 | 73 | 1.0 | 2.0 | 0.00 | 0.00 | 0.00 | 99 | 1013.6 |
| 20260903125316 | 79 | 0 | 1.0 | 2.0 | 0.00 | 0.00 | 0.00 | 99 | 1013.6 |
| 20260903125310 | 79 | 58 | 1.0 | 2.0 | 0.00 | 0.00 | 0.00 | 99 | 1013.6 |
| 20260903125105 | 79 | 73 | 0.0 | 2.0 | 0.00 | 0.00 | 0.00 | 99 | 1013.6 |
| 20260903124950 | 79 | 85 | 0.0 | 2.0 | 0.00 | 0.00 | 0.00 | 99 | 1013.6 |
| 20260903124850 | 79 | 62 | 0.0 | 1.0 | 0.00 | 0.00 | 0.00 | 99 | 1013.5 |
| 20260903124750 | 79 | 20 | 0.0 | 1.0 | 0.00 | 0.00 | 0.00 | 99 | 1013.5 |
| 20260903124635 | 79 | 0 | 0.0 | 1.0 | 0.00 | 0.00 | 0.00 | 99 | 1013.5 |
| 20260903124533 | 79 | 29 | 0.0 | 1.0 | 0.00 | 0.00 | 0.00 | 99 | 1013.5 |
| 20260903124416 | 79 | 0 | 0.0 | 1.0 | 0.00 | 0.00 | 0.00 | 99 | 1013.5 |
| 20260903124305 | 79 | 0 | 0.0 | 1.0 | 0.00 | 0.00 | 0.00 | 99 | 1013.5 |
| 20260903124205 | 80 | 279 | 0.0 | 1.0 | 0.00 | 0.00 | 0.00 | 99 | 1013.5 |
| 20260903124134 | 80 | 0 | 0.0 | 1.0 | 0.00 | 0.00 | 0.00 | 99 | 1013.5 |
| 20260903124050 | 80 | 0 | 0.0 | 1.0 | 0.00 | 0.00 | 0.00 | 99 | 1013.5 |
| 20260903123950 | 80 | 0 | 0.0 | 1.0 | 0.00 | 0.00 | 0.00 | 99 | 1013.5 |
| 20260903123835 | 80 | 344 | 0.0 | 1.0 | 0.00 | 0.00 | 0.00 | 99 | 1013.5 |
| 20260903123735 | 80 | 254 | 0.0 | 1.0 | 0.00 | 0.00 | 0.00 | 99 | 1013.4 |
| 20260903123638 | 80 | 0 | 0.0 | 2.0 | 0.00 | 0.00 | 0.00 | 99 | 1013.4 |
| 20260903123634 | 80 | 0 | 1.0 | 2.0 | 0.00 | 0.00 | 0.00 | 99 | 1013.4 |
| 20260903123535 | 80 | 0 | 1.0 | 2.0 | 0.00 | 0.00 | 0.00 | 99 | 1013.4 |
| 20260903123435 | 80 | 103 | 1.0 | 2.0 | 0.00 | 0.00 | 0.00 | 99 | 1013.4 |
| 20260903123335 | 80 | 81 | 1.0 | 2.0 | 0.00 | 0.00 | 0.00 | 99 | 1013.4 |
| 20260903123235 | 79 | 52 | 1.0 | 2.0 | 0.00 | 0.00 | 0.00 | 99 | 1013.4 |
| 20260903123121 | 79 | 71 | 1.0 | 2.0 | 0.00 | 0.00 | 0.00 | 99 | 1013.4 |
| 20260903123020 | 79 | 87 | 1.0 | 2.0 | 0.00 | 0.00 | 0.00 | 99 | 1013.3 |
| 20260903122920 | 79 | 77 | 1.0 | 2.0 | 0.00 | 0.00 | 0.00 | 98 | 1013.3 |
| 20260903122805 | 79 | 60 | 1.0 | 2.0 | 0.00 | 0.00 | 0.00 | 98 | 1013.3 |
| 20260903122651 | 79 | 80 | 1.0 | 2.0 | 0.00 | 0.00 | 0.00 | 98 | 1013.2 |
| 20260903122633 | 79 | 0 | 1.0 | 2.0 | 0.00 | 0.00 | 0.00 | 98 | 1013.2 |
| 20260903122550 | 79 | 102 | 1.0 | 2.0 | 0.00 | 0.00 | 0.00 | 98 | 1013.2 |
| 20260903122421 | 79 | 87 | 1.0 | 2.0 | 0.00 | 0.00 | 0.00 | 98 | 1013.2 |
| 20260903122250 | 79 | 42 | 0.0 | 1.0 | 0.00 | 0.00 | 0.00 | 98 | 1013.2 |
| 20260903122151 | 79 | 77 | 0.0 | 1.0 | 0.00 | 0.00 | 0.00 | 98 | 1013.2 |
| 20260903122134 | 79 | 46 | 0.0 | 1.0 | 0.00 | 0.00 | 0.00 | 98 | 1013.1 |
| 20260903122052 | 79 | 120 | 0.0 | 1.0 | 0.00 | 0.00 | 0.00 | 98 | 1013.1 |
| 20260903121952 | 79 | 45 | 0.0 | 1.0 | 0.00 | 0.00 | 0.00 | 98 | 1013.1 |
| 20260903121851 | 79 | 45 | 0.0 | 1.0 | 0.00 | 0.00 | 0.00 | 98 | 1013.1 |
| 20260903121751 | 80 | 36 | 0.0 | 1.0 | 0.00 | 0.00 | 0.00 | 98 | 1013.1 |
| 20260903121606 | 80 | 290 | 0.0 | 1.0 | 0.00 | 0.00 | 0.00 | 98 | 1013.1 |
| 20260903121507 | 80 | 333 | 0.0 | 1.0 | 0.00 | 0.00 | 0.00 | 98 | 1013.1 |
| 20260903121405 | 80 | 0 | 0.0 | 1.0 | 0.00 | 0.00 | 0.00 | 98 | 1013.1 |
| 20260903121305 | 80 | 0 | 0.0 | 1.0 | 0.00 | 0.00 | 0.00 | 98 | 1013.1 |
| 20260903121139 | 80 | 319 | 0.0 | 1.0 | 0.00 | 0.00 | 0.00 | 98 | 1013.1 |
| 20260903121133 | 80 | 321 | 0.0 | 1.0 | 0.00 | 0.00 | 0.00 | 98 | 1013.1 |
| 20260903121038 | 80 | 321 | 0.0 | 1.0 | 0.00 | 0.00 | 0.00 | 98 | 1013.1 |
| 20260903120936 | 80 | 237 | 0.0 | 1.0 | 0.00 | 0.00 | 0.00 | 98 | 1013.1 |
| 20260903120836 | 80 | 0 | 0.0 | 1.0 | 0.00 | 0.00 | 0.00 | 98 | 1013.1 |
| 20260903120734 | 80 | 0 | 0.0 | 1.0 | 0.00 | 0.00 | 0.00 | 98 | 1013.0 |
| 20260903120622 | 80 | 357 | 0.0 | 1.0 | 0.00 | 0.00 | 0.00 | 98 | 1013.0 |
| 20260903120506 | 80 | 0 | 0.0 | 1.0 | 0.00 | 0.00 | 0.00 | 98 | 1013.0 |
| 20260903120351 | 80 | 302 | 0.0 | 1.0 | 0.00 | 0.00 | 0.00 | 98 | 1013.1 |
| 20260903120251 | 80 | 15 | 0.0 | 1.0 | 0.00 | 0.00 | 0.00 | 98 | 1013.1 |
| 20260903120152 | 80 | 113 | 0.0 | 1.0 | 0.00 | 0.00 | 0.00 | 98 | 1013.1 |
| 20260903120119 | 80 | 0 | 0.0 | 1.0 | 0.00 | 0.00 | 0.00 | 98 | 1013.1 |
| 20260903120050 | 80 | 0 | 0.0 | 1.0 | 0.00 | 0.00 | 0.00 | 98 | 1013.1 |
| 20260903115952 | 80 | 240 | 0.0 | 1.0 | 0.00 | 0.00 | 0.00 | 98 | 1013.1 |
| 20260903115851 | 80 | 243 | 0.0 | 1.0 | 0.00 | 0.00 | 0.00 | 98 | 1013.1 |
| 20260903115751 | 80 | 227 | 0.0 | 1.0 | 0.00 | 0.00 | 0.00 | 97 | 1013.1 |
| 20260903115619 | 80 | 0 | 0.0 | 0.0 | 0.00 | 0.00 | 0.00 | 97 | 1013.1 |
| 20260903115534 | 80 | 0 | 0.0 | 0.0 | 0.00 | 0.00 | 0.00 | 97 | 1013.1 |
| 20260903115422 | 80 | 284 | 0.0 | 0.0 | 0.00 | 0.00 | 0.00 | 97 | 1013.1 |
| 20260903115321 | 80 | 82 | 0.0 | 0.0 | 0.00 | 0.00 | 0.00 | 97 | 1013.1 |
| 20260903115222 | 80 | 49 | 0.0 | 0.0 | 0.00 | 0.00 | 0.00 | 97 | 1013.1 |
| 20260903115121 | 80 | 0 | 0.0 | 0.0 | 0.00 | 0.00 | 0.00 | 97 | 1013.1 |
| 20260903115022 | 80 | 0 | 0.0 | 0.0 | 0.00 | 0.00 | 0.00 | 97 | 1013.1 |
| 20260903114906 | 80 | 0 | 0.0 | 0.0 | 0.00 | 0.00 | 0.00 | 97 | 1013.1 |
| 20260903114806 | 80 | 0 | 0.0 | 0.0 | 0.00 | 0.00 | 0.00 | 97 | 1013.1 |
| 20260903114705 | 80 | 0 | 0.0 | 0.0 | 0.00 | 0.00 | 0.00 | 97 | 1013.1 |
| 20260903114603 | 80 | 50 | 0.0 | 0.0 | 0.00 | 0.00 | 0.00 | 97 | 1013.1 |
| 20260903114436 | 80 | 0 | 0.0 | 0.0 | 0.00 | 0.00 | 0.00 | 97 | 1013.1 |
| 20260903114306 | 80 | 59 | 0.0 | 0.0 | 0.00 | 0.00 | 0.00 | 97 | 1013.1 |
| 20260903114152 | 80 | 0 | 0.0 | 0.0 | 0.00 | 0.00 | 0.00 | 97 | 1013.1 |
| 20260903114035 | 80 | 0 | 0.0 | 0.0 | 0.00 | 0.00 | 0.00 | 97 | 1013.1 |
| 20260903113952 | 80 | 0 | 0.0 | 1.0 | 0.00 | 0.00 | 0.00 | 97 | 1013.1 |
| 20260903113751 | 80 | 193 | 0.0 | 1.0 | 0.00 | 0.00 | 0.00 | 97 | 1013.1 |
| 20260903113651 | 80 | 0 | 0.0 | 1.0 | 0.00 | 0.00 | 0.00 | 97 | 1013.1 |
| 20260903113551 | 80 | 277 | 0.0 | 1.0 | 0.00 | 0.00 | 0.00 | 97 | 1013.1 |
| 20260903113534 | 80 | 0 | 0.0 | 1.0 | 0.00 | 0.00 | 0.00 | 96 | 1013.1 |
| 20260903113451 | 80 | 0 | 0.0 | 1.0 | 0.00 | 0.00 | 0.00 | 96 | 1013.1 |
| 20260903113336 | 80 | 0 | 0.0 | 1.0 | 0.00 | 0.00 | 0.00 | 96 | 1013.1 |
| 20260903113221 | 80 | 0 | 0.0 | 1.0 | 0.00 | 0.00 | 0.00 | 96 | 1013.1 |
| 20260903113121 | 80 | 0 | 0.0 | 1.0 | 0.00 | 0.00 | 0.00 | 96 | 1013.1 |
| 20260903113022 | 80 | 303 | 0.0 | 1.0 | 0.00 | 0.00 | 0.00 | 96 | 1013.1 |
| 20260903112921 | 80 | 0 | 0.0 | 1.0 | 0.00 | 0.00 | 0.00 | 96 | 1013.1 |
| 20260903112807 | 80 | 341 | 0.0 | 1.0 | 0.00 | 0.00 | 0.00 | 96 | 1013.1 |
| 20260903112651 | 80 | 0 | 0.0 | 1.0 | 0.00 | 0.00 | 0.00 | 96 | 1013.1 |
| 20260903112521 | 80 | 0 | 0.0 | 1.0 | 0.00 | 0.00 | 0.00 | 96 | 1013.1 |
| 20260903112422 | 80 | 352 | 0.0 | 1.0 | 0.00 | 0.00 | 0.00 | 96 | 1013.0 |
| 20260903112307 | 80 | 310 | 0.0 | 1.0 | 0.00 | 0.00 | 0.00 | 96 | 1013.0 |
| 20260903112207 | 80 | 0 | 0.0 | 1.0 | 0.00 | 0.00 | 0.00 | 96 | 1013.0 |
| 20260903112034 | 80 | 0 | 0.0 | 1.0 | 0.00 | 0.00 | 0.00 | 96 | 1013.0 |
| 20260903111936 | 80 | 0 | 0.0 | 1.0 | 0.00 | 0.00 | 0.00 | 96 | 1013.0 |
| 20260903111837 | 80 | 31 | 0.0 | 1.0 | 0.00 | 0.00 | 0.00 | 96 | 1013.0 |
| 20260903111737 | 80 | 127 | 0.0 | 1.0 | 0.00 | 0.00 | 0.00 | 96 | 1013.0 |
| 20260903111635 | 80 | 0 | 0.0 | 1.0 | 0.00 | 0.00 | 0.00 | 96 | 1013.0 |
| 20260903111536 | 80 | 0 | 0.0 | 1.0 | 0.00 | 0.00 | 0.00 | 96 | 1013.0 |
| 20260903111435 | 80 | 329 | 0.0 | 1.0 | 0.00 | 0.00 | 0.00 | 96 | 1013.0 |
| 20260903111322 | 80 | 23 | 0.0 | 1.0 | 0.00 | 0.00 | 0.00 | 96 | 1013.0 |
| 20260903111222 | 80 | 349 | 0.0 | 1.0 | 0.00 | 0.00 | 0.00 | 95 | 1013.0 |
| 20260903111122 | 80 | 0 | 0.0 | 1.0 | 0.00 | 0.00 | 0.00 | 95 | 1013.0 |
| 20260903111021 | 80 | 0 | 0.0 | 1.0 | 0.00 | 0.00 | 0.00 | 95 | 1013.0 |
| 20260903110921 | 80 | 0 | 0.0 | 1.0 | 0.00 | 0.00 | 0.00 | 95 | 1012.9 |
| 20260903110821 | 80 | 0 | 0.0 | 1.0 | 0.00 | 0.00 | 0.00 | 95 | 1012.9 |
| 20260903110707 | 80 | 353 | 0.0 | 1.0 | 0.00 | 0.00 | 0.00 | 95 | 1012.9 |
| 20260903110607 | 81 | 339 | 0.0 | 1.0 | 0.00 | 0.00 | 0.00 | 95 | 1012.9 |
| 20260903110521 | 81 | 0 | 0.0 | 1.0 | 0.00 | 0.00 | 0.00 | 95 | 1012.8 |
| 20260903110452 | 81 | 0 | 0.0 | 1.0 | 0.00 | 0.00 | 0.00 | 95 | 1012.8 |
| 20260903110351 | 81 | 343 | 0.0 | 1.0 | 0.00 | 0.00 | 0.00 | 95 | 1012.8 |
| 20260903110251 | 81 | 0 | 0.0 | 1.0 | 0.00 | 0.00 | 0.00 | 95 | 1012.8 |
| 20260903110138 | 81 | 4 | 0.0 | 1.0 | 0.00 | 0.00 | 0.00 | 95 | 1012.8 |
| 20260903110037 | 81 | 84 | 0.0 | 1.0 | 0.00 | 0.00 | 0.00 | 95 | 1012.8 |
| 20260903110006 | 81 | 55 | 0.0 | 1.0 | 0.00 | 0.00 | 0.00 | 95 | 1012.8 |
| 20260903105937 | 81 | 29 | 0.0 | 1.0 | 0.00 | 0.00 | 0.00 | 95 | 1012.8 |
| 20260903105837 | 81 | 41 | 0.0 | 1.0 | 0.00 | 0.00 | 0.00 | 95 | 1012.8 |
| 20260903105737 | 81 | 0 | 0.0 | 1.0 | 0.00 | 0.00 | 0.00 | 95 | 1012.9 |
| 20260903105637 | 81 | 237 | 0.0 | 1.0 | 0.00 | 0.00 | 0.00 | 95 | 1012.8 |
| 20260903105535 | 81 | 0 | 0.0 | 1.0 | 0.00 | 0.00 | 0.00 | 95 | 1012.8 |
| 20260903105505 | 81 | 0 | 0.0 | 1.0 | 0.00 | 0.00 | 0.00 | 95 | 1012.8 |
| 20260903105436 | 81 | 335 | 0.0 | 1.0 | 0.00 | 0.00 | 0.00 | 94 | 1012.8 |
| 20260903105322 | 81 | 311 | 0.0 | 1.0 | 0.00 | 0.00 | 0.00 | 94 | 1012.8 |
| 20260903105222 | 81 | 0 | 0.0 | 1.0 | 0.00 | 0.00 | 0.00 | 94 | 1012.8 |
| 20260903105108 | 81 | 0 | 0.0 | 1.0 | 0.00 | 0.00 | 0.00 | 94 | 1012.8 |
| 20260903105006 | 81 | 303 | 0.0 | 1.0 | 0.00 | 0.00 | 0.00 | 94 | 1012.8 |
| 20260903104951 | 81 | 303 | 0.0 | 1.0 | 0.00 | 0.00 | 0.00 | 94 | 1012.8 |
| 20260903104908 | 81 | 334 | 0.0 | 1.0 | 0.00 | 0.00 | 0.00 | 94 | 1012.8 |
| 20260903104808 | 81 | 27 | 0.0 | 1.0 | 0.00 | 0.00 | 0.00 | 94 | 1012.8 |
| 20260903104708 | 81 | 278 | 0.0 | 1.0 | 0.00 | 0.00 | 0.00 | 94 | 1012.8 |
| 20260903104608 | 81 | 347 | 0.0 | 1.0 | 0.00 | 0.00 | 0.00 | 94 | 1012.8 |
| 20260903104507 | 81 | 357 | 0.0 | 1.0 | 0.00 | 0.00 | 0.00 | 94 | 1012.8 |
| 20260903104451 | 81 | 357 | 0.0 | 1.0 | 0.00 | 0.00 | 0.00 | 94 | 1012.8 |
| 20260903104407 | 81 | 0 | 0.0 | 1.0 | 0.00 | 0.00 | 0.00 | 94 | 1012.8 |
| 20260903104238 | 81 | 53 | 0.0 | 1.0 | 0.00 | 0.00 | 0.00 | 94 | 1012.8 |
| 20260903104137 | 81 | 0 | 0.0 | 1.0 | 0.00 | 0.00 | 0.00 | 94 | 1012.8 |
| 20260903104037 | 81 | 0 | 0.0 | 1.0 | 0.00 | 0.00 | 0.00 | 93 | 1012.7 |
| 20260903103952 | 81 | 313 | 0.0 | 1.0 | 0.00 | 0.00 | 0.00 | 93 | 1012.7 |
| 20260903103936 | 81 | 336 | 0.0 | 1.0 | 0.00 | 0.00 | 0.00 | 93 | 1012.7 |
| 20260903103837 | 81 | 344 | 0.0 | 1.0 | 0.00 | 0.00 | 0.00 | 93 | 1012.7 |
| 20260903103713 | 81 | 13 | 0.0 | 1.0 | 0.00 | 0.00 | 0.00 | 93 | 1012.7 |
| 20260903103614 | 81 | 6 | 0.0 | 1.0 | 0.00 | 0.00 | 0.00 | 93 | 1012.7 |
| 20260903103510 | 81 | 324 | 0.0 | 1.0 | 0.00 | 0.00 | 0.00 | 93 | 1012.7 |
| 20260903103452 | 81 | 72 | 0.0 | 1.0 | 0.00 | 0.00 | 0.00 | 93 | 1012.7 |
| 20260903103410 | 81 | 319 | 0.0 | 1.0 | 0.00 | 0.00 | 0.00 | 93 | 1012.7 |
| 20260903103310 | 81 | 329 | 0.0 | 2.0 | 0.00 | 0.00 | 0.00 | 93 | 1012.7 |
| 20260903103211 | 81 | 8 | 0.0 | 2.0 | 0.00 | 0.00 | 0.00 | 93 | 1012.7 |
| 20260903103111 | 81 | 0 | 0.0 | 2.0 | 0.00 | 0.00 | 0.00 | 93 | 1012.7 |
| 20260903103007 | 81 | 0 | 0.0 | 2.0 | 0.00 | 0.00 | 0.00 | 93 | 1012.7 |
| 20260903102943 | 81 | 243 | 0.0 | 2.0 | 0.00 | 0.00 | 0.00 | 93 | 1012.7 |
| 20260903102858 | 81 | 271 | 0.0 | 2.0 | 0.00 | 0.00 | 0.00 | 93 | 1012.7 |
| 20260903102758 | 81 | 0 | 0.0 | 2.0 | 0.00 | 0.00 | 0.00 | 93 | 1012.7 |
| 20260903102655 | 81 | 345 | 0.0 | 2.0 | 0.00 | 0.00 | 0.00 | 93 | 1012.7 |
| 20260903102552 | 81 | 75 | 0.0 | 2.0 | 0.00 | 0.00 | 0.00 | 93 | 1012.7 |
| 20260903102440 | 82 | 348 | 0.0 | 2.0 | 0.00 | 0.00 | 0.00 | 93 | 1012.7 |
| 20260903102353 | 82 | 333 | 0.0 | 2.0 | 0.00 | 0.00 | 0.00 | 93 | 1012.7 |
| 20260903102251 | 82 | 344 | 0.0 | 2.0 | 0.00 | 0.00 | 0.00 | 93 | 1012.7 |
| 20260903102149 | 82 | 347 | 0.0 | 2.0 | 0.00 | 0.00 | 0.00 | 93 | 1012.7 |
| 20260903102046 | 82 | 0 | 0.0 | 2.0 | 0.00 | 0.00 | 0.00 | 93 | 1012.7 |
| 20260903101945 | 82 | 27 | 0.0 | 2.0 | 0.00 | 0.00 | 0.00 | 93 | 1012.7 |
| 20260903101940 | 82 | 43 | 0.0 | 2.0 | 0.00 | 0.00 | 0.00 | 93 | 1012.7 |
| 20260903101844 | 82 | 303 | 0.0 | 2.0 | 0.00 | 0.00 | 0.00 | 93 | 1012.6 |
| 20260903101741 | 82 | 155 | 0.0 | 2.0 | 0.00 | 0.00 | 0.00 | 93 | 1012.6 |
| 20260903101638 | 82 | 293 | 0.0 | 2.0 | 0.00 | 0.00 | 0.00 | 93 | 1012.6 |
| 20260903101538 | 82 | 264 | 0.0 | 2.0 | 0.00 | 0.00 | 0.00 | 93 | 1012.6 |
| 20260903101441 | 82 | 302 | 0.0 | 2.0 | 0.00 | 0.00 | 0.00 | 93 | 1012.6 |
| 20260903101436 | 82 | 5 | 0.0 | 2.0 | 0.00 | 0.00 | 0.00 | 93 | 1012.6 |
| 20260903101334 | 82 | 317 | 0.0 | 2.0 | 0.00 | 0.00 | 0.00 | 93 | 1012.6 |
| 20260903101235 | 82 | 270 | 0.0 | 2.0 | 0.00 | 0.00 | 0.00 | 93 | 1012.5 |
| 20260903101131 | 82 | 0 | 0.0 | 2.0 | 0.00 | 0.00 | 0.00 | 93 | 1012.5 |
| 20260903101030 | 82 | 205 | 0.0 | 2.0 | 0.00 | 0.00 | 0.00 | 93 | 1012.5 |
| 20260903100939 | 82 | 355 | 0.0 | 2.0 | 0.00 | 0.00 | 0.00 | 93 | 1012.5 |
| 20260903100935 | 82 | 297 | 0.0 | 2.0 | 0.00 | 0.00 | 0.00 | 93 | 1012.5 |
| 20260903100929 | 82 | 356 | 0.0 | 2.0 | 0.00 | 0.00 | 0.00 | 93 | 1012.5 |
| 20260903100829 | 82 | 284 | 0.0 | 2.0 | 0.00 | 0.00 | 0.00 | 93 | 1012.5 |
| 20260903100811 | 82 | 30 | 0.0 | 2.0 | 0.00 | 0.00 | 0.00 | 93 | 1012.5 |
| 20260903100628 | 82 | 114 | 0.0 | 2.0 | 0.00 | 0.00 | 0.00 | 93 | 1012.5 |
| 20260903100542 | 82 | 0 | 0.0 | 2.0 | 0.00 | 0.00 | 0.00 | 93 | 1012.5 |
| 20260903100420 | 82 | 0 | 0.0 | 2.0 | 0.00 | 0.00 | 0.00 | 93 | 1012.5 |
| 20260903100317 | 82 | 104 | 0.0 | 2.0 | 0.00 | 0.00 | 0.00 | 93 | 1012.5 |
| 20260903100211 | 82 | 92 | 0.0 | 2.0 | 0.00 | 0.00 | 0.00 | 93 | 1012.5 |
| 20260903100105 | 82 | 72 | 0.0 | 2.0 | 0.00 | 0.00 | 0.00 | 93 | 1012.5 |
| 20260903100004 | 82 | 114 | 0.0 | 2.0 | 0.00 | 0.00 | 0.00 | 93 | 1012.5 |
| 20260903095937 | 82 | 357 | 0.0 | 2.0 | 0.00 | 0.00 | 0.00 | 93 | 1012.5 |
| 20260903095916 | 82 | 298 | 0.0 | 2.0 | 0.00 | 0.00 | 0.00 | 93 | 1012.5 |
| 20260903095902 | 82 | 0 | 0.0 | 2.0 | 0.00 | 0.00 | 0.00 | 93 | 1012.5 |
| 20260903095804 | 82 | 58 | 0.0 | 2.0 | 0.00 | 0.00 | 0.00 | 93 | 1012.5 |
| 20260903095654 | 82 | 154 | 0.0 | 2.0 | 0.00 | 0.00 | 0.00 | 93 | 1012.5 |
| 20260903095548 | 82 | 176 | 0.0 | 2.0 | 0.00 | 0.00 | 0.00 | 93 | 1012.5 |
| 20260903095543 | 82 | 16 | 0.0 | 2.0 | 0.00 | 0.00 | 0.00 | 93 | 1012.5 |
| 20260903095344 | 82 | 171 | 0.0 | 2.0 | 0.00 | 0.00 | 0.00 | 93 | 1012.5 |
| 20260903095244 | 82 | 0 | 0.0 | 2.0 | 0.00 | 0.00 | 0.00 | 93 | 1012.5 |
| 20260903095144 | 82 | 0 | 0.0 | 2.0 | 0.00 | 0.00 | 0.00 | 93 | 1012.5 |
| 20260903095044 | 82 | 99 | 0.0 | 2.0 | 0.00 | 0.00 | 0.00 | 93 | 1012.5 |
| 20260903094936 | 82 | 0 | 0.0 | 2.0 | 0.00 | 0.00 | 0.00 | 93 | 1012.5 |
| 20260903094841 | 82 | 270 | 0.0 | 2.0 | 0.00 | 0.00 | 0.00 | 93 | 1012.5 |
| 20260903094741 | 82 | 64 | 0.0 | 2.0 | 0.00 | 0.00 | 0.00 | 93 | 1012.5 |
| 20260903094641 | 82 | 168 | 0.0 | 2.0 | 0.00 | 0.00 | 0.00 | 92 | 1012.5 |
| 20260903094538 | 82 | 0 | 0.0 | 2.0 | 0.00 | 0.00 | 0.00 | 92 | 1012.5 |
| 20260903094439 | 82 | 64 | 0.0 | 2.0 | 0.00 | 0.00 | 0.00 | 92 | 1012.5 |
| 20260903094336 | 82 | 355 | 0.0 | 2.0 | 0.00 | 0.00 | 0.00 | 92 | 1012.5 |
| 20260903094237 | 82 | 0 | 0.0 | 2.0 | 0.00 | 0.00 | 0.00 | 92 | 1012.5 |
| 20260903094136 | 82 | 87 | 0.0 | 2.0 | 0.00 | 0.00 | 0.00 | 92 | 1012.5 |
| 20260903094035 | 82 | 295 | 0.0 | 2.0 | 0.00 | 0.00 | 0.00 | 92 | 1012.5 |
| 20260903093936 | 82 | 355 | 0.0 | 2.0 | 0.00 | 0.00 | 0.00 | 92 | 1012.5 |
| 20260903093833 | 82 | 47 | 0.0 | 2.0 | 0.00 | 0.00 | 0.00 | 92 | 1012.5 |
| 20260903093730 | 82 | 0 | 0.0 | 2.0 | 0.00 | 0.00 | 0.00 | 92 | 1012.5 |
| 20260903093630 | 82 | 67 | 0.0 | 2.0 | 0.00 | 0.00 | 0.00 | 92 | 1012.5 |
| 20260903093527 | 82 | 53 | 0.0 | 2.0 | 0.00 | 0.00 | 0.00 | 92 | 1012.5 |
| 20260903093437 | 82 | 129 | 0.0 | 2.0 | 0.00 | 0.00 | 0.00 | 92 | 1012.5 |
| 20260903093426 | 82 | 0 | 0.0 | 2.0 | 0.00 | 0.00 | 0.00 | 92 | 1012.5 |
| 20260903093321 | 82 | 329 | 0.0 | 2.0 | 0.00 | 0.00 | 0.00 | 92 | 1012.5 |
| 20260903093221 | 82 | 248 | 0.0 | 2.0 | 0.00 | 0.00 | 0.00 | 92 | 1012.5 |
| 20260903093153 | 82 | 0 | 0.0 | 2.0 | 0.00 | 0.00 | 0.00 | 92 | 1012.5 |
| 20260903093120 | 82 | 0 | 0.0 | 2.0 | 0.00 | 0.00 | 0.00 | 92 | 1012.5 |
| 20260903093039 | 82 | 0 | 0.0 | 2.0 | 0.00 | 0.00 | 0.00 | 92 | 1012.5 |
| 20260903092921 | 82 | 202 | 0.0 | 2.0 | 0.00 | 0.00 | 0.00 | 92 | 1012.5 |
| 20260903092821 | 82 | 84 | 0.0 | 2.0 | 0.00 | 0.00 | 0.00 | 92 | 1012.6 |
| 20260903092718 | 82 | 282 | 0.0 | 2.0 | 0.00 | 0.00 | 0.00 | 92 | 1012.6 |
| 20260903092612 | 82 | 29 | 0.0 | 1.0 | 0.00 | 0.00 | 0.00 | 92 | 1012.6 |
| 20260903092509 | 82 | 16 | 0.0 | 1.0 | 0.00 | 0.00 | 0.00 | 92 | 1012.6 |
| 20260903092428 | 82 | 152 | 0.0 | 1.0 | 0.00 | 0.00 | 0.00 | 92 | 1012.6 |
| 20260903092409 | 82 | 314 | 0.0 | 1.0 | 0.00 | 0.00 | 0.00 | 92 | 1012.6 |
| 20260903092306 | 82 | 265 | 0.0 | 1.0 | 0.00 | 0.00 | 0.00 | 92 | 1012.6 |
| 20260903092205 | 82 | 230 | 0.0 | 2.0 | 0.00 | 0.00 | 0.00 | 92 | 1012.6 |
| 20260903092103 | 82 | 0 | 0.0 | 2.0 | 0.00 | 0.00 | 0.00 | 92 | 1012.7 |
| 20260903091957 | 82 | 35 | 0.0 | 2.0 | 0.00 | 0.00 | 0.00 | 92 | 1012.7 |
| 20260903091929 | 82 | 42 | 0.0 | 2.0 | 0.00 | 0.00 | 0.00 | 92 | 1012.7 |
| 20260903091857 | 82 | 0 | 0.0 | 2.0 | 0.00 | 0.00 | 0.00 | 92 | 1012.7 |
| 20260903091754 | 82 | 267 | 0.0 | 2.0 | 0.00 | 0.00 | 0.00 | 92 | 1012.6 |
| 20260903091654 | 82 | 36 | 0.0 | 2.0 | 0.00 | 0.00 | 0.00 | 92 | 1012.6 |
| 20260903091551 | 82 | 0 | 0.0 | 2.0 | 0.00 | 0.00 | 0.00 | 92 | 1012.6 |
| 20260903091451 | 82 | 0 | 0.0 | 2.0 | 0.00 | 0.00 | 0.00 | 92 | 1012.6 |
| 20260903091425 | 82 | 0 | 1.0 | 2.0 | 0.00 | 0.00 | 0.00 | 92 | 1012.6 |
| 20260903091348 | 82 | 70 | 1.0 | 2.0 | 0.00 | 0.00 | 0.00 | 92 | 1012.6 |
| 20260903091245 | 82 | 355 | 1.0 | 2.0 | 0.00 | 0.00 | 0.00 | 92 | 1012.6 |
| 20260903091145 | 82 | 0 | 1.0 | 2.0 | 0.00 | 0.00 | 0.00 | 92 | 1012.6 |
| 20260903091042 | 82 | 172 | 1.0 | 2.0 | 0.00 | 0.00 | 0.00 | 92 | 1012.6 |
| 20260903090942 | 82 | 34 | 1.0 | 2.0 | 0.00 | 0.00 | 0.00 | 92 | 1012.6 |
| 20260903090919 | 82 | 186 | 1.0 | 2.0 | 0.00 | 0.00 | 0.00 | 92 | 1012.6 |
| 20260903090841 | 82 | 0 | 1.0 | 2.0 | 0.00 | 0.00 | 0.00 | 92 | 1012.6 |
| 20260903090739 | 82 | 106 | 1.0 | 2.0 | 0.00 | 0.00 | 0.00 | 92 | 1012.6 |
| 20260903090638 | 82 | 0 | 1.0 | 2.0 | 0.00 | 0.00 | 0.00 | 92 | 1012.6 |
| 20260903090536 | 82 | 98 | 1.0 | 2.0 | 0.00 | 0.00 | 0.00 | 92 | 1012.6 |
| 20260903090436 | 82 | 186 | 1.0 | 2.0 | 0.00 | 0.00 | 0.00 | 92 | 1012.6 |
| 20260903090420 | 82 | 321 | 1.0 | 2.0 | 0.00 | 0.00 | 0.00 | 92 | 1012.6 |
| 20260903090336 | 82 | 123 | 1.0 | 2.0 | 0.00 | 0.00 | 0.00 | 92 | 1012.6 |
| 20260903090236 | 82 | 62 | 1.0 | 2.0 | 0.00 | 0.00 | 0.00 | 92 | 1012.6 |
| 20260903090136 | 82 | 32 | 1.0 | 2.0 | 0.00 | 0.00 | 0.00 | 92 | 1012.6 |
| 20260903090033 | 82 | 274 | 1.0 | 2.0 | 0.00 | 0.00 | 0.00 | 92 | 1012.6 |
| 20260903085933 | 82 | 219 | 1.0 | 2.0 | 0.00 | 0.00 | 0.00 | 92 | 1012.6 |
| 20260903085919 | 82 | 0 | 1.0 | 2.0 | 0.00 | 0.00 | 0.00 | 92 | 1012.6 |
| 20260903085830 | 82 | 184 | 1.0 | 2.0 | 0.00 | 0.00 | 0.00 | 92 | 1012.6 |
| 20260903085722 | 82 | 0 | 1.0 | 2.0 | 0.00 | 0.00 | 0.00 | 92 | 1012.6 |
| 20260903085615 | 82 | 167 | 1.0 | 2.0 | 0.00 | 0.00 | 0.00 | 92 | 1012.6 |
| 20260903085512 | 82 | 230 | 1.0 | 2.0 | 0.00 | 0.00 | 0.00 | 91 | 1012.6 |
| 20260903085411 | 82 | 0 | 1.0 | 2.0 | 0.00 | 0.00 | 0.00 | 91 | 1012.6 |
| 20260903085310 | 82 | 55 | 1.0 | 2.0 | 0.00 | 0.00 | 0.00 | 91 | 1012.6 |
| 20260903085209 | 82 | 70 | 1.0 | 2.0 | 0.00 | 0.00 | 0.00 | 91 | 1012.6 |
| 20260903085109 | 82 | 299 | 1.0 | 2.0 | 0.00 | 0.00 | 0.00 | 91 | 1012.6 |
| 20260903085009 | 81 | 231 | 1.0 | 2.0 | 0.00 | 0.00 | 0.00 | 91 | 1012.6 |
| 20260903084917 | 81 | 187 | 1.0 | 2.0 | 0.00 | 0.00 | 0.00 | 91 | 1012.6 |
| 20260903084909 | 81 | 91 | 1.0 | 2.0 | 0.00 | 0.00 | 0.00 | 91 | 1012.6 |
| 20260903084806 | 81 | 36 | 1.0 | 2.0 | 0.00 | 0.00 | 0.00 | 91 | 1012.6 |
| 20260903084706 | 81 | 0 | 1.0 | 2.0 | 0.00 | 0.00 | 0.00 | 91 | 1012.6 |
| 20260903084606 | 81 | 89 | 1.0 | 2.0 | 0.00 | 0.00 | 0.00 | 91 | 1012.6 |
| 20260903084506 | 81 | 189 | 1.0 | 3.0 | 0.00 | 0.00 | 0.00 | 91 | 1012.6 |
| 20260903084417 | 81 | 300 | 1.0 | 3.0 | 0.00 | 0.00 | 0.00 | 91 | 1012.6 |
| 20260903084403 | 81 | 114 | 1.0 | 3.0 | 0.00 | 0.00 | 0.00 | 91 | 1012.6 |
| 20260903084304 | 81 | 242 | 1.0 | 3.0 | 0.00 | 0.00 | 0.00 | 91 | 1012.6 |
| 20260903084204 | 81 | 158 | 1.0 | 3.0 | 0.00 | 0.00 | 0.00 | 91 | 1012.5 |
| 20260903084059 | 81 | 154 | 1.0 | 3.0 | 0.00 | 0.00 | 0.00 | 91 | 1012.5 |
| 20260903083954 | 81 | 0 | 1.0 | 3.0 | 0.00 | 0.00 | 0.00 | 91 | 1012.5 |
| 20260903083917 | 81 | 65 | 1.0 | 3.0 | 0.00 | 0.00 | 0.00 | 91 | 1012.5 |
| 20260903083851 | 81 | 93 | 1.0 | 3.0 | 0.00 | 0.00 | 0.00 | 91 | 1012.5 |
| 20260903083751 | 81 | 154 | 1.0 | 3.0 | 0.00 | 0.00 | 0.00 | 91 | 1012.5 |
| 20260903083651 | 81 | 332 | 0.0 | 3.0 | 0.00 | 0.00 | 0.00 | 92 | 1012.5 |
| 20260903083632 | 81 | 314 | 0.0 | 2.0 | 0.00 | 0.00 | 0.00 | 91 | 1012.5 |
| 20260903083552 | 81 | 195 | 0.0 | 2.0 | 0.00 | 0.00 | 0.00 | 92 | 1012.5 |
| 20260903083520 | 81 | 193 | 0.0 | 2.0 | 0.00 | 0.00 | 0.00 | 91 | 1012.5 |
| 20260903083350 | 81 | 187 | 0.0 | 2.0 | 0.00 | 0.00 | 0.00 | 91 | 1012.5 |
| 20260903083244 | 81 | 0 | 0.0 | 2.0 | 0.00 | 0.00 | 0.00 | 91 | 1012.5 |
| 20260903083143 | 81 | 79 | 0.0 | 2.0 | 0.00 | 0.00 | 0.00 | 91 | 1012.5 |
| 20260903083133 | 81 | 47 | 0.0 | 2.0 | 0.00 | 0.00 | 0.00 | 91 | 1012.5 |
| 20260903083038 | 81 | 347 | 0.0 | 2.0 | 0.00 | 0.00 | 0.00 | 91 | 1012.5 |
| 20260903083020 | 81 | 156 | 0.0 | 2.0 | 0.00 | 0.00 | 0.00 | 91 | 1012.5 |
| 20260903082838 | 81 | 59 | 0.0 | 2.0 | 0.00 | 0.00 | 0.00 | 91 | 1012.5 |
| 20260903082738 | 81 | 130 | 0.0 | 2.0 | 0.00 | 0.00 | 0.00 | 91 | 1012.5 |
| 20260903082638 | 81 | 72 | 0.0 | 2.0 | 0.00 | 0.00 | 0.00 | 91 | 1012.5 |
| 20260903082537 | 81 | 0 | 0.0 | 2.0 | 0.00 | 0.00 | 0.00 | 91 | 1012.5 |
| 20260903082436 | 81 | 0 | 0.0 | 2.0 | 0.00 | 0.00 | 0.00 | 91 | 1012.5 |
| 20260903082414 | 81 | 22 | 0.0 | 2.0 | 0.00 | 0.00 | 0.00 | 91 | 1012.5 |
| 20260903082336 | 81 | 268 | 0.0 | 2.0 | 0.00 | 0.00 | 0.00 | 91 | 1012.5 |
| 20260903082237 | 81 | 0 | 0.0 | 2.0 | 0.00 | 0.00 | 0.00 | 91 | 1012.5 |
| 20260903082137 | 81 | 337 | 0.0 | 2.0 | 0.00 | 0.00 | 0.00 | 91 | 1012.5 |
| 20260903082037 | 81 | 55 | 1.0 | 3.0 | 0.00 | 0.00 | 0.00 | 91 | 1012.5 |
| 20260903081935 | 81 | 202 | 1.0 | 3.0 | 0.00 | 0.00 | 0.00 | 91 | 1012.4 |
| 20260903081911 | 81 | 207 | 1.0 | 3.0 | 0.00 | 0.00 | 0.00 | 91 | 1012.4 |
| 20260903081835 | 81 | 158 | 1.0 | 3.0 | 0.00 | 0.00 | 0.00 | 91 | 1012.4 |
| 20260903081734 | 81 | 201 | 1.0 | 3.0 | 0.00 | 0.00 | 0.00 | 91 | 1012.4 |
| 20260903081633 | 81 | 319 | 1.0 | 3.0 | 0.00 | 0.00 | 0.00 | 91 | 1012.4 |
| 20260903081528 | 81 | 288 | 1.0 | 3.0 | 0.00 | 0.00 | 0.00 | 91 | 1012.4 |
| 20260903081427 | 81 | 0 | 1.0 | 3.0 | 0.00 | 0.00 | 0.00 | 91 | 1012.4 |
| 20260903081406 | 81 | 181 | 1.0 | 3.0 | 0.00 | 0.00 | 0.00 | 91 | 1012.4 |
| 20260903081322 | 81 | 56 | 1.0 | 3.0 | 0.00 | 0.00 | 0.00 | 91 | 1012.4 |
| 20260903081216 | 81 | 216 | 1.0 | 3.0 | 0.00 | 0.00 | 0.00 | 91 | 1012.4 |
| 20260903081116 | 81 | 157 | 1.0 | 3.0 | 0.00 | 0.00 | 0.00 | 91 | 1012.4 |
| 20260903081013 | 81 | 133 | 1.0 | 3.0 | 0.00 | 0.00 | 0.00 | 91 | 1012.4 |
| 20260903080910 | 81 | 267 | 1.0 | 3.0 | 0.00 | 0.00 | 0.00 | 91 | 1012.4 |
| 20260903080902 | 81 | 108 | 1.0 | 3.0 | 0.00 | 0.00 | 0.00 | 91 | 1012.4 |
| 20260903080809 | 81 | 0 | 1.0 | 3.0 | 0.00 | 0.00 | 0.00 | 91 | 1012.4 |
| 20260903080703 | 81 | 0 | 1.0 | 3.0 | 0.00 | 0.00 | 0.00 | 91 | 1012.4 |
| 20260903080614 | 81 | 103 | 1.0 | 2.0 | 0.00 | 0.00 | 0.00 | 91 | 1012.5 |
| 20260903080601 | 81 | 163 | 1.0 | 3.0 | 0.00 | 0.00 | 0.00 | 91 | 1012.4 |
| 20260903080506 | 81 | 21 | 1.0 | 3.0 | 0.00 | 0.00 | 0.00 | 91 | 1012.4 |
| 20260903080501 | 81 | 103 | 1.0 | 2.0 | 0.00 | 0.00 | 0.00 | 91 | 1012.5 |
| 20260903075927 | 81 | 255 | 1.0 | 2.0 | 0.00 | 0.00 | 0.00 | 91 | 1012.5 |
| 20260903075815 | 81 | 177 | 1.0 | 2.0 | 0.00 | 0.00 | 0.00 | 91 | 1012.5 |
| 20260903075722 | 81 | 326 | 1.0 | 2.0 | 0.00 | 0.00 | 0.00 | 91 | 1012.5 |
| 20260903075622 | 81 | 273 | 1.0 | 2.0 | 0.00 | 0.00 | 0.00 | 92 | 1012.5 |
| 20260903075542 | 81 | 87 | 1.0 | 3.0 | 0.00 | 0.00 | 0.00 | 92 | 1012.5 |
| 20260903075519 | 81 | 265 | 1.0 | 3.0 | 0.00 | 0.00 | 0.00 | 92 | 1012.5 |
| 20260903075426 | 81 | 235 | 1.0 | 3.0 | 0.00 | 0.00 | 0.00 | 92 | 1012.5 |
| 20260903075421 | 81 | 87 | 1.0 | 3.0 | 0.00 | 0.00 | 0.00 | 92 | 1012.5 |
| 20260903075217 | 81 | 89 | 1.0 | 3.0 | 0.00 | 0.00 | 0.00 | 92 | 1012.5 |
| 20260903075113 | 81 | 222 | 0.0 | 3.0 | 0.00 | 0.00 | 0.00 | 92 | 1012.5 |
| 20260903075013 | 81 | 310 | 0.0 | 3.0 | 0.00 | 0.00 | 0.00 | 92 | 1012.5 |
| 20260903074913 | 81 | 164 | 0.0 | 3.0 | 0.00 | 0.00 | 0.00 | 92 | 1012.5 |
| 20260903074813 | 81 | 217 | 0.0 | 3.0 | 0.00 | 0.00 | 0.00 | 92 | 1012.5 |
| 20260903074707 | 81 | 55 | 0.0 | 3.0 | 0.00 | 0.00 | 0.00 | 92 | 1012.5 |
| 20260903074607 | 81 | 281 | 0.0 | 3.0 | 0.00 | 0.00 | 0.00 | 92 | 1012.5 |
| 20260903074457 | 81 | 63 | 0.0 | 2.0 | 0.00 | 0.00 | 0.00 | 92 | 1012.5 |
| 20260903074357 | 81 | 0 | 0.0 | 2.0 | 0.00 | 0.00 | 0.00 | 92 | 1012.5 |
| 20260903074309 | 81 | 50 | 0.0 | 2.0 | 0.00 | 0.00 | 0.00 | 92 | 1012.5 |
| 20260903074258 | 81 | 0 | 0.0 | 2.0 | 0.00 | 0.00 | 0.00 | 92 | 1012.5 |
| 20260903074157 | 81 | 0 | 0.0 | 2.0 | 0.00 | 0.00 | 0.00 | 92 | 1012.5 |
| 20260903074055 | 81 | 311 | 0.0 | 2.0 | 0.00 | 0.00 | 0.00 | 92 | 1012.5 |
| 20260903073955 | 81 | 189 | 0.0 | 2.0 | 0.00 | 0.00 | 0.00 | 92 | 1012.6 |
| 20260903073855 | 81 | 98 | 0.0 | 2.0 | 0.00 | 0.00 | 0.00 | 92 | 1012.6 |
| 20260903073806 | 81 | 0 | 0.0 | 2.0 | 0.00 | 0.00 | 0.00 | 92 | 1012.6 |
| 20260903073752 | 81 | 289 | 0.0 | 2.0 | 0.00 | 0.00 | 0.00 | 92 | 1012.6 |
| 20260903073652 | 81 | 181 | 0.0 | 2.0 | 0.00 | 0.00 | 0.00 | 92 | 1012.6 |
| 20260903073550 | 81 | 209 | 0.0 | 2.0 | 0.00 | 0.00 | 0.00 | 92 | 1012.6 |
| 20260903073449 | 81 | 0 | 0.0 | 2.0 | 0.00 | 0.00 | 0.00 | 92 | 1012.6 |
| 20260903073349 | 81 | 283 | 0.0 | 2.0 | 0.00 | 0.00 | 0.00 | 92 | 1012.6 |
| 20260903073306 | 81 | 8 | 0.0 | 2.0 | 0.00 | 0.00 | 0.00 | 92 | 1012.6 |
| 20260903073249 | 81 | 168 | 0.0 | 2.0 | 0.00 | 0.00 | 0.00 | 92 | 1012.6 |
| 20260903073146 | 81 | 287 | 0.0 | 2.0 | 0.00 | 0.00 | 0.00 | 92 | 1012.6 |
| 20260903073046 | 81 | 0 | 0.0 | 1.0 | 0.00 | 0.00 | 0.00 | 91 | 1012.6 |
| 20260903072946 | 81 | 0 | 0.0 | 1.0 | 0.00 | 0.00 | 0.00 | 91 | 1012.6 |
| 20260903072843 | 81 | 275 | 0.0 | 1.0 | 0.00 | 0.00 | 0.00 | 91 | 1012.6 |
| 20260903072805 | 81 | 5 | 0.0 | 1.0 | 0.00 | 0.00 | 0.00 | 91 | 1012.6 |
| 20260903072743 | 81 | 277 | 0.0 | 1.0 | 0.00 | 0.00 | 0.00 | 91 | 1012.6 |
| 20260903072643 | 81 | 302 | 0.0 | 1.0 | 0.00 | 0.00 | 0.00 | 91 | 1012.6 |
| 20260903072543 | 81 | 321 | 0.0 | 1.0 | 0.00 | 0.00 | 0.00 | 91 | 1012.6 |
| 20260903072443 | 81 | 0 | 0.0 | 1.0 | 0.00 | 0.00 | 0.00 | 91 | 1012.6 |
| 20260903072343 | 82 | 316 | 0.0 | 2.0 | 0.00 | 0.00 | 0.00 | 91 | 1012.6 |
| 20260903072306 | 82 | 195 | 0.0 | 2.0 | 0.00 | 0.00 | 0.00 | 91 | 1012.6 |
| 20260903072244 | 82 | 219 | 0.0 | 2.0 | 0.00 | 0.00 | 0.00 | 91 | 1012.6 |
| 20260903072143 | 82 | 0 | 0.0 | 2.0 | 0.00 | 0.00 | 0.00 | 91 | 1012.7 |
| 20260903072043 | 82 | 299 | 0.0 | 2.0 | 0.00 | 0.00 | 0.00 | 91 | 1012.7 |
| 20260903071943 | 82 | 134 | 0.0 | 2.0 | 0.00 | 0.00 | 0.00 | 91 | 1012.7 |
| 20260903071844 | 82 | 0 | 0.0 | 2.0 | 0.00 | 0.00 | 0.00 | 91 | 1012.7 |
| 20260903071803 | 82 | 69 | 0.0 | 2.0 | 0.00 | 0.00 | 0.00 | 91 | 1012.7 |
| 20260903071744 | 82 | 30 | 0.0 | 2.0 | 0.00 | 0.00 | 0.00 | 91 | 1012.7 |
| 20260903071643 | 82 | 35 | 0.0 | 2.0 | 0.00 | 0.00 | 0.00 | 91 | 1012.7 |
| 20260903071544 | 82 | 0 | 0.0 | 2.0 | 0.00 | 0.00 | 0.00 | 91 | 1012.7 |
| 20260903071444 | 82 | 0 | 0.0 | 2.0 | 0.00 | 0.00 | 0.00 | 91 | 1012.7 |
| 20260903071339 | 82 | 62 | 0.0 | 2.0 | 0.00 | 0.00 | 0.00 | 91 | 1012.7 |
| 20260903071303 | 82 | 0 | 0.0 | 3.0 | 0.00 | 0.00 | 0.00 | 91 | 1012.7 |
| 20260903071239 | 82 | 335 | 1.0 | 3.0 | 0.00 | 0.00 | 0.00 | 91 | 1012.7 |
| 20260903071139 | 82 | 210 | 1.0 | 3.0 | 0.00 | 0.00 | 0.00 | 91 | 1012.7 |
| 20260903071037 | 82 | 71 | 1.0 | 3.0 | 0.00 | 0.00 | 0.00 | 91 | 1012.7 |
| 20260903070937 | 82 | 0 | 1.0 | 3.0 | 0.00 | 0.00 | 0.00 | 91 | 1012.7 |
| 20260903070837 | 82 | 0 | 1.0 | 3.0 | 0.00 | 0.00 | 0.00 | 91 | 1012.7 |
| 20260903070800 | 82 | 210 | 1.0 | 3.0 | 0.00 | 0.00 | 0.00 | 91 | 1012.7 |
| 20260903070735 | 82 | 27 | 1.0 | 3.0 | 0.00 | 0.00 | 0.00 | 91 | 1012.7 |
| 20260903070632 | 82 | 0 | 1.0 | 3.0 | 0.00 | 0.00 | 0.00 | 91 | 1012.7 |
| 20260903070526 | 82 | 84 | 1.0 | 3.0 | 0.00 | 0.00 | 0.00 | 91 | 1012.7 |
| 20260903070426 | 82 | 85 | 1.0 | 3.0 | 0.00 | 0.00 | 0.00 | 91 | 1012.7 |
| 20260903070325 | 82 | 88 | 0.0 | 3.0 | 0.00 | 0.00 | 0.00 | 91 | 1012.7 |
| 20260903070242 | 82 | 171 | 0.0 | 2.0 | 0.00 | 0.00 | 0.00 | 91 | 1012.7 |
| 20260903070226 | 82 | 102 | 0.0 | 2.0 | 0.00 | 0.00 | 0.00 | 91 | 1012.7 |
| 20260903070123 | 82 | 107 | 0.0 | 2.0 | 0.00 | 0.00 | 0.00 | 91 | 1012.7 |
| 20260903070023 | 82 | 92 | 0.0 | 2.0 | 0.00 | 0.00 | 0.00 | 91 | 1012.7 |
| 20260903065920 | 82 | 62 | 1.0 | 2.0 | 0.00 | 0.00 | 0.00 | 91 | 1012.8 |
| 20260903065820 | 82 | 314 | 1.0 | 2.0 | 0.00 | 0.00 | 0.00 | 91 | 1012.8 |
| 20260903065742 | 82 | 42 | 1.0 | 2.0 | 0.00 | 0.00 | 0.00 | 91 | 1012.8 |
| 20260903065720 | 82 | 4 | 1.0 | 2.0 | 0.00 | 0.00 | 0.00 | 91 | 1012.8 |
| 20260903065620 | 82 | 0 | 1.0 | 2.0 | 0.00 | 0.00 | 0.00 | 91 | 1012.8 |
| 20260903065520 | 82 | 320 | 1.0 | 2.0 | 0.00 | 0.00 | 0.00 | 91 | 1012.8 |
| 20260903065420 | 82 | 331 | 1.0 | 2.0 | 0.00 | 0.00 | 0.00 | 91 | 1012.8 |
| 20260903065320 | 82 | 75 | 1.0 | 2.0 | 0.00 | 0.00 | 0.00 | 91 | 1012.8 |
| 20260903065240 | 82 | 12 | 1.0 | 2.0 | 0.00 | 0.00 | 0.00 | 91 | 1012.8 |
| 20260903065220 | 82 | 0 | 1.0 | 2.0 | 0.00 | 0.00 | 0.00 | 91 | 1012.8 |
| 20260903065120 | 82 | 0 | 1.0 | 2.0 | 0.00 | 0.00 | 0.00 | 91 | 1012.9 |
| 20260903065017 | 82 | 324 | 1.0 | 2.0 | 0.00 | 0.00 | 0.00 | 91 | 1012.9 |
| 20260903064916 | 82 | 72 | 1.0 | 2.0 | 0.00 | 0.00 | 0.00 | 91 | 1012.9 |
| 20260903064817 | 82 | 66 | 1.0 | 2.0 | 0.00 | 0.00 | 0.00 | 91 | 1012.9 |
| 20260903064740 | 82 | 179 | 1.0 | 2.0 | 0.00 | 0.00 | 0.00 | 91 | 1012.9 |
| 20260903064717 | 82 | 121 | 1.0 | 2.0 | 0.00 | 0.00 | 0.00 | 91 | 1012.9 |
| 20260903064617 | 82 | 193 | 1.0 | 2.0 | 0.00 | 0.00 | 0.00 | 91 | 1012.9 |
| 20260903064514 | 82 | 359 | 0.0 | 2.0 | 0.00 | 0.00 | 0.00 | 91 | 1012.9 |
| 20260903064413 | 82 | 0 | 0.0 | 2.0 | 0.00 | 0.00 | 0.00 | 91 | 1012.9 |
| 20260903064311 | 82 | 216 | 0.0 | 2.0 | 0.00 | 0.00 | 0.00 | 91 | 1012.9 |
| 20260903064211 | 82 | 0 | 0.0 | 2.0 | 0.00 | 0.00 | 0.00 | 91 | 1012.9 |
| 20260903064108 | 82 | 76 | 0.0 | 2.0 | 0.00 | 0.00 | 0.00 | 91 | 1013.0 |
| 20260903064008 | 82 | 137 | 0.0 | 2.0 | 0.00 | 0.00 | 0.00 | 91 | 1013.0 |
| 20260903063909 | 82 | 262 | 0.0 | 2.0 | 0.00 | 0.00 | 0.00 | 91 | 1013.0 |
| 20260903063808 | 82 | 0 | 0.0 | 2.0 | 0.00 | 0.00 | 0.00 | 91 | 1013.0 |
| 20260903063737 | 82 | 33 | 0.0 | 2.0 | 0.00 | 0.00 | 0.00 | 91 | 1013.0 |
| 20260903063707 | 82 | 0 | 0.0 | 2.0 | 0.00 | 0.00 | 0.00 | 91 | 1013.0 |
| 20260903063609 | 82 | 57 | 0.0 | 2.0 | 0.00 | 0.00 | 0.00 | 90 | 1013.0 |
| 20260903063505 | 82 | 0 | 0.0 | 2.0 | 0.00 | 0.00 | 0.00 | 90 | 1013.0 |
| 20260903063404 | 82 | 0 | 0.0 | 2.0 | 0.00 | 0.00 | 0.00 | 90 | 1013.1 |
| 20260903063305 | 82 | 63 | 0.0 | 2.0 | 0.00 | 0.00 | 0.00 | 91 | 1013.1 |
| 20260903063238 | 82 | 93 | 0.0 | 2.0 | 0.00 | 0.00 | 0.00 | 91 | 1013.1 |
| 20260903063205 | 82 | 208 | 1.0 | 3.0 | 0.00 | 0.00 | 0.00 | 91 | 1013.1 |
| 20260903063105 | 82 | 0 | 1.0 | 3.0 | 0.00 | 0.00 | 0.00 | 90 | 1013.1 |
| 20260903063004 | 82 | 65 | 0.0 | 3.0 | 0.00 | 0.00 | 0.00 | 90 | 1013.1 |
| 20260903062904 | 82 | 0 | 0.0 | 3.0 | 0.00 | 0.00 | 0.00 | 91 | 1013.1 |
| 20260903062802 | 82 | 17 | 1.0 | 3.0 | 0.00 | 0.00 | 0.00 | 90 | 1013.1 |
| 20260903062738 | 82 | 82 | 1.0 | 3.0 | 0.00 | 0.00 | 0.00 | 90 | 1013.1 |
| 20260903062659 | 82 | 305 | 1.0 | 3.0 | 0.00 | 0.00 | 0.00 | 90 | 1013.1 |
| 20260903062556 | 82 | 196 | 1.0 | 3.0 | 0.00 | 0.00 | 0.00 | 90 | 1013.1 |
| 20260903062456 | 82 | 0 | 1.0 | 3.0 | 0.00 | 0.00 | 0.00 | 90 | 1013.1 |
| 20260903062356 | 82 | 0 | 1.0 | 3.0 | 0.00 | 0.00 | 0.00 | 90 | 1013.1 |
| 20260903062255 | 82 | 149 | 1.0 | 3.0 | 0.00 | 0.00 | 0.00 | 90 | 1013.1 |
| 20260903062239 | 82 | 298 | 1.0 | 3.0 | 0.00 | 0.00 | 0.00 | 90 | 1013.1 |
| 20260903062155 | 82 | 59 | 0.0 | 2.0 | 0.00 | 0.00 | 0.00 | 90 | 1013.1 |
| 20260903062055 | 82 | 20 | 0.0 | 2.0 | 0.00 | 0.00 | 0.00 | 90 | 1013.1 |
| 20260903061955 | 82 | 5 | 0.0 | 2.0 | 0.00 | 0.00 | 0.00 | 90 | 1013.1 |
| 20260903061852 | 82 | 82 | 0.0 | 2.0 | 0.00 | 0.00 | 0.00 | 90 | 1013.1 |
| 20260903061751 | 82 | 197 | 0.0 | 2.0 | 0.00 | 0.00 | 0.00 | 90 | 1013.1 |
| 20260903061735 | 82 | 159 | 0.0 | 3.0 | 0.00 | 0.00 | 0.00 | 90 | 1013.1 |
| 20260903061651 | 82 | 71 | 0.0 | 3.0 | 0.00 | 0.00 | 0.00 | 90 | 1013.1 |
| 20260903061551 | 82 | 0 | 0.0 | 3.0 | 0.00 | 0.00 | 0.00 | 90 | 1013.1 |
| 20260903061446 | 82 | 306 | 0.0 | 3.0 | 0.00 | 0.00 | 0.00 | 90 | 1013.2 |
| 20260903061346 | 82 | 0 | 0.0 | 3.0 | 0.00 | 0.00 | 0.00 | 90 | 1013.2 |
| 20260903061236 | 82 | 220 | 1.0 | 3.0 | 0.00 | 0.00 | 0.00 | 90 | 1013.2 |
| 20260903061140 | 82 | 0 | 1.0 | 3.0 | 0.00 | 0.00 | 0.00 | 90 | 1013.2 |
| 20260903061040 | 82 | 121 | 1.0 | 3.0 | 0.00 | 0.00 | 0.00 | 90 | 1013.2 |
| 20260903060940 | 82 | 348 | 1.0 | 4.0 | 0.00 | 0.00 | 0.00 | 90 | 1013.2 |
| 20260903060840 | 82 | 88 | 1.0 | 4.0 | 0.00 | 0.00 | 0.00 | 90 | 1013.2 |
| 20260903060737 | 82 | 113 | 1.0 | 4.0 | 0.00 | 0.00 | 0.00 | 90 | 1013.2 |
| 20260903060729 | 82 | 65 | 1.0 | 4.0 | 0.00 | 0.00 | 0.00 | 90 | 1013.2 |
| 20260903060634 | 82 | 104 | 1.0 | 4.0 | 0.00 | 0.00 | 0.00 | 90 | 1013.2 |
| 20260903060534 | 82 | 36 | 1.0 | 4.0 | 0.00 | 0.00 | 0.00 | 90 | 1013.2 |
| 20260903060434 | 82 | 0 | 1.0 | 4.0 | 0.00 | 0.00 | 0.00 | 90 | 1013.2 |
| 20260903060331 | 82 | 84 | 1.0 | 4.0 | 0.00 | 0.00 | 0.00 | 90 | 1013.2 |
| 20260903060231 | 82 | 122 | 1.0 | 4.0 | 0.00 | 0.00 | 0.00 | 89 | 1013.2 |
| 20260903060119 | 82 | 81 | 1.0 | 4.0 | 0.00 | 0.00 | 0.00 | 89 | 1013.2 |
| 20260903060019 | 82 | 79 | 1.0 | 4.0 | 0.00 | 0.00 | 0.00 | 89 | 1013.2 |
| 20260903055919 | 82 | 35 | 1.0 | 4.0 | 0.00 | 0.00 | 0.00 | 89 | 1013.2 |
| 20260903055819 | 82 | 75 | 1.0 | 4.0 | 0.00 | 0.00 | 0.00 | 89 | 1013.2 |
| 20260903055724 | 82 | 77 | 1.0 | 4.0 | 0.00 | 0.00 | 0.00 | 89 | 1013.2 |
| 20260903055719 | 82 | 109 | 1.0 | 4.0 | 0.00 | 0.00 | 0.00 | 89 | 1013.2 |
| 20260903055619 | 82 | 100 | 1.0 | 4.0 | 0.00 | 0.00 | 0.00 | 89 | 1013.2 |
| 20260903055516 | 82 | 105 | 1.0 | 3.0 | 0.00 | 0.00 | 0.00 | 89 | 1013.2 |
| 20260903055446 | 82 | 108 | 1.0 | 2.0 | 0.00 | 0.00 | 0.00 | 89 | 1013.3 |
| 20260903055416 | 82 | 88 | 1.0 | 3.0 | 0.00 | 0.00 | 0.00 | 89 | 1013.2 |
| 20260903055326 | 82 | 110 | 1.0 | 2.0 | 0.00 | 0.00 | 0.00 | 89 | 1013.2 |
| 20260903055213 | 82 | 31 | 1.0 | 2.0 | 0.00 | 0.00 | 0.00 | 89 | 1013.3 |
| 20260903055113 | 82 | 101 | 1.0 | 2.0 | 0.00 | 0.00 | 0.00 | 89 | 1013.3 |
| 20260903055013 | 82 | 94 | 1.0 | 2.0 | 0.00 | 0.00 | 0.00 | 89 | 1013.3 |
| 20260903054913 | 82 | 130 | 1.0 | 2.0 | 0.00 | 0.00 | 0.00 | 89 | 1013.3 |
| 20260903054810 | 82 | 155 | 1.0 | 2.0 | 0.00 | 0.00 | 0.00 | 89 | 1013.4 |
| 20260903054707 | 82 | 0 | 1.0 | 2.0 | 0.00 | 0.00 | 0.00 | 89 | 1013.4 |
| 20260903054608 | 82 | 114 | 0.0 | 2.0 | 0.00 | 0.00 | 0.00 | 89 | 1013.4 |
| 20260903054504 | 82 | 205 | 0.0 | 2.0 | 0.00 | 0.00 | 0.00 | 89 | 1013.4 |
| 20260903054404 | 82 | 160 | 0.0 | 2.0 | 0.00 | 0.00 | 0.00 | 89 | 1013.4 |
| 20260903054304 | 82 | 11 | 0.0 | 2.0 | 0.00 | 0.00 | 0.00 | 89 | 1013.4 |
| 20260903054218 | 83 | 134 | 0.0 | 2.0 | 0.00 | 0.00 | 0.00 | 89 | 1013.4 |
| 20260903054204 | 83 | 110 | 0.0 | 2.0 | 0.00 | 0.00 | 0.00 | 89 | 1013.4 |
| 20260903054101 | 83 | 0 | 0.0 | 2.0 | 0.00 | 0.00 | 0.00 | 89 | 1013.4 |
| 20260903054001 | 83 | 54 | 0.0 | 2.0 | 0.00 | 0.00 | 0.00 | 88 | 1013.4 |
| 20260903053858 | 83 | 34 | 0.0 | 2.0 | 0.00 | 0.00 | 0.00 | 88 | 1013.4 |
| 20260903053758 | 83 | 66 | 0.0 | 2.0 | 0.00 | 0.00 | 0.00 | 88 | 1013.4 |
| 20260903053718 | 83 | 153 | 0.0 | 2.0 | 0.00 | 0.00 | 0.00 | 88 | 1013.4 |
| 20260903053649 | 83 | 220 | 0.0 | 2.0 | 0.00 | 0.00 | 0.00 | 88 | 1013.4 |
| 20260903053549 | 83 | 0 | 0.0 | 2.0 | 0.00 | 0.00 | 0.00 | 88 | 1013.4 |
| 20260903053449 | 83 | 132 | 1.0 | 2.0 | 0.00 | 0.00 | 0.00 | 88 | 1013.4 |
| 20260903053349 | 83 | 256 | 1.0 | 2.0 | 0.00 | 0.00 | 0.00 | 88 | 1013.4 |
| 20260903053250 | 83 | 134 | 1.0 | 2.0 | 0.00 | 0.00 | 0.00 | 88 | 1013.4 |
| 20260903053218 | 83 | 0 | 1.0 | 2.0 | 0.00 | 0.00 | 0.00 | 88 | 1013.4 |
| 20260903053144 | 83 | 302 | 1.0 | 2.0 | 0.00 | 0.00 | 0.00 | 88 | 1013.4 |
| 20260903053044 | 83 | 99 | 1.0 | 2.0 | 0.00 | 0.00 | 0.00 | 88 | 1013.4 |
| 20260903052944 | 83 | 200 | 1.0 | 2.0 | 0.00 | 0.00 | 0.00 | 88 | 1013.4 |
| 20260903052844 | 83 | 195 | 1.0 | 2.0 | 0.00 | 0.00 | 0.00 | 88 | 1013.4 |
| 20260903052743 | 83 | 0 | 0.0 | 2.0 | 0.00 | 0.00 | 0.00 | 88 | 1013.4 |
| 20260903052718 | 83 | 339 | 0.0 | 2.0 | 0.00 | 0.00 | 0.00 | 88 | 1013.4 |
| 20260903052641 | 83 | 99 | 0.0 | 2.0 | 0.00 | 0.00 | 0.00 | 88 | 1013.4 |
| 20260903052537 | 83 | 150 | 0.0 | 2.0 | 0.00 | 0.00 | 0.00 | 88 | 1013.4 |
| 20260903052438 | 83 | 0 | 0.0 | 2.0 | 0.00 | 0.00 | 0.00 | 88 | 1013.5 |
| 20260903052338 | 83 | 61 | 0.0 | 2.0 | 0.00 | 0.00 | 0.00 | 88 | 1013.5 |
| 20260903052238 | 83 | 158 | 0.0 | 2.0 | 0.00 | 0.00 | 0.00 | 88 | 1013.5 |
| 20260903052218 | 83 | 96 | 0.0 | 2.0 | 0.00 | 0.00 | 0.00 | 88 | 1013.5 |
| 20260903052131 | 83 | 276 | 0.0 | 2.0 | 0.00 | 0.00 | 0.00 | 88 | 1013.5 |
| 20260903052031 | 83 | 0 | 0.0 | 2.0 | 0.00 | 0.00 | 0.00 | 88 | 1013.5 |
| 20260903051944 | 83 | 132 | 0.0 | 2.0 | 0.00 | 0.00 | 0.00 | 88 | 1013.5 |
| 20260903051929 | 83 | 83 | 0.0 | 2.0 | 0.00 | 0.00 | 0.00 | 88 | 1013.5 |
| 20260903051829 | 83 | 272 | 0.0 | 2.0 | 0.00 | 0.00 | 0.00 | 88 | 1013.5 |
| 20260903051823 | 83 | 0 | 0.0 | 2.0 | 0.00 | 0.00 | 0.00 | 88 | 1013.5 |
| 20260903051625 | 83 | 130 | 0.0 | 2.0 | 0.00 | 0.00 | 0.00 | 88 | 1013.5 |
| 20260903051525 | 83 | 291 | 0.0 | 2.0 | 0.00 | 0.00 | 0.00 | 88 | 1013.5 |
| 20260903051420 | 83 | 231 | 0.0 | 2.0 | 0.00 | 0.00 | 0.00 | 87 | 1013.5 |
| 20260903051320 | 83 | 48 | 0.0 | 3.0 | 0.00 | 0.00 | 0.00 | 87 | 1013.5 |
| 20260903051220 | 83 | 0 | 1.0 | 3.0 | 0.00 | 0.00 | 0.00 | 87 | 1013.5 |
| 20260903051116 | 83 | 155 | 1.0 | 3.0 | 0.00 | 0.00 | 0.00 | 87 | 1013.5 |
| 20260903051016 | 83 | 0 | 1.0 | 3.0 | 0.00 | 0.00 | 0.00 | 87 | 1013.5 |
| 20260903050917 | 83 | 28 | 1.0 | 3.0 | 0.00 | 0.00 | 0.00 | 87 | 1013.5 |
| 20260903050816 | 83 | 0 | 1.0 | 3.0 | 0.00 | 0.00 | 0.00 | 87 | 1013.5 |
| 20260903050717 | 83 | 0 | 1.0 | 3.0 | 0.00 | 0.00 | 0.00 | 87 | 1013.5 |
| 20260903050617 | 83 | 33 | 1.0 | 3.0 | 0.00 | 0.00 | 0.00 | 87 | 1013.5 |
| 20260903050510 | 83 | 322 | 1.0 | 3.0 | 0.00 | 0.00 | 0.00 | 87 | 1013.5 |
| 20260903050407 | 83 | 184 | 1.0 | 3.0 | 0.00 | 0.00 | 0.00 | 87 | 1013.5 |
| 20260903050302 | 83 | 57 | 1.0 | 3.0 | 0.00 | 0.00 | 0.00 | 87 | 1013.5 |
| 20260903050212 | 83 | 83 | 1.0 | 5.0 | 0.00 | 0.00 | 0.00 | 87 | 1013.5 |
| 20260903050159 | 83 | 156 | 1.0 | 5.0 | 0.00 | 0.00 | 0.00 | 87 | 1013.5 |
| 20260903050058 | 83 | 41 | 1.0 | 5.0 | 0.00 | 0.00 | 0.00 | 87 | 1013.5 |
| 20260903045959 | 83 | 93 | 1.0 | 5.0 | 0.00 | 0.00 | 0.00 | 87 | 1013.5 |
| 20260903045853 | 83 | 93 | 1.0 | 5.0 | 0.00 | 0.00 | 0.00 | 87 | 1013.5 |
| 20260903045747 | 83 | 113 | 1.0 | 5.0 | 0.00 | 0.00 | 0.00 | 87 | 1013.5 |
| 20260903045704 | 83 | 63 | 1.0 | 5.0 | 0.00 | 0.00 | 0.00 | 87 | 1013.5 |
| 20260903045647 | 83 | 0 | 1.0 | 5.0 | 0.00 | 0.00 | 0.00 | 87 | 1013.5 |
| 20260903045542 | 83 | 102 | 1.0 | 5.0 | 0.00 | 0.00 | 0.00 | 86 | 1013.5 |
| 20260903045442 | 83 | 37 | 1.0 | 5.0 | 0.00 | 0.00 | 0.00 | 86 | 1013.5 |
| 20260903045342 | 83 | 112 | 1.0 | 5.0 | 0.00 | 0.00 | 0.00 | 86 | 1013.5 |
| 20260903045242 | 83 | 11 | 1.0 | 3.0 | 0.00 | 0.00 | 0.00 | 86 | 1013.5 |
| 20260903045149 | 83 | 131 | 1.0 | 3.0 | 0.00 | 0.00 | 0.00 | 86 | 1013.5 |
| 20260903045141 | 83 | 57 | 1.0 | 2.0 | 0.00 | 0.00 | 0.00 | 86 | 1013.5 |
| 20260903045042 | 83 | 16 | 1.0 | 2.0 | 0.00 | 0.00 | 0.00 | 86 | 1013.5 |
| 20260903044942 | 83 | 272 | 1.0 | 2.0 | 0.00 | 0.00 | 0.00 | 86 | 1013.6 |
| 20260903044842 | 83 | 148 | 1.0 | 3.0 | 0.00 | 0.00 | 0.00 | 86 | 1013.6 |
| 20260903044738 | 83 | 240 | 1.0 | 3.0 | 0.00 | 0.00 | 0.00 | 86 | 1013.6 |
| 20260903044649 | 83 | 66 | 1.0 | 3.0 | 0.00 | 0.00 | 0.00 | 86 | 1013.6 |
| 20260903044632 | 83 | 63 | 1.0 | 3.0 | 0.00 | 0.00 | 0.00 | 86 | 1013.5 |
| 20260903044532 | 83 | 196 | 1.0 | 3.0 | 0.00 | 0.00 | 0.00 | 86 | 1013.5 |
| 20260903044405 | 83 | 330 | 1.0 | 3.0 | 0.00 | 0.00 | 0.00 | 86 | 1013.5 |
| 20260903044303 | 83 | 43 | 1.0 | 3.0 | 0.00 | 0.00 | 0.00 | 86 | 1013.5 |
| 20260903044156 | 83 | 118 | 1.0 | 3.0 | 0.00 | 0.00 | 0.00 | 86 | 1013.5 |
| 20260903044149 | 83 | 203 | 1.0 | 3.0 | 0.00 | 0.00 | 0.00 | 86 | 1013.5 |
| 20260903044056 | 83 | 105 | 1.0 | 3.0 | 0.00 | 0.00 | 0.00 | 86 | 1013.5 |
| 20260903043957 | 83 | 85 | 1.0 | 3.0 | 0.00 | 0.00 | 0.00 | 86 | 1013.5 |
| 20260903043853 | 83 | 327 | 1.0 | 4.0 | 0.00 | 0.00 | 0.00 | 86 | 1013.5 |
| 20260903043754 | 83 | 54 | 1.0 | 4.0 | 0.00 | 0.00 | 0.00 | 86 | 1013.5 |
| 20260903043653 | 83 | 50 | 1.0 | 4.0 | 0.00 | 0.00 | 0.00 | 86 | 1013.5 |
| 20260903043639 | 83 | 287 | 1.0 | 4.0 | 0.00 | 0.00 | 0.00 | 86 | 1013.5 |
| 20260903043553 | 83 | 164 | 1.0 | 4.0 | 0.00 | 0.00 | 0.00 | 86 | 1013.5 |
| 20260903043453 | 83 | 10 | 1.0 | 4.0 | 0.00 | 0.00 | 0.00 | 86 | 1013.5 |
| 20260903043349 | 83 | 92 | 1.0 | 4.0 | 0.00 | 0.00 | 0.00 | 86 | 1013.5 |
| 20260903043251 | 83 | 102 | 1.0 | 4.0 | 0.00 | 0.00 | 0.00 | 86 | 1013.5 |
| 20260903043151 | 83 | 343 | 1.0 | 4.0 | 0.00 | 0.00 | 0.00 | 86 | 1013.5 |
| 20260903043128 | 83 | 0 | 1.0 | 4.0 | 0.00 | 0.00 | 0.00 | 86 | 1013.5 |
| 20260903043104 | 83 | 129 | 1.0 | 3.0 | 0.00 | 0.00 | 0.00 | 87 | 1013.6 |
| 20260903043050 | 83 | 341 | 1.0 | 4.0 | 0.00 | 0.00 | 0.00 | 86 | 1013.5 |
| 20260903042958 | 83 | 208 | 1.0 | 4.0 | 0.00 | 0.00 | 0.00 | 86 | 1013.5 |
| 20260903042953 | 83 | 85 | 1.0 | 3.0 | 0.00 | 0.00 | 0.00 | 86 | 1013.5 |
| 20260903042747 | 83 | 0 | 1.0 | 3.0 | 0.00 | 0.00 | 0.00 | 86 | 1013.6 |
| 20260903042731 | 83 | 4 | 1.0 | 3.0 | 0.00 | 0.00 | 0.00 | 87 | 1013.6 |
| 20260903042547 | 83 | 171 | 1.0 | 3.0 | 0.00 | 0.00 | 0.00 | 87 | 1013.6 |
| 20260903042447 | 83 | 62 | 1.0 | 3.0 | 0.00 | 0.00 | 0.00 | 87 | 1013.5 |
| 20260903042347 | 83 | 66 | 1.0 | 3.0 | 0.00 | 0.00 | 0.00 | 87 | 1013.5 |
| 20260903042247 | 83 | 91 | 1.0 | 3.0 | 0.00 | 0.00 | 0.00 | 87 | 1013.5 |
| 20260903042147 | 83 | 32 | 1.0 | 3.0 | 0.00 | 0.00 | 0.00 | 87 | 1013.5 |
| 20260903042124 | 83 | 201 | 1.0 | 3.0 | 0.00 | 0.00 | 0.00 | 87 | 1013.5 |
| 20260903042047 | 83 | 78 | 1.0 | 3.0 | 0.00 | 0.00 | 0.00 | 87 | 1013.5 |
| 20260903041947 | 83 | 174 | 1.0 | 3.0 | 0.00 | 0.00 | 0.00 | 87 | 1013.5 |
| 20260903041847 | 83 | 84 | 1.0 | 3.0 | 0.00 | 0.00 | 0.00 | 87 | 1013.5 |
| 20260903041747 | 83 | 106 | 1.0 | 3.0 | 0.00 | 0.00 | 0.00 | 87 | 1013.5 |
| 20260903041647 | 83 | 224 | 1.0 | 4.0 | 0.00 | 0.00 | 0.00 | 87 | 1013.5 |
| 20260903041626 | 83 | 45 | 1.0 | 4.0 | 0.00 | 0.00 | 0.00 | 87 | 1013.5 |
| 20260903041547 | 83 | 13 | 1.0 | 4.0 | 0.00 | 0.00 | 0.00 | 87 | 1013.5 |
| 20260903041447 | 83 | 76 | 1.0 | 4.0 | 0.00 | 0.00 | 0.00 | 87 | 1013.4 |
| 20260903041344 | 83 | 0 | 1.0 | 4.0 | 0.00 | 0.00 | 0.00 | 87 | 1013.4 |
| 20260903041244 | 83 | 62 | 1.0 | 4.0 | 0.00 | 0.00 | 0.00 | 87 | 1013.4 |
| 20260903041145 | 83 | 82 | 1.0 | 4.0 | 0.00 | 0.00 | 0.00 | 87 | 1013.4 |
| 20260903041126 | 83 | 159 | 1.0 | 4.0 | 0.00 | 0.00 | 0.00 | 87 | 1013.4 |
| 20260903041045 | 83 | 91 | 1.0 | 4.0 | 0.00 | 0.00 | 0.00 | 87 | 1013.4 |
| 20260903040944 | 83 | 157 | 1.0 | 4.0 | 0.00 | 0.00 | 0.00 | 88 | 1013.4 |
| 20260903040845 | 83 | 48 | 1.0 | 4.0 | 0.00 | 0.00 | 0.00 | 88 | 1013.4 |
| 20260903040745 | 83 | 152 | 1.0 | 4.0 | 0.00 | 0.00 | 0.00 | 88 | 1013.3 |
| 20260903040642 | 83 | 91 | 1.0 | 3.0 | 0.00 | 0.00 | 0.00 | 88 | 1013.4 |
| 20260903040625 | 83 | 1 | 1.0 | 3.0 | 0.00 | 0.00 | 0.00 | 88 | 1013.4 |
| 20260903040542 | 83 | 340 | 1.0 | 3.0 | 0.00 | 0.00 | 0.00 | 88 | 1013.4 |
| 20260903040440 | 83 | 138 | 1.0 | 3.0 | 0.00 | 0.00 | 0.00 | 88 | 1013.4 |
| 20260903040341 | 83 | 63 | 1.0 | 3.0 | 0.00 | 0.00 | 0.00 | 88 | 1013.4 |
| 20260903040242 | 83 | 30 | 1.0 | 3.0 | 0.00 | 0.00 | 0.00 | 88 | 1013.4 |
| 20260903040142 | 83 | 69 | 1.0 | 3.0 | 0.00 | 0.00 | 0.00 | 88 | 1013.5 |
| 20260903040122 | 83 | 73 | 1.0 | 3.0 | 0.00 | 0.00 | 0.00 | 88 | 1013.5 |
| 20260903040042 | 83 | 0 | 0.0 | 3.0 | 0.00 | 0.00 | 0.00 | 88 | 1013.5 |
| 20260903035941 | 83 | 0 | 0.0 | 2.0 | 0.00 | 0.00 | 0.00 | 88 | 1013.6 |
| 20260903035835 | 83 | 132 | 0.0 | 2.0 | 0.00 | 0.00 | 0.00 | 88 | 1013.6 |
| 20260903035736 | 83 | 341 | 0.0 | 3.0 | 0.00 | 0.00 | 0.00 | 88 | 1013.6 |
| 20260903035636 | 83 | 61 | 1.0 | 3.0 | 0.00 | 0.00 | 0.00 | 88 | 1013.6 |
| 20260903035622 | 83 | 92 | 1.0 | 3.0 | 0.00 | 0.00 | 0.00 | 88 | 1013.6 |
| 20260903035532 | 83 | 154 | 1.0 | 3.0 | 0.00 | 0.00 | 0.00 | 87 | 1013.6 |
| 20260903035427 | 83 | 100 | 1.0 | 3.0 | 0.00 | 0.00 | 0.00 | 87 | 1013.6 |
| 20260903035327 | 83 | 0 | 1.0 | 3.0 | 0.00 | 0.00 | 0.00 | 87 | 1013.6 |
| 20260903035220 | 83 | 19 | 1.0 | 3.0 | 0.00 | 0.00 | 0.00 | 87 | 1013.6 |
| 20260903035123 | 83 | 62 | 1.0 | 3.0 | 0.00 | 0.00 | 0.00 | 87 | 1013.6 |
| 20260903035118 | 83 | 63 | 1.0 | 3.0 | 0.00 | 0.00 | 0.00 | 87 | 1013.6 |
| 20260903035012 | 83 | 345 | 1.0 | 3.0 | 0.00 | 0.00 | 0.00 | 87 | 1013.6 |
| 20260903034906 | 83 | 69 | 1.0 | 3.0 | 0.00 | 0.00 | 0.00 | 87 | 1013.6 |
| 20260903034806 | 83 | 0 | 1.0 | 3.0 | 0.00 | 0.00 | 0.00 | 87 | 1013.6 |
| 20260903034701 | 83 | 62 | 1.0 | 3.0 | 0.00 | 0.00 | 0.00 | 87 | 1013.6 |
| 20260903034619 | 83 | 0 | 1.0 | 3.0 | 0.00 | 0.00 | 0.00 | 87 | 1013.6 |
| 20260903034557 | 83 | 339 | 1.0 | 3.0 | 0.00 | 0.00 | 0.00 | 87 | 1013.6 |
| 20260903034457 | 83 | 75 | 1.0 | 3.0 | 0.00 | 0.00 | 0.00 | 87 | 1013.7 |
| 20260903034357 | 83 | 75 | 1.0 | 3.0 | 0.00 | 0.00 | 0.00 | 87 | 1013.7 |
| 20260903034338 | 83 | 92 | 1.0 | 3.0 | 0.00 | 0.00 | 0.00 | 87 | 1013.7 |
| 20260903034257 | 83 | 84 | 1.0 | 3.0 | 0.00 | 0.00 | 0.00 | 87 | 1013.7 |
| 20260903034222 | 83 | 50 | 1.0 | 3.0 | 0.00 | 0.00 | 0.00 | 87 | 1013.7 |
| 20260903034054 | 83 | 49 | 1.0 | 3.0 | 0.00 | 0.00 | 0.00 | 87 | 1013.7 |
| 20260903033954 | 83 | 66 | 1.0 | 3.0 | 0.00 | 0.00 | 0.00 | 87 | 1013.7 |
| 20260903033855 | 84 | 26 | 1.0 | 3.0 | 0.00 | 0.00 | 0.00 | 87 | 1013.7 |
| 20260903033756 | 84 | 57 | 1.0 | 3.0 | 0.00 | 0.00 | 0.00 | 87 | 1013.7 |
| 20260903033654 | 84 | 55 | 1.0 | 3.0 | 0.00 | 0.00 | 0.00 | 87 | 1013.7 |
| 20260903033617 | 84 | 68 | 1.0 | 3.0 | 0.00 | 0.00 | 0.00 | 87 | 1013.7 |
| 20260903033554 | 84 | 50 | 1.0 | 3.0 | 0.00 | 0.00 | 0.00 | 87 | 1013.7 |
| 20260903033454 | 84 | 73 | 1.0 | 3.0 | 0.00 | 0.00 | 0.00 | 87 | 1013.6 |
| 20260903033354 | 84 | 355 | 1.0 | 3.0 | 0.00 | 0.00 | 0.00 | 87 | 1013.6 |
| 20260903033254 | 84 | 35 | 1.0 | 3.0 | 0.00 | 0.00 | 0.00 | 87 | 1013.6 |
| 20260903033154 | 84 | 51 | 1.0 | 3.0 | 0.00 | 0.00 | 0.00 | 87 | 1013.5 |
| 20260903033114 | 84 | 42 | 1.0 | 4.0 | 0.00 | 0.00 | 0.00 | 87 | 1013.5 |
| 20260903033045 | 84 | 65 | 1.0 | 4.0 | 0.00 | 0.00 | 0.00 | 87 | 1013.5 |
| 20260903032945 | 84 | 90 | 1.0 | 4.0 | 0.00 | 0.00 | 0.00 | 87 | 1013.5 |
| 20260903032845 | 84 | 93 | 1.0 | 4.0 | 0.00 | 0.00 | 0.00 | 87 | 1013.5 |
| 20260903032743 | 84 | 22 | 1.0 | 5.0 | 0.00 | 0.00 | 0.00 | 87 | 1013.4 |
| 20260903032643 | 84 | 179 | 1.0 | 5.0 | 0.00 | 0.00 | 0.00 | 87 | 1013.4 |
| 20260903032613 | 84 | 153 | 1.0 | 5.0 | 0.00 | 0.00 | 0.00 | 87 | 1013.4 |
| 20260903032542 | 84 | 49 | 1.0 | 5.0 | 0.00 | 0.00 | 0.00 | 87 | 1013.3 |
| 20260903032443 | 84 | 0 | 1.0 | 5.0 | 0.00 | 0.00 | 0.00 | 87 | 1013.3 |
| 20260903032343 | 84 | 41 | 2.0 | 5.0 | 0.00 | 0.00 | 0.00 | 87 | 1013.3 |
| 20260903032242 | 84 | 29 | 1.0 | 5.0 | 0.00 | 0.00 | 0.00 | 87 | 1013.3 |
| 20260903032136 | 83 | 96 | 2.0 | 5.0 | 0.00 | 0.00 | 0.00 | 87 | 1013.3 |
| 20260903032111 | 83 | 71 | 2.0 | 5.0 | 0.00 | 0.00 | 0.00 | 87 | 1013.3 |
| 20260903032036 | 83 | 84 | 2.0 | 5.0 | 0.00 | 0.00 | 0.00 | 87 | 1013.3 |
| 20260903031936 | 83 | 56 | 1.0 | 5.0 | 0.00 | 0.00 | 0.00 | 87 | 1013.2 |
| 20260903031836 | 83 | 109 | 1.0 | 5.0 | 0.00 | 0.00 | 0.00 | 87 | 1013.2 |
| 20260903031737 | 83 | 72 | 1.0 | 4.0 | 0.00 | 0.00 | 0.00 | 87 | 1013.2 |
| 20260903031636 | 83 | 146 | 1.0 | 4.0 | 0.00 | 0.00 | 0.00 | 87 | 1013.2 |
| 20260903031611 | 83 | 86 | 1.0 | 4.0 | 0.00 | 0.00 | 0.00 | 87 | 1013.2 |
| 20260903031536 | 83 | 107 | 1.0 | 4.0 | 0.00 | 0.00 | 0.00 | 87 | 1013.2 |
| 20260903031436 | 83 | 92 | 1.0 | 4.0 | 0.00 | 0.00 | 0.00 | 87 | 1013.2 |
| 20260903031336 | 83 | 0 | 1.0 | 4.0 | 0.00 | 0.00 | 0.00 | 87 | 1013.2 |
| 20260903031233 | 84 | 85 | 1.0 | 4.0 | 0.00 | 0.00 | 0.00 | 87 | 1013.1 |
| 20260903031133 | 84 | 268 | 1.0 | 4.0 | 0.00 | 0.00 | 0.00 | 87 | 1013.1 |
| 20260903031111 | 84 | 57 | 1.0 | 4.0 | 0.00 | 0.00 | 0.00 | 87 | 1013.1 |
| 20260903031034 | 84 | 72 | 1.0 | 4.0 | 0.00 | 0.00 | 0.00 | 87 | 1013.1 |
| 20260903030933 | 84 | 0 | 1.0 | 4.0 | 0.00 | 0.00 | 0.00 | 87 | 1013.1 |
| 20260903030834 | 84 | 83 | 1.0 | 4.0 | 0.00 | 0.00 | 0.00 | 87 | 1013.1 |
| 20260903030733 | 84 | 69 | 1.0 | 5.0 | 0.00 | 0.00 | 0.00 | 87 | 1013.1 |
| 20260903030633 | 84 | 108 | 1.0 | 5.0 | 0.00 | 0.00 | 0.00 | 87 | 1013.1 |
| 20260903030610 | 84 | 171 | 1.0 | 5.0 | 0.00 | 0.00 | 0.00 | 87 | 1013.1 |
| 20260903030533 | 84 | 81 | 1.0 | 5.0 | 0.00 | 0.00 | 0.00 | 87 | 1013.0 |
| 20260903030433 | 84 | 87 | 1.0 | 5.0 | 0.00 | 0.00 | 0.00 | 87 | 1013.0 |
| 20260903030331 | 84 | 42 | 1.0 | 5.0 | 0.00 | 0.00 | 0.00 | 87 | 1013.0 |
| 20260903030231 | 84 | 51 | 1.0 | 5.0 | 0.00 | 0.00 | 0.00 | 87 | 1013.0 |
| 20260903030130 | 84 | 0 | 1.0 | 5.0 | 0.00 | 0.00 | 0.00 | 87 | 1013.0 |
| 20260903030108 | 84 | 255 | 1.0 | 5.0 | 0.00 | 0.00 | 0.00 | 87 | 1013.0 |
| 20260903030031 | 84 | 93 | 1.0 | 5.0 | 0.00 | 0.00 | 0.00 | 87 | 1013.0 |
| 20260903025931 | 84 | 39 | 1.0 | 5.0 | 0.00 | 0.00 | 0.00 | 87 | 1012.9 |
| 20260903025830 | 84 | 0 | 1.0 | 5.0 | 0.00 | 0.00 | 0.00 | 87 | 1012.9 |
| 20260903025731 | 84 | 292 | 2.0 | 5.0 | 0.00 | 0.00 | 0.00 | 87 | 1012.9 |
| 20260903025631 | 84 | 114 | 1.0 | 4.0 | 0.00 | 0.00 | 0.00 | 87 | 1012.8 |
| 20260903025608 | 84 | 87 | 1.0 | 4.0 | 0.00 | 0.00 | 0.00 | 87 | 1012.8 |
| 20260903025531 | 84 | 0 | 1.0 | 4.0 | 0.00 | 0.00 | 0.00 | 87 | 1012.8 |
| 20260903025430 | 84 | 42 | 1.0 | 4.0 | 0.00 | 0.00 | 0.00 | 87 | 1012.8 |
| 20260903025331 | 84 | 0 | 2.0 | 5.0 | 0.00 | 0.00 | 0.00 | 87 | 1012.8 |
| 20260903025227 | 84 | 231 | 2.0 | 5.0 | 0.00 | 0.00 | 0.00 | 87 | 1012.8 |
| 20260903025125 | 84 | 15 | 2.0 | 5.0 | 0.00 | 0.00 | 0.00 | 87 | 1012.8 |
| 20260903025108 | 84 | 144 | 2.0 | 5.0 | 0.00 | 0.00 | 0.00 | 87 | 1012.8 |
| 20260903025025 | 84 | 223 | 2.0 | 5.0 | 0.00 | 0.00 | 0.00 | 87 | 1012.8 |
| 20260903024923 | 84 | 262 | 2.0 | 5.0 | 0.00 | 0.00 | 0.00 | 87 | 1012.7 |
| 20260903024822 | 84 | 113 | 2.0 | 5.0 | 0.00 | 0.00 | 0.00 | 87 | 1012.8 |
| 20260903024719 | 84 | 106 | 2.0 | 5.0 | 0.00 | 0.00 | 0.00 | 87 | 1012.8 |
| 20260903024619 | 84 | 14 | 2.0 | 5.0 | 0.00 | 0.00 | 0.00 | 87 | 1012.8 |
| 20260903024606 | 84 | 66 | 2.0 | 5.0 | 0.00 | 0.00 | 0.00 | 87 | 1012.8 |
| 20260903024519 | 84 | 114 | 2.0 | 6.0 | 0.00 | 0.00 | 0.00 | 87 | 1012.8 |
| 20260903024416 | 84 | 146 | 2.0 | 6.0 | 0.00 | 0.00 | 0.00 | 87 | 1012.8 |
| 20260903024313 | 84 | 79 | 2.0 | 6.0 | 0.00 | 0.00 | 0.00 | 87 | 1012.8 |
| 20260903024210 | 84 | 98 | 2.0 | 6.0 | 0.00 | 0.00 | 0.00 | 87 | 1012.8 |
| 20260903024107 | 84 | 145 | 2.0 | 6.0 | 0.00 | 0.00 | 0.00 | 87 | 1012.8 |
| 20260903024004 | 84 | 125 | 2.0 | 6.0 | 0.00 | 0.00 | 0.00 | 87 | 1012.8 |
| 20260903023858 | 84 | 100 | 2.0 | 6.0 | 0.00 | 0.00 | 0.00 | 87 | 1012.8 |
| 20260903023755 | 84 | 82 | 2.0 | 6.0 | 0.00 | 0.00 | 0.00 | 87 | 1012.8 |
| 20260903023655 | 84 | 111 | 2.0 | 6.0 | 0.00 | 0.00 | 0.00 | 87 | 1012.8 |
| 20260903023602 | 84 | 103 | 2.0 | 6.0 | 0.00 | 0.00 | 0.00 | 87 | 1012.8 |
| 20260903023555 | 84 | 148 | 2.0 | 6.0 | 0.00 | 0.00 | 0.00 | 87 | 1012.8 |
| 20260903023455 | 84 | 83 | 2.0 | 6.0 | 0.00 | 0.00 | 0.00 | 87 | 1012.8 |
| 20260903023355 | 84 | 101 | 2.0 | 6.0 | 0.00 | 0.00 | 0.00 | 87 | 1012.8 |
| 20260903023255 | 84 | 109 | 2.0 | 5.0 | 0.00 | 0.00 | 0.00 | 87 | 1012.8 |
| 20260903023155 | 84 | 38 | 2.0 | 5.0 | 0.00 | 0.00 | 0.00 | 87 | 1012.8 |
| 20260903023102 | 84 | 0 | 2.0 | 5.0 | 0.00 | 0.00 | 0.00 | 87 | 1012.8 |
| 20260903023052 | 84 | 85 | 2.0 | 5.0 | 0.00 | 0.00 | 0.00 | 87 | 1012.8 |
| 20260903022949 | 84 | 111 | 2.0 | 5.0 | 0.00 | 0.00 | 0.00 | 87 | 1012.7 |
| 20260903022849 | 84 | 82 | 2.0 | 5.0 | 0.00 | 0.00 | 0.00 | 87 | 1012.7 |
| 20260903022743 | 84 | 75 | 2.0 | 5.0 | 0.00 | 0.00 | 0.00 | 87 | 1012.6 |
| 20260903022643 | 84 | 136 | 2.0 | 5.0 | 0.00 | 0.00 | 0.00 | 87 | 1012.6 |
| 20260903022553 | 84 | 116 | 2.0 | 5.0 | 0.00 | 0.00 | 0.00 | 87 | 1012.6 |
| 20260903022544 | 84 | 58 | 2.0 | 5.0 | 0.00 | 0.00 | 0.00 | 87 | 1012.6 |
| 20260903022443 | 84 | 27 | 2.0 | 5.0 | 0.00 | 0.00 | 0.00 | 87 | 1012.6 |
| 20260903022343 | 84 | 68 | 2.0 | 6.0 | 0.00 | 0.00 | 0.00 | 87 | 1012.6 |
| 20260903022243 | 84 | 79 | 2.0 | 6.0 | 0.00 | 0.00 | 0.00 | 87 | 1012.6 |
| 20260903022144 | 84 | 71 | 2.0 | 6.0 | 0.00 | 0.00 | 0.00 | 87 | 1012.5 |
| 20260903022054 | 84 | 118 | 2.0 | 6.0 | 0.00 | 0.00 | 0.00 | 87 | 1012.5 |
| 20260903022043 | 84 | 122 | 2.0 | 6.0 | 0.00 | 0.00 | 0.00 | 87 | 1012.5 |
| 20260903021940 | 84 | 29 | 2.0 | 6.0 | 0.00 | 0.00 | 0.00 | 87 | 1012.5 |
| 20260903021840 | 84 | 214 | 2.0 | 6.0 | 0.00 | 0.00 | 0.00 | 87 | 1012.4 |
| 20260903021740 | 84 | 176 | 2.0 | 6.0 | 0.00 | 0.00 | 0.00 | 87 | 1012.5 |
| 20260903021634 | 84 | 104 | 2.0 | 6.0 | 0.00 | 0.00 | 0.00 | 87 | 1012.5 |
| 20260903021545 | 84 | 151 | 2.0 | 6.0 | 0.00 | 0.00 | 0.00 | 87 | 1012.5 |
| 20260903021534 | 84 | 79 | 2.0 | 6.0 | 0.00 | 0.00 | 0.00 | 87 | 1012.5 |
| 20260903021432 | 84 | 143 | 2.0 | 7.0 | 0.00 | 0.00 | 0.00 | 87 | 1012.5 |
| 20260903021331 | 84 | 146 | 2.0 | 7.0 | 0.00 | 0.00 | 0.00 | 87 | 1012.5 |
| 20260903021216 | 84 | 17 | 2.0 | 7.0 | 0.00 | 0.00 | 0.00 | 87 | 1012.5 |
| 20260903021110 | 84 | 261 | 2.0 | 7.0 | 0.00 | 0.00 | 0.00 | 87 | 1012.5 |
| 20260903021045 | 84 | 134 | 2.0 | 7.0 | 0.00 | 0.00 | 0.00 | 87 | 1012.5 |
| 20260903021011 | 84 | 73 | 2.0 | 7.0 | 0.00 | 0.00 | 0.00 | 87 | 1012.5 |
| 20260903020910 | 84 | 129 | 2.0 | 7.0 | 0.00 | 0.00 | 0.00 | 87 | 1012.5 |
| 20260903020807 | 84 | 98 | 2.0 | 7.0 | 0.00 | 0.00 | 0.00 | 88 | 1012.4 |
| 20260903020758 | 84 | 80 | 2.0 | 7.0 | 0.00 | 0.00 | 0.00 | 88 | 1012.5 |
| 20260903020656 | 84 | 125 | 2.0 | 7.0 | 0.00 | 0.00 | 0.00 | 88 | 1012.4 |
| 20260903020651 | 84 | 97 | 2.0 | 7.0 | 0.00 | 0.00 | 0.00 | 88 | 1012.4 |
| 20260903020452 | 84 | 91 | 2.0 | 7.0 | 0.00 | 0.00 | 0.00 | 88 | 1012.4 |
| 20260903020353 | 84 | 92 | 2.0 | 6.0 | 0.00 | 0.00 | 0.00 | 88 | 1012.4 |
| 20260903020253 | 84 | 94 | 2.0 | 6.0 | 0.00 | 0.00 | 0.00 | 88 | 1012.4 |
| 20260903020152 | 84 | 100 | 2.0 | 5.0 | 0.00 | 0.00 | 0.00 | 88 | 1012.4 |
| 20260903020050 | 84 | 29 | 2.0 | 5.0 | 0.00 | 0.00 | 0.00 | 88 | 1012.4 |
| 20260903020039 | 84 | 78 | 2.0 | 5.0 | 0.00 | 0.00 | 0.00 | 88 | 1012.4 |
| 20260903015946 | 84 | 132 | 2.0 | 5.0 | 0.00 | 0.00 | 0.00 | 88 | 1012.4 |
| 20260903015846 | 84 | 198 | 2.0 | 5.0 | 0.00 | 0.00 | 0.00 | 88 | 1012.4 |
| 20260903015746 | 84 | 76 | 2.0 | 5.0 | 0.00 | 0.00 | 0.00 | 88 | 1012.5 |
| 20260903015646 | 84 | 117 | 2.0 | 5.0 | 0.00 | 0.00 | 0.00 | 88 | 1012.5 |
| 20260903015541 | 84 | 66 | 2.0 | 5.0 | 0.00 | 0.00 | 0.00 | 88 | 1012.5 |
| 20260903015437 | 84 | 97 | 2.0 | 5.0 | 0.00 | 0.00 | 0.00 | 88 | 1012.4 |
| 20260903015331 | 84 | 119 | 2.0 | 5.0 | 0.00 | 0.00 | 0.00 | 88 | 1012.4 |
| 20260903015231 | 84 | 228 | 1.0 | 5.0 | 0.00 | 0.00 | 0.00 | 88 | 1012.4 |
| 20260903015132 | 84 | 69 | 1.0 | 5.0 | 0.00 | 0.00 | 0.00 | 88 | 1012.4 |
| 20260903015031 | 84 | 317 | 1.0 | 4.0 | 0.00 | 0.00 | 0.00 | 88 | 1012.4 |
| 20260903014931 | 84 | 68 | 1.0 | 4.0 | 0.00 | 0.00 | 0.00 | 88 | 1012.4 |
| 20260903014828 | 84 | 135 | 1.0 | 4.0 | 0.00 | 0.00 | 0.00 | 88 | 1012.4 |
| 20260903014723 | 84 | 92 | 1.0 | 4.0 | 0.00 | 0.00 | 0.00 | 88 | 1012.4 |
| 20260903014620 | 84 | 113 | 1.0 | 4.0 | 0.00 | 0.00 | 0.00 | 88 | 1012.4 |
| 20260903014534 | 84 | 114 | 1.0 | 4.0 | 0.00 | 0.00 | 0.00 | 88 | 1012.4 |
| 20260903014520 | 84 | 94 | 1.0 | 4.0 | 0.00 | 0.00 | 0.00 | 88 | 1012.4 |
| 20260903014420 | 84 | 220 | 1.0 | 4.0 | 0.00 | 0.00 | 0.00 | 88 | 1012.4 |
| 20260903014320 | 84 | 86 | 1.0 | 4.0 | 0.00 | 0.00 | 0.00 | 88 | 1012.4 |
| 20260903014219 | 84 | 0 | 1.0 | 4.0 | 0.00 | 0.00 | 0.00 | 88 | 1012.4 |
| 20260903014119 | 84 | 0 | 1.0 | 4.0 | 0.00 | 0.00 | 0.00 | 88 | 1012.4 |
| 20260903014030 | 84 | 90 | 1.0 | 4.0 | 0.00 | 0.00 | 0.00 | 88 | 1012.5 |
| 20260903014019 | 84 | 159 | 1.0 | 4.0 | 0.00 | 0.00 | 0.00 | 88 | 1012.5 |
| 20260903013919 | 84 | 129 | 1.0 | 4.0 | 0.00 | 0.00 | 0.00 | 88 | 1012.5 |
| 20260903013819 | 84 | 166 | 1.0 | 4.0 | 0.00 | 0.00 | 0.00 | 88 | 1012.5 |
| 20260903013720 | 84 | 44 | 1.0 | 4.0 | 0.00 | 0.00 | 0.00 | 88 | 1012.5 |
| 20260903013620 | 84 | 357 | 1.0 | 4.0 | 0.00 | 0.00 | 0.00 | 88 | 1012.5 |
| 20260903013522 | 84 | 119 | 1.0 | 4.0 | 0.00 | 0.00 | 0.00 | 88 | 1012.4 |
| 20260903013517 | 84 | 73 | 1.0 | 4.0 | 0.00 | 0.00 | 0.00 | 88 | 1012.4 |
| 20260903013414 | 84 | 165 | 1.0 | 4.0 | 0.00 | 0.00 | 0.00 | 87 | 1012.4 |
| 20260903013314 | 84 | 115 | 1.0 | 4.0 | 0.00 | 0.00 | 0.00 | 87 | 1012.4 |
| 20260903013238 | 84 | 269 | 2.0 | 4.0 | 0.00 | 0.00 | 0.00 | 87 | 1012.3 |
| 20260903013214 | 84 | 281 | 1.0 | 4.0 | 0.00 | 0.00 | 0.00 | 87 | 1012.4 |
| 20260903013127 | 84 | 39 | 2.0 | 4.0 | 0.00 | 0.00 | 0.00 | 87 | 1012.4 |
| 20260903013011 | 84 | 79 | 2.0 | 4.0 | 0.00 | 0.00 | 0.00 | 87 | 1012.3 |
| 20260903012911 | 84 | 79 | 2.0 | 4.0 | 0.00 | 0.00 | 0.00 | 87 | 1012.3 |
| 20260903012811 | 84 | 198 | 2.0 | 5.0 | 0.00 | 0.00 | 0.00 | 87 | 1012.3 |
| 20260903012708 | 84 | 50 | 2.0 | 5.0 | 0.00 | 0.00 | 0.00 | 87 | 1012.3 |
| 20260903012608 | 84 | 109 | 2.0 | 5.0 | 0.00 | 0.00 | 0.00 | 87 | 1012.3 |
| 20260903012519 | 84 | 41 | 2.0 | 5.0 | 0.00 | 0.00 | 0.00 | 87 | 1012.3 |
| 20260903012507 | 84 | 147 | 2.0 | 5.0 | 0.00 | 0.00 | 0.00 | 87 | 1012.3 |
| 20260903012405 | 84 | 201 | 2.0 | 5.0 | 0.00 | 0.00 | 0.00 | 87 | 1012.3 |
| 20260903012306 | 84 | 161 | 2.0 | 5.0 | 0.00 | 0.00 | 0.00 | 87 | 1012.2 |
| 20260903012205 | 84 | 118 | 2.0 | 5.0 | 0.00 | 0.00 | 0.00 | 87 | 1012.2 |
| 20260903012102 | 84 | 79 | 2.0 | 6.0 | 0.00 | 0.00 | 0.00 | 87 | 1012.2 |
| 20260903012013 | 84 | 94 | 2.0 | 6.0 | 0.00 | 0.00 | 0.00 | 87 | 1012.2 |
| 20260903012002 | 84 | 128 | 2.0 | 6.0 | 0.00 | 0.00 | 0.00 | 87 | 1012.2 |
| 20260903011902 | 84 | 154 | 1.0 | 6.0 | 0.00 | 0.00 | 0.00 | 87 | 1012.2 |
| 20260903011802 | 84 | 76 | 1.0 | 6.0 | 0.00 | 0.00 | 0.00 | 87 | 1012.2 |
| 20260903011659 | 84 | 90 | 1.0 | 6.0 | 0.00 | 0.00 | 0.00 | 87 | 1012.2 |
| 20260903011559 | 84 | 0 | 1.0 | 6.0 | 0.00 | 0.00 | 0.00 | 87 | 1012.2 |
| 20260903011513 | 84 | 107 | 1.0 | 6.0 | 0.00 | 0.00 | 0.00 | 86 | 1012.2 |
| 20260903011456 | 84 | 92 | 1.0 | 6.0 | 0.00 | 0.00 | 0.00 | 86 | 1012.2 |
| 20260903011356 | 84 | 0 | 1.0 | 6.0 | 0.00 | 0.00 | 0.00 | 86 | 1012.2 |
| 20260903011253 | 84 | 119 | 1.0 | 6.0 | 0.00 | 0.00 | 0.00 | 86 | 1012.2 |
| 20260903011150 | 84 | 349 | 1.0 | 6.0 | 0.00 | 0.00 | 0.00 | 86 | 1012.2 |
| 20260903011050 | 85 | 286 | 1.0 | 5.0 | 0.00 | 0.00 | 0.00 | 86 | 1012.2 |
| 20260903011013 | 85 | 37 | 1.0 | 5.0 | 0.00 | 0.00 | 0.00 | 86 | 1012.2 |
| 20260903010951 | 85 | 4 | 1.0 | 5.0 | 0.00 | 0.00 | 0.00 | 86 | 1012.2 |
| 20260903010844 | 85 | 120 | 2.0 | 5.0 | 0.00 | 0.00 | 0.00 | 86 | 1012.1 |
| 20260903010744 | 85 | 166 | 2.0 | 5.0 | 0.00 | 0.00 | 0.00 | 86 | 1012.1 |
| 20260903010645 | 85 | 165 | 2.0 | 5.0 | 0.00 | 0.00 | 0.00 | 86 | 1012.1 |
| 20260903010545 | 85 | 248 | 2.0 | 5.0 | 0.00 | 0.00 | 0.00 | 86 | 1012.1 |
| 20260903010510 | 85 | 85 | 2.0 | 5.0 | 0.00 | 0.00 | 0.00 | 86 | 1012.1 |
| 20260903010444 | 85 | 98 | 2.0 | 5.0 | 0.00 | 0.00 | 0.00 | 86 | 1012.0 |
| 20260903010344 | 85 | 323 | 2.0 | 5.0 | 0.00 | 0.00 | 0.00 | 86 | 1012.0 |
| 20260903010241 | 85 | 348 | 2.0 | 5.0 | 0.00 | 0.00 | 0.00 | 86 | 1012.0 |
| 20260903010232 | 85 | 148 | 2.0 | 5.0 | 0.00 | 0.00 | 0.00 | 85 | 1012.0 |
| 20260903010141 | 85 | 83 | 2.0 | 5.0 | 0.00 | 0.00 | 0.00 | 85 | 1012.0 |
| 20260903010116 | 85 | 98 | 2.0 | 5.0 | 0.00 | 0.00 | 0.00 | 85 | 1012.0 |
| 20260903005952 | 85 | 148 | 2.0 | 5.0 | 0.00 | 0.00 | 0.00 | 84 | 1012.1 |
| 20260903005938 | 85 | 68 | 2.0 | 5.0 | 0.00 | 0.00 | 0.00 | 85 | 1012.0 |
| 20260903005840 | 85 | 2 | 2.0 | 5.0 | 0.00 | 0.00 | 0.00 | 85 | 1012.0 |
| 20260903005835 | 85 | 70 | 2.0 | 5.0 | 0.00 | 0.00 | 0.00 | 85 | 1012.1 |
| 20260903005635 | 85 | 187 | 2.0 | 5.0 | 0.00 | 0.00 | 0.00 | 84 | 1012.1 |
| 20260903005612 | 85 | 170 | 2.0 | 5.0 | 0.00 | 0.00 | 0.00 | 84 | 1012.1 |
| 20260903005436 | 85 | 85 | 2.0 | 5.0 | 0.00 | 0.00 | 0.00 | 84 | 1012.1 |
| 20260903005335 | 85 | 104 | 2.0 | 5.0 | 0.00 | 0.00 | 0.00 | 84 | 1012.1 |
| 20260903005237 | 85 | 110 | 2.0 | 5.0 | 0.00 | 0.00 | 0.00 | 84 | 1012.2 |
| 20260903005130 | 85 | 248 | 2.0 | 5.0 | 0.00 | 0.00 | 0.00 | 84 | 1012.2 |
| 20260903005029 | 85 | 196 | 2.0 | 5.0 | 0.00 | 0.00 | 0.00 | 84 | 1012.2 |
| 20260903005007 | 85 | 167 | 2.0 | 5.0 | 0.00 | 0.00 | 0.00 | 84 | 1012.2 |
| 20260903004927 | 85 | 84 | 2.0 | 4.0 | 0.00 | 0.00 | 0.00 | 84 | 1012.2 |
| 20260903004826 | 85 | 261 | 2.0 | 4.0 | 0.00 | 0.00 | 0.00 | 83 | 1012.3 |
| 20260903004726 | 85 | 56 | 2.0 | 8.0 | 0.00 | 0.00 | 0.00 | 83 | 1012.3 |
| 20260903004626 | 85 | 77 | 2.0 | 8.0 | 0.00 | 0.00 | 0.00 | 83 | 1012.3 |
| 20260903004523 | 85 | 106 | 2.0 | 8.0 | 0.00 | 0.00 | 0.00 | 83 | 1012.3 |
| 20260903004501 | 85 | 211 | 2.0 | 8.0 | 0.00 | 0.00 | 0.00 | 83 | 1012.3 |
| 20260903004423 | 85 | 85 | 2.0 | 8.0 | 0.00 | 0.00 | 0.00 | 83 | 1012.2 |
| 20260903004320 | 85 | 268 | 2.0 | 8.0 | 0.00 | 0.00 | 0.00 | 83 | 1012.2 |
| 20260903004218 | 85 | 132 | 2.0 | 8.0 | 0.00 | 0.00 | 0.00 | 83 | 1012.2 |
| 20260903004117 | 85 | 141 | 2.0 | 8.0 | 0.00 | 0.00 | 0.00 | 83 | 1012.2 |
| 20260903004014 | 85 | 86 | 2.0 | 8.0 | 0.00 | 0.00 | 0.00 | 82 | 1012.2 |
| 20260903004001 | 85 | 33 | 2.0 | 8.0 | 0.00 | 0.00 | 0.00 | 82 | 1012.2 |
| 20260903003914 | 85 | 317 | 2.0 | 8.0 | 0.00 | 0.00 | 0.00 | 82 | 1012.2 |
| 20260903003814 | 85 | 176 | 2.0 | 8.0 | 0.00 | 0.00 | 0.00 | 82 | 1012.2 |
| 20260903003727 | 86 | 143 | 2.0 | 6.0 | 0.00 | 0.00 | 0.00 | 81 | 1012.0 |
| 20260903003711 | 85 | 86 | 2.0 | 8.0 | 0.00 | 0.00 | 0.00 | 82 | 1012.1 |
| 20260903003613 | 86 | 78 | 2.0 | 6.0 | 0.00 | 0.00 | 0.00 | 81 | 1012.0 |
| 20260903003607 | 86 | 149 | 2.0 | 6.0 | 0.00 | 0.00 | 0.00 | 81 | 1012.0 |
| 20260903003414 | 86 | 141 | 2.0 | 6.0 | 0.00 | 0.00 | 0.00 | 81 | 1012.0 |
| 20260903003257 | 86 | 85 | 2.0 | 6.0 | 0.00 | 0.00 | 0.00 | 81 | 1012.0 |
| 20260903003130 | 86 | 257 | 2.0 | 6.0 | 0.00 | 0.00 | 0.00 | 81 | 1012.0 |
| 20260903003024 | 86 | 167 | 2.0 | 6.0 | 0.00 | 0.00 | 0.00 | 81 | 1012.0 |
| 20260903002943 | 86 | 104 | 2.0 | 6.0 | 0.00 | 0.00 | 0.00 | 81 | 1011.9 |
| 20260903002924 | 86 | 90 | 2.0 | 6.0 | 0.00 | 0.00 | 0.00 | 81 | 1011.9 |
| 20260903002822 | 86 | 75 | 2.0 | 6.0 | 0.00 | 0.00 | 0.00 | 81 | 1011.9 |
| 20260903002715 | 86 | 146 | 2.0 | 6.0 | 0.00 | 0.00 | 0.00 | 80 | 1011.6 |
| 20260903002619 | 86 | 0 | 2.0 | 6.0 | 0.00 | 0.00 | 0.00 | 80 | 1011.6 |
| 20260903002509 | 86 | 49 | 2.0 | 6.0 | 0.00 | 0.00 | 0.00 | 80 | 1011.6 |
| 20260903002443 | 86 | 72 | 2.0 | 6.0 | 0.00 | 0.00 | 0.00 | 80 | 1011.6 |
| 20260903002409 | 86 | 82 | 1.0 | 6.0 | 0.00 | 0.00 | 0.00 | 80 | 1011.6 |
| 20260903002306 | 86 | 163 | 2.0 | 6.0 | 0.00 | 0.00 | 0.00 | 80 | 1011.6 |
| 20260903002157 | 86 | 182 | 2.0 | 6.0 | 0.00 | 0.00 | 0.00 | 79 | 1011.5 |
| 20260903002030 | 86 | 76 | 2.0 | 6.0 | 0.00 | 0.00 | 0.00 | 79 | 1011.5 |
| 20260903001943 | 86 | 134 | 2.0 | 6.0 | 0.00 | 0.00 | 0.00 | 79 | 1011.4 |
| 20260903001939 | 86 | 6 | 2.0 | 6.0 | 0.00 | 0.00 | 0.00 | 79 | 1011.4 |
| 20260903001909 | 86 | 134 | 2.0 | 6.0 | 0.00 | 0.00 | 0.00 | 79 | 1011.4 |
| 20260903001730 | 87 | 289 | 2.0 | 6.0 | 0.00 | 0.00 | 0.00 | 78 | 1011.4 |
| 20260903001629 | 87 | 179 | 2.0 | 6.0 | 0.00 | 0.00 | 0.00 | 78 | 1011.4 |
| 20260903001529 | 87 | 211 | 2.0 | 6.0 | 0.00 | 0.00 | 0.00 | 78 | 1011.4 |
| 20260903001435 | 87 | 29 | 2.0 | 6.0 | 0.00 | 0.00 | 0.00 | 78 | 1011.4 |
| 20260903001425 | 87 | 54 | 2.0 | 6.0 | 0.00 | 0.00 | 0.00 | 78 | 1011.4 |
| 20260903001420 | 87 | 273 | 2.0 | 6.0 | 0.00 | 0.00 | 0.00 | 78 | 1011.4 |
| 20260903001325 | 87 | 127 | 2.0 | 6.0 | 0.00 | 0.00 | 0.00 | 78 | 1011.4 |
| 20260903001302 | 87 | 90 | 2.0 | 6.0 | 0.00 | 0.00 | 0.00 | 78 | 1011.4 |
| 20260903001117 | 87 | 72 | 2.0 | 6.0 | 0.00 | 0.00 | 0.00 | 78 | 1011.4 |
| 20260903001040 | 87 | 41 | 2.0 | 6.0 | 0.00 | 0.00 | 0.00 | 78 | 1011.4 |
| 20260903000909 | 87 | 168 | 2.0 | 6.0 | 0.00 | 0.00 | 0.00 | 78 | 1011.4 |
| 20260903000809 | 0 | 112 | 2.0 | 6.0 | 0.00 | 0.00 | 0.00 | ||
| 20260903000703 | 87 | 166 | 2.0 | 7.0 | 0.00 | 0.00 | 0.00 | 76 | 1011.5 |
| 20260903000657 | 87 | 90 | 2.0 | 7.0 | 0.00 | 0.00 | 0.00 | 76 | 1011.5 |
| 20260903000557 | 87 | 225 | 2.0 | 7.0 | 0.00 | 0.00 | 0.00 | 76 | 1011.5 |
| 20260903000548 | 87 | 132 | 2.0 | 7.0 | 0.00 | 0.00 | 0.00 | 76 | 1011.5 |
| 20260903000337 | 87 | 88 | 3.0 | 7.0 | 0.00 | 0.00 | 0.00 | 76 | 1011.5 |
| 20260903000227 | 87 | 357 | 3.0 | 7.0 | 0.00 | 0.00 | 0.00 | 76 | 1011.5 |
| 20260903000124 | 87 | 159 | 3.0 | 7.0 | 0.00 | 0.00 | 0.00 | 76 | 1011.5 |
| 20260903000031 | 87 | 54 | 3.0 | 7.0 | 0.00 | 0.00 | 0.00 | 76 | 1011.5 |
| 20260902235932 | 87 | 154 | 3.0 | 7.0 | 0.00 | 0.00 | 0.00 | 76 | 1011.5 |
| 20260902235910 | 87 | 153 | 2.0 | 7.0 | 0.00 | 0.00 | 0.00 | 76 | 1011.5 |
| 20260902235810 | 87 | 144 | 2.0 | 7.0 | 0.00 | 0.00 | 0.00 | 76 | 1011.5 |
| 20260902235709 | 87 | 162 | 2.0 | 5.0 | 0.00 | 0.00 | 0.00 | 75 | 1011.5 |
| 20260902235609 | 87 | 38 | 2.0 | 5.0 | 0.00 | 0.00 | 0.00 | 75 | 1011.5 |
| 20260902235504 | 0 | 147 | 2.0 | 6.0 | 0.00 | 0.00 | 0.00 | ||
| 20260902235426 | 88 | 159 | 2.0 | 6.0 | 0.00 | 0.00 | 0.00 | 74 | 1011.5 |
| 20260902235403 | 88 | 141 | 2.0 | 6.0 | 0.00 | 0.00 | 0.00 | 74 | 1011.5 |
| 20260902235308 | 88 | 5 | 2.0 | 6.0 | 0.00 | 0.00 | 0.00 | 74 | 1011.5 |
| 20260902235155 | 88 | 127 | 2.0 | 6.0 | 0.00 | 0.00 | 0.00 | 74 | 1011.5 |
| 20260902235149 | 88 | 172 | 2.0 | 6.0 | 0.00 | 0.00 | 0.00 | 74 | 1011.5 |
| 20260902235144 | 88 | 111 | 2.0 | 6.0 | 0.00 | 0.00 | 0.00 | 74 | 1011.5 |
| 20260902235138 | 88 | 130 | 2.0 | 6.0 | 0.00 | 0.00 | 0.00 | 74 | 1011.5 |
| 20260902235133 | 88 | 130 | 2.0 | 6.0 | 0.00 | 0.00 | 0.00 | 74 | 1011.5 |
| 20260902234733 | 88 | 88 | 2.0 | 6.0 | 0.00 | 0.00 | 0.00 | 74 | 1011.5 |
| 20260902234621 | 88 | 9 | 2.0 | 6.0 | 0.00 | 0.00 | 0.00 | 74 | 1011.5 |
| 20260902234521 | 88 | 102 | 2.0 | 6.0 | 0.00 | 0.00 | 0.00 | 74 | 1011.5 |
| 20260902234410 | 0 | 84 | 2.0 | 5.0 | 0.00 | 0.00 | 0.00 | ||
| 20260902234310 | 0 | 182 | 2.0 | 5.0 | 0.00 | 0.00 | 0.00 | ||
| 20260902234146 | 0 | 82 | 2.0 | 5.0 | 0.00 | 0.00 | 0.00 | ||
| 20260902234133 | 89 | 97 | 2.0 | 5.0 | 0.00 | 0.00 | 0.00 | 71 | 1011.5 |
| 20260902234042 | 0 | 166 | 2.0 | 5.0 | 0.00 | 0.00 | 0.00 | ||
| 20260902234017 | 89 | 66 | 2.0 | 5.0 | 0.00 | 0.00 | 0.00 | 71 | 1011.5 |
| 20260902233843 | 89 | 316 | 2.0 | 5.0 | 0.00 | 0.00 | 0.00 | 71 | 1011.5 |
| 20260902233736 | 89 | 296 | 2.0 | 5.0 | 0.00 | 0.00 | 0.00 | 71 | 1011.5 |
| 20260902233639 | 89 | 179 | 2.0 | 8.0 | 0.00 | 0.00 | 0.00 | 71 | 1011.5 |
| 20260902233628 | 89 | 173 | 2.0 | 8.0 | 0.00 | 0.00 | 0.00 | 71 | 1011.5 |
| 20260902233516 | 89 | 165 | 2.0 | 8.0 | 0.00 | 0.00 | 0.00 | 71 | 1011.5 |
| 20260902233349 | 89 | 93 | 2.0 | 8.0 | 0.00 | 0.00 | 0.00 | 71 | 1011.5 |
| 20260902233213 | 89 | 186 | 2.0 | 8.0 | 0.00 | 0.00 | 0.00 | 71 | 1011.5 |
| 20260902233042 | 89 | 201 | 2.0 | 8.0 | 0.00 | 0.00 | 0.00 | 71 | 1011.5 |
| 20260902232905 | 89 | 197 | 2.0 | 8.0 | 0.00 | 0.00 | 0.00 | 69 | 1011.5 |
| 20260902232854 | 89 | 254 | 2.0 | 8.0 | 0.00 | 0.00 | 0.00 | 69 | 1011.5 |
| 20260902232751 | 89 | 253 | 2.0 | 8.0 | 0.00 | 0.00 | 0.00 | 69 | 1011.5 |
| 20260902232640 | 89 | 151 | 2.0 | 6.0 | 0.00 | 0.00 | 0.00 | 69 | 1011.5 |
| 20260902232540 | 89 | 212 | 2.0 | 6.0 | 0.00 | 0.00 | 0.00 | 69 | 1011.5 |
| 20260902232439 | 89 | 89 | 2.0 | 6.0 | 0.00 | 0.00 | 0.00 | 69 | 1011.5 |
| 20260902232405 | 89 | 171 | 2.0 | 6.0 | 0.00 | 0.00 | 0.00 | 69 | 1011.5 |
| 20260902232337 | 90 | 135 | 2.0 | 6.0 | 0.00 | 0.00 | 0.00 | 68 | 1011.6 |
| 20260902232234 | 90 | 196 | 2.0 | 6.0 | 0.00 | 0.00 | 0.00 | 68 | 1011.6 |
| 20260902232121 | 90 | 73 | 2.0 | 6.0 | 0.00 | 0.00 | 0.00 | 68 | 1011.6 |
| 20260902232009 | 0 | 59 | 2.0 | 6.0 | 0.00 | 0.00 | 0.00 | ||
| 20260902231909 | 0 | 122 | 2.0 | 6.0 | 0.00 | 0.00 | 0.00 | ||
| 20260902231903 | 0 | 96 | 2.0 | 6.0 | 0.00 | 0.00 | 0.00 | ||
| 20260902231807 | 91 | 118 | 3.0 | 6.0 | 0.00 | 0.00 | 0.00 | 64 | 1011.4 |
| 20260902231701 | 91 | 268 | 3.0 | 6.0 | 0.00 | 0.00 | 0.00 | 64 | 1011.4 |
| 20260902231619 | 91 | 161 | 2.0 | 5.0 | 0.00 | 0.00 | 0.00 | 64 | 1011.4 |
| 20260902231601 | 91 | 23 | 2.0 | 5.0 | 0.00 | 0.00 | 0.00 | 64 | 1011.4 |
| 20260902231510 | 91 | 25 | 2.0 | 5.0 | 0.00 | 0.00 | 0.00 | 64 | 1011.4 |
| 20260902231505 | 91 | 161 | 2.0 | 5.0 | 0.00 | 0.00 | 0.00 | 64 | 1011.4 |
| 20260902231259 | 91 | 145 | 2.0 | 5.0 | 0.00 | 0.00 | 0.00 | 64 | 1011.4 |
| 20260902231149 | 91 | 214 | 2.0 | 8.0 | 0.00 | 0.00 | 0.00 | 64 | 1011.4 |
| 20260902231046 | 91 | 177 | 2.0 | 8.0 | 0.00 | 0.00 | 0.00 | 64 | 1011.4 |
| 20260902230946 | 91 | 184 | 2.0 | 8.0 | 0.00 | 0.00 | 0.00 | 64 | 1011.4 |
| 20260902230857 | 91 | 84 | 2.0 | 8.0 | 0.00 | 0.00 | 0.00 | 64 | 1011.4 |
| 20260902230847 | 91 | 178 | 2.0 | 8.0 | 0.00 | 0.00 | 0.00 | 63 | 1011.3 |
| 20260902230737 | 91 | 109 | 2.0 | 8.0 | 0.00 | 0.00 | 0.00 | 63 | 1011.3 |
| 20260902230628 | 91 | 29 | 3.0 | 8.0 | 0.00 | 0.00 | 0.00 | 63 | 1011.3 |
| 20260902230528 | 91 | 201 | 3.0 | 8.0 | 0.00 | 0.00 | 0.00 | 63 | 1011.3 |
| 20260902230425 | 91 | 174 | 3.0 | 8.0 | 0.00 | 0.00 | 0.00 | 63 | 1011.3 |
| 20260902230356 | 91 | 11 | 3.0 | 8.0 | 0.00 | 0.00 | 0.00 | 63 | 1011.3 |
| 20260902230319 | 91 | 133 | 3.0 | 8.0 | 0.00 | 0.00 | 0.00 | 63 | 1011.3 |
| 20260902230219 | 91 | 82 | 3.0 | 8.0 | 0.00 | 0.00 | 0.00 | 63 | 1011.4 |
| 20260902230119 | 91 | 169 | 3.0 | 8.0 | 0.00 | 0.00 | 0.00 | 62 | 1011.4 |
| 20260902230018 | 91 | 163 | 3.0 | 8.0 | 0.00 | 0.00 | 0.00 | 62 | 1011.4 |
| 20260902225920 | 91 | 111 | 3.0 | 8.0 | 0.00 | 0.00 | 0.00 | 62 | 1011.4 |
| 20260902225851 | 91 | 166 | 3.0 | 8.0 | 0.00 | 0.00 | 0.00 | 62 | 1011.4 |
| 20260902225819 | 91 | 210 | 3.0 | 10.0 | 0.00 | 0.00 | 0.00 | 62 | 1011.4 |
| 20260902225719 | 91 | 154 | 3.0 | 10.0 | 0.00 | 0.00 | 0.00 | 62 | 1011.4 |
| 20260902225619 | 91 | 154 | 3.0 | 10.0 | 0.00 | 0.00 | 0.00 | 62 | 1011.4 |
| 20260902225519 | 91 | 206 | 3.0 | 10.0 | 0.00 | 0.00 | 0.00 | 64 | 1011.4 |
| 20260902225420 | 91 | 216 | 3.0 | 10.0 | 0.00 | 0.00 | 0.00 | 64 | 1011.4 |
| 20260902225350 | 91 | 177 | 3.0 | 10.0 | 0.00 | 0.00 | 0.00 | 64 | 1011.4 |
| 20260902225316 | 91 | 98 | 3.0 | 10.0 | 0.00 | 0.00 | 0.00 | 63 | 1011.4 |
| 20260902225216 | 91 | 167 | 3.0 | 10.0 | 0.00 | 0.00 | 0.00 | 63 | 1011.3 |
| 20260902225116 | 91 | 97 | 3.0 | 10.0 | 0.00 | 0.00 | 0.00 | 62 | 1011.3 |
| 20260902225014 | 92 | 90 | 3.0 | 10.0 | 0.00 | 0.00 | 0.00 | 61 | 1011.3 |
| 20260902224914 | 92 | 170 | 3.0 | 10.0 | 0.00 | 0.00 | 0.00 | 61 | 1011.3 |
| 20260902224851 | 92 | 145 | 3.0 | 10.0 | 0.00 | 0.00 | 0.00 | 61 | 1011.3 |
| 20260902224813 | 92 | 176 | 2.0 | 7.0 | 0.00 | 0.00 | 0.00 | 60 | 1011.2 |
| 20260902224713 | 92 | 23 | 2.0 | 7.0 | 0.00 | 0.00 | 0.00 | 59 | 1011.3 |
| 20260902224614 | 92 | 223 | 2.0 | 6.0 | 0.00 | 0.00 | 0.00 | 59 | 1011.3 |
| 20260902224508 | 92 | 282 | 2.0 | 6.0 | 0.00 | 0.00 | 0.00 | 59 | 1011.3 |
| 20260902224408 | 92 | 126 | 2.0 | 6.0 | 0.00 | 0.00 | 0.00 | 59 | 1011.3 |
| 20260902224351 | 92 | 135 | 2.0 | 6.0 | 0.00 | 0.00 | 0.00 | 59 | 1011.3 |
| 20260902224307 | 92 | 160 | 2.0 | 6.0 | 0.00 | 0.00 | 0.00 | 59 | 1011.3 |
| 20260902224204 | 92 | 167 | 2.0 | 7.0 | 0.00 | 0.00 | 0.00 | 57 | 1011.4 |
| 20260902224101 | 92 | 119 | 2.0 | 7.0 | 0.00 | 0.00 | 0.00 | 57 | 1011.4 |
| 20260902224001 | 92 | 73 | 2.0 | 7.0 | 0.00 | 0.00 | 0.00 | 57 | 1011.4 |
| 20260902223902 | 92 | 106 | 2.0 | 7.0 | 0.00 | 0.00 | 0.00 | 57 | 1011.4 |
| 20260902223851 | 92 | 116 | 2.0 | 7.0 | 0.00 | 0.00 | 0.00 | 57 | 1011.4 |
| 20260902223801 | 92 | 176 | 2.0 | 7.0 | 0.00 | 0.00 | 0.00 | 57 | 1011.4 |
| 20260902223702 | 92 | 133 | 2.0 | 7.0 | 0.00 | 0.00 | 0.00 | 58 | 1011.4 |
| 20260902223613 | 91 | 91 | 2.0 | 7.0 | 0.00 | 0.00 | 0.00 | 60 | 1011.4 |
| 20260902223601 | 92 | 348 | 2.0 | 7.0 | 0.00 | 0.00 | 0.00 | 58 | 1011.4 |
| 20260902223459 | 92 | 136 | 2.0 | 7.0 | 0.00 | 0.00 | 0.00 | 59 | 1011.3 |
| 20260902223454 | 91 | 319 | 2.0 | 7.0 | 0.00 | 0.00 | 0.00 | 60 | 1011.4 |
| 20260902223258 | 91 | 116 | 2.0 | 7.0 | 0.00 | 0.00 | 0.00 | 60 | 1011.4 |
| 20260902223156 | 91 | 174 | 2.0 | 6.0 | 0.00 | 0.00 | 0.00 | 60 | 1011.5 |
| 20260902223055 | 91 | 174 | 2.0 | 6.0 | 0.00 | 0.00 | 0.00 | 61 | 1011.4 |
| 20260902222955 | 91 | 223 | 2.0 | 5.0 | 0.00 | 0.00 | 0.00 | 61 | 1011.5 |
| 20260902222855 | 91 | 156 | 2.0 | 8.0 | 0.00 | 0.00 | 0.00 | 61 | 1011.5 |
| 20260902222845 | 91 | 149 | 2.0 | 8.0 | 0.00 | 0.00 | 0.00 | 61 | 1011.5 |
| 20260902222755 | 91 | 60 | 2.0 | 8.0 | 0.00 | 0.00 | 0.00 | 61 | 1011.5 |
| 20260902222656 | 91 | 87 | 2.0 | 8.0 | 0.00 | 0.00 | 0.00 | 61 | 1011.5 |
| 20260902222556 | 91 | 37 | 2.0 | 8.0 | 0.00 | 0.00 | 0.00 | 61 | 1011.5 |
| 20260902222456 | 91 | 341 | 2.0 | 8.0 | 0.00 | 0.00 | 0.00 | 62 | 1011.5 |
| 20260902222355 | 91 | 229 | 2.0 | 8.0 | 0.00 | 0.00 | 0.00 | 62 | 1011.5 |
| 20260902222346 | 91 | 310 | 2.0 | 8.0 | 0.00 | 0.00 | 0.00 | 62 | 1011.5 |
| 20260902222256 | 91 | 166 | 2.0 | 8.0 | 0.00 | 0.00 | 0.00 | 62 | 1011.5 |
| 20260902222155 | 91 | 69 | 2.0 | 8.0 | 0.00 | 0.00 | 0.00 | 62 | 1011.5 |
| 20260902222055 | 91 | 33 | 2.0 | 8.0 | 0.00 | 0.00 | 0.00 | 62 | 1011.5 |
| 20260902221955 | 91 | 128 | 2.0 | 8.0 | 0.00 | 0.00 | 0.00 | 62 | 1011.5 |
| 20260902221855 | 91 | 179 | 2.0 | 7.0 | 0.00 | 0.00 | 0.00 | 62 | 1011.5 |
| 20260902221845 | 91 | 160 | 2.0 | 7.0 | 0.00 | 0.00 | 0.00 | 62 | 1011.5 |
| 20260902221756 | 91 | 239 | 2.0 | 7.0 | 0.00 | 0.00 | 0.00 | 62 | 1011.5 |
| 20260902221656 | 91 | 293 | 2.0 | 7.0 | 0.00 | 0.00 | 0.00 | 62 | 1011.5 |
| 20260902221556 | 91 | 78 | 2.0 | 7.0 | 0.00 | 0.00 | 0.00 | 62 | 1011.5 |
| 20260902221453 | 91 | 111 | 3.0 | 8.0 | 0.00 | 0.00 | 0.00 | 62 | 1011.5 |
| 20260902221353 | 91 | 166 | 3.0 | 8.0 | 0.00 | 0.00 | 0.00 | 62 | 1011.4 |
| 20260902221346 | 91 | 192 | 3.0 | 8.0 | 0.00 | 0.00 | 0.00 | 62 | 1011.5 |
| 20260902221250 | 91 | 354 | 3.0 | 8.0 | 0.00 | 0.00 | 0.00 | 62 | 1011.5 |
| 20260902221150 | 91 | 74 | 3.0 | 8.0 | 0.00 | 0.00 | 0.00 | 61 | 1011.4 |
| 20260902221049 | 91 | 30 | 3.0 | 8.0 | 0.00 | 0.00 | 0.00 | 62 | 1011.5 |
| 20260902220950 | 91 | 43 | 3.0 | 8.0 | 0.00 | 0.00 | 0.00 | 62 | 1011.5 |
| 20260902220847 | 91 | 148 | 3.0 | 8.0 | 0.00 | 0.00 | 0.00 | 61 | 1011.5 |
| 20260902220747 | 91 | 197 | 3.0 | 8.0 | 0.00 | 0.00 | 0.00 | 62 | 1011.4 |
| 20260902220647 | 92 | 67 | 3.0 | 8.0 | 0.00 | 0.00 | 0.00 | 61 | 1011.4 |
| 20260902220547 | 92 | 160 | 3.0 | 8.0 | 0.00 | 0.00 | 0.00 | 61 | 1011.4 |
| 20260902220447 | 92 | 160 | 2.0 | 8.0 | 0.00 | 0.00 | 0.00 | 61 | 1011.4 |
| 20260902220348 | 92 | 151 | 2.0 | 8.0 | 0.00 | 0.00 | 0.00 | 61 | 1011.4 |
| 20260902220343 | 92 | 128 | 2.0 | 8.0 | 0.00 | 0.00 | 0.00 | 61 | 1011.4 |
| 20260902220247 | 92 | 146 | 2.0 | 8.0 | 0.00 | 0.00 | 0.00 | 61 | 1011.4 |
| 20260902220147 | 92 | 125 | 2.0 | 8.0 | 0.00 | 0.00 | 0.00 | 61 | 1011.4 |
| 20260902220110 | 92 | 172 | 2.0 | 8.0 | 0.00 | 0.00 | 0.00 | 61 | 1011.4 |
| 20260902220047 | 92 | 53 | 2.0 | 8.0 | 0.00 | 0.00 | 0.00 | 61 | 1011.4 |
| 20260902215954 | 92 | 286 | 2.0 | 8.0 | 0.00 | 0.00 | 0.00 | 61 | 1011.4 |
| 20260902215948 | 92 | 183 | 2.0 | 8.0 | 0.00 | 0.00 | 0.00 | 61 | 1011.4 |
| 20260902215747 | 92 | 194 | 2.0 | 6.0 | 0.00 | 0.00 | 0.00 | 60 | 1011.4 |
| 20260902215647 | 93 | 335 | 2.0 | 6.0 | 0.00 | 0.00 | 0.00 | 60 | 1011.4 |
| 20260902215547 | 93 | 83 | 2.0 | 6.0 | 0.00 | 0.00 | 0.00 | 60 | 1011.4 |
| 20260902215446 | 93 | 146 | 2.0 | 6.0 | 0.00 | 0.00 | 0.00 | 60 | 1011.4 |
| 20260902215347 | 93 | 174 | 2.0 | 5.0 | 0.00 | 0.00 | 0.00 | 60 | 1011.4 |
| 20260902215339 | 93 | 132 | 2.0 | 5.0 | 0.00 | 0.00 | 0.00 | 60 | 1011.4 |
| 20260902215247 | 93 | 290 | 2.0 | 5.0 | 0.00 | 0.00 | 0.00 | 60 | 1011.4 |
| 20260902215147 | 93 | 104 | 2.0 | 5.0 | 0.00 | 0.00 | 0.00 | 60 | 1011.4 |
| 20260902215100 | 93 | 1 | 2.0 | 7.0 | 0.00 | 0.00 | 0.00 | 59 | 1011.4 |
| 20260902215047 | 93 | 151 | 2.0 | 7.0 | 0.00 | 0.00 | 0.00 | 60 | 1011.4 |
| 20260902214951 | 93 | 84 | 2.0 | 7.0 | 0.00 | 0.00 | 0.00 | 60 | 1011.4 |
| 20260902214946 | 93 | 44 | 2.0 | 7.0 | 0.00 | 0.00 | 0.00 | 59 | 1011.4 |
| 20260902214747 | 93 | 0 | 2.0 | 7.0 | 0.00 | 0.00 | 0.00 | 59 | 1011.4 |
| 20260902214644 | 93 | 86 | 2.0 | 7.0 | 0.00 | 0.00 | 0.00 | 60 | 1011.4 |
| 20260902214604 | 93 | 114 | 2.0 | 7.0 | 0.00 | 0.00 | 0.00 | 59 | 1011.4 |
| 20260902214541 | 93 | 81 | 2.0 | 7.0 | 0.00 | 0.00 | 0.00 | 59 | 1011.4 |
| 20260902214446 | 93 | 171 | 2.0 | 7.0 | 0.00 | 0.00 | 0.00 | 59 | 1011.4 |
| 20260902214335 | 93 | 247 | 2.0 | 7.0 | 0.00 | 0.00 | 0.00 | 59 | 1011.4 |
| 20260902214235 | 93 | 78 | 2.0 | 7.0 | 0.00 | 0.00 | 0.00 | 59 | 1011.4 |
| 20260902214135 | 93 | 124 | 2.0 | 7.0 | 0.00 | 0.00 | 0.00 | 59 | 1011.4 |